<?xml version='1.0' encoding='UTF-8'?><gpx version="1.1" creator="JPX - https://github.com/jenetics/jpx" xmlns="http://www.topografix.com/GPX/1/1"><trk><trkseg><trkpt lat="-25.02863767874917" lon="-53.36864529212811"><ele>692.0</ele><time>2026-04-04T11:10:12.526Z</time></trkpt><trkpt lat="-25.028704261750498" lon="-53.36866394510105"><ele>692.0</ele><time>2026-04-04T11:10:20.452Z</time></trkpt><trkpt lat="-25.02879658647292" lon="-53.36868986411048"><ele>692.0</ele><time>2026-04-04T11:11:10.001Z</time></trkpt><trkpt lat="-25.028767102607837" lon="-53.36876542564882"><ele>692.0</ele><time>2026-04-04T11:19:40.001Z</time></trkpt><trkpt lat="-25.028826709776045" lon="-53.36873214014587"><ele>692.0</ele><time>2026-04-04T11:19:45.001Z</time></trkpt><trkpt lat="-25.02879514173859" lon="-53.368663642925"><ele>692.0</ele><time>2026-04-04T11:26:08.003Z</time></trkpt><trkpt lat="-25.028722586709296" lon="-53.36865224742479"><ele>692.0</ele><time>2026-04-04T11:26:11.003Z</time></trkpt><trkpt lat="-25.028663224962035" lon="-53.36862484728166"><ele>692.0</ele><time>2026-04-04T11:26:15.003Z</time></trkpt><trkpt lat="-25.02859793994964" lon="-53.36855150186552"><ele>692.0</ele><time>2026-04-04T11:26:18.003Z</time></trkpt><trkpt lat="-25.028536615644295" lon="-53.36844539984653"><ele>692.0</ele><time>2026-04-04T11:26:20.003Z</time></trkpt><trkpt lat="-25.028501720322215" lon="-53.36831020379799"><ele>692.0</ele><time>2026-04-04T11:26:22.003Z</time></trkpt><trkpt lat="-25.02852956429041" lon="-53.368157526641355"><ele>692.0</ele><time>2026-04-04T11:26:24.003Z</time></trkpt><trkpt lat="-25.028585604832443" lon="-53.36804519665586"><ele>692.0</ele><time>2026-04-04T11:26:25.003Z</time></trkpt><trkpt lat="-25.028649701726284" lon="-53.36793862142464"><ele>692.0</ele><time>2026-04-04T11:26:26.003Z</time></trkpt><trkpt lat="-25.028717844177404" lon="-53.367807231378436"><ele>692.0</ele><time>2026-04-04T11:26:27.003Z</time></trkpt><trkpt lat="-25.028783508747058" lon="-53.3676365032737"><ele>693.25</ele><time>2026-04-04T11:26:28.003Z</time></trkpt><trkpt lat="-25.02882951219346" lon="-53.367480534848106"><ele>694.5</ele><time>2026-04-04T11:26:29.003Z</time></trkpt><trkpt lat="-25.028876937357776" lon="-53.36732498461265"><ele>695.75</ele><time>2026-04-04T11:26:30.003Z</time></trkpt><trkpt lat="-25.028929683842993" lon="-53.367192228728335"><ele>697.0</ele><time>2026-04-04T11:26:31.003Z</time></trkpt><trkpt lat="-25.02899286207697" lon="-53.367051689574794"><ele>699.6666666666667</ele><time>2026-04-04T11:26:32.003Z</time></trkpt><trkpt lat="-25.02906257689398" lon="-53.366904394940754"><ele>702.3333333333334</ele><time>2026-04-04T11:26:33.003Z</time></trkpt><trkpt lat="-25.029130694682507" lon="-53.36674552316489"><ele>705.0</ele><time>2026-04-04T11:26:34.003Z</time></trkpt><trkpt lat="-25.029194138553855" lon="-53.36658515096466"><ele>705.6666666666666</ele><time>2026-04-04T11:26:35.002Z</time></trkpt><trkpt lat="-25.029271942593983" lon="-53.36642329670528"><ele>706.3333333333333</ele><time>2026-04-04T11:26:36.002Z</time></trkpt><trkpt lat="-25.029347524072236" lon="-53.366279680468985"><ele>707.0</ele><time>2026-04-04T11:26:37.002Z</time></trkpt><trkpt lat="-25.029419577973364" lon="-53.3661214695412"><ele>709.0</ele><time>2026-04-04T11:26:38.002Z</time></trkpt><trkpt lat="-25.02949889859072" lon="-53.36595234265765"><ele>711.0</ele><time>2026-04-04T11:26:39.002Z</time></trkpt><trkpt lat="-25.02956052755132" lon="-53.36578806549597"><ele>713.0</ele><time>2026-04-04T11:26:40.002Z</time></trkpt><trkpt lat="-25.029625972655605" lon="-53.365642445280265"><ele>714.3333333333333</ele><time>2026-04-04T11:26:41.002Z</time></trkpt><trkpt lat="-25.029708060861335" lon="-53.36548000340711"><ele>715.6666666666666</ele><time>2026-04-04T11:26:42.002Z</time></trkpt><trkpt lat="-25.029784761766575" lon="-53.36531055725921"><ele>717.0</ele><time>2026-04-04T11:26:43.002Z</time></trkpt><trkpt lat="-25.02986391056297" lon="-53.365141719967276"><ele>717.0</ele><time>2026-04-04T11:26:44.002Z</time></trkpt><trkpt lat="-25.029935492508027" lon="-53.36499054907615"><ele>717.0</ele><time>2026-04-04T11:26:45.002Z</time></trkpt><trkpt lat="-25.030009025525764" lon="-53.36482530285227"><ele>717.0</ele><time>2026-04-04T11:26:46.002Z</time></trkpt><trkpt lat="-25.030086158165663" lon="-53.36466015191406"><ele>718.6666666666666</ele><time>2026-04-04T11:26:47.002Z</time></trkpt><trkpt lat="-25.03016411736769" lon="-53.364484617917896"><ele>720.3333333333333</ele><time>2026-04-04T11:26:48.002Z</time></trkpt><trkpt lat="-25.030241096473137" lon="-53.36431322937089"><ele>722.0</ele><time>2026-04-04T11:26:49.002Z</time></trkpt><trkpt lat="-25.0303093790934" lon="-53.36414360361693"><ele>722.0</ele><time>2026-04-04T11:26:50.002Z</time></trkpt><trkpt lat="-25.03037228611571" lon="-53.363984442604234"><ele>722.0</ele><time>2026-04-04T11:26:51.002Z</time></trkpt><trkpt lat="-25.03044349747687" lon="-53.36383715471299"><ele>722.0</ele><time>2026-04-04T11:26:52.002Z</time></trkpt><trkpt lat="-25.030505179457432" lon="-53.363695633931314"><ele>721.75</ele><time>2026-04-04T11:26:53.002Z</time></trkpt><trkpt lat="-25.030559507708798" lon="-53.363558751777084"><ele>721.5</ele><time>2026-04-04T11:26:54.002Z</time></trkpt><trkpt lat="-25.030615309144892" lon="-53.36342056530161"><ele>721.25</ele><time>2026-04-04T11:26:55.002Z</time></trkpt><trkpt lat="-25.030672388412494" lon="-53.363286369933974"><ele>721.0</ele><time>2026-04-04T11:26:56.002Z</time></trkpt><trkpt lat="-25.030722732236686" lon="-53.363164410509405"><ele>721.0</ele><time>2026-04-04T11:26:57.002Z</time></trkpt><trkpt lat="-25.030767340076473" lon="-53.36306151593807"><ele>721.0</ele><time>2026-04-04T11:26:58.002Z</time></trkpt><trkpt lat="-25.030816874670318" lon="-53.36298640147976"><ele>721.0</ele><time>2026-04-04T11:26:59.002Z</time></trkpt><trkpt lat="-25.03085798675041" lon="-53.36291830208571"><ele>721.0</ele><time>2026-04-04T11:27:00.002Z</time></trkpt><trkpt lat="-25.030883023116683" lon="-53.36284835988632"><ele>721.0</ele><time>2026-04-04T11:27:01.002Z</time></trkpt><trkpt lat="-25.03087809848286" lon="-53.36277701075515"><ele>721.0</ele><time>2026-04-04T11:27:02.002Z</time></trkpt><trkpt lat="-25.030868202323916" lon="-53.362695992641754"><ele>719.5999999999999</ele><time>2026-04-04T11:27:03.002Z</time></trkpt><trkpt lat="-25.030821139999468" lon="-53.36262779102292"><ele>718.2</ele><time>2026-04-04T11:27:04.002Z</time></trkpt><trkpt lat="-25.030753400111042" lon="-53.362573690231244"><ele>716.8</ele><time>2026-04-04T11:27:05.002Z</time></trkpt><trkpt lat="-25.03067003786499" lon="-53.36253080500154"><ele>715.4000000000001</ele><time>2026-04-04T11:27:06.002Z</time></trkpt><trkpt lat="-25.030569344278454" lon="-53.36248042938593"><ele>714.0</ele><time>2026-04-04T11:27:07.002Z</time></trkpt><trkpt lat="-25.030453730036307" lon="-53.36241307734752"><ele>714.0</ele><time>2026-04-04T11:27:08.002Z</time></trkpt><trkpt lat="-25.03032363055541" lon="-53.36232465871375"><ele>714.0</ele><time>2026-04-04T11:27:09.002Z</time></trkpt><trkpt lat="-25.030180628718497" lon="-53.36224076134667"><ele>714.0</ele><time>2026-04-04T11:27:10.002Z</time></trkpt><trkpt lat="-25.030022026360875" lon="-53.3621495889382"><ele>716.0</ele><time>2026-04-04T11:27:11.002Z</time></trkpt><trkpt lat="-25.029857434621867" lon="-53.3620555551584"><ele>718.0</ele><time>2026-04-04T11:27:12.002Z</time></trkpt><trkpt lat="-25.02969847853412" lon="-53.36196653184209"><ele>720.0</ele><time>2026-04-04T11:27:13.002Z</time></trkpt><trkpt lat="-25.029537845284192" lon="-53.361876038439476"><ele>720.0</ele><time>2026-04-04T11:27:14.002Z</time></trkpt><trkpt lat="-25.029372439522295" lon="-53.361783132729116"><ele>720.0</ele><time>2026-04-04T11:27:15.002Z</time></trkpt><trkpt lat="-25.029213586706685" lon="-53.361702059278585"><ele>720.0</ele><time>2026-04-04T11:27:16.002Z</time></trkpt><trkpt lat="-25.02907563661138" lon="-53.36162584389126"><ele>722.0</ele><time>2026-04-04T11:27:17.002Z</time></trkpt><trkpt lat="-25.0289484470433" lon="-53.36154971855359"><ele>724.0</ele><time>2026-04-04T11:27:18.002Z</time></trkpt><trkpt lat="-25.028807480478527" lon="-53.36149411272108"><ele>726.0</ele><time>2026-04-04T11:27:19.002Z</time></trkpt><trkpt lat="-25.028647331944462" lon="-53.36143679179573"><ele>726.0</ele><time>2026-04-04T11:27:20.002Z</time></trkpt><trkpt lat="-25.028481857146275" lon="-53.3613740112366"><ele>726.0</ele><time>2026-04-04T11:27:21.002Z</time></trkpt><trkpt lat="-25.02832023710836" lon="-53.361291574527534"><ele>726.0</ele><time>2026-04-04T11:27:22.002Z</time></trkpt><trkpt lat="-25.02816647763019" lon="-53.36118881089722"><ele>727.6666666666666</ele><time>2026-04-04T11:27:23.002Z</time></trkpt><trkpt lat="-25.028021267940645" lon="-53.36108075915018"><ele>729.3333333333333</ele><time>2026-04-04T11:27:24.002Z</time></trkpt><trkpt lat="-25.027882864139578" lon="-53.360990545317385"><ele>731.0</ele><time>2026-04-04T11:27:25.002Z</time></trkpt><trkpt lat="-25.027742965302576" lon="-53.36090077630692"><ele>731.0</ele><time>2026-04-04T11:27:26.002Z</time></trkpt><trkpt lat="-25.027600051412936" lon="-53.36082328065"><ele>731.0</ele><time>2026-04-04T11:27:27.002Z</time></trkpt><trkpt lat="-25.02743602458612" lon="-53.36074260009181"><ele>731.0</ele><time>2026-04-04T11:27:28.002Z</time></trkpt><trkpt lat="-25.027277800399172" lon="-53.36066395334452"><ele>731.25</ele><time>2026-04-04T11:27:29.002Z</time></trkpt><trkpt lat="-25.027134050384948" lon="-53.36059509583254"><ele>731.5</ele><time>2026-04-04T11:27:30.002Z</time></trkpt><trkpt lat="-25.027010176655935" lon="-53.36053612693567"><ele>731.75</ele><time>2026-04-04T11:27:31.002Z</time></trkpt><trkpt lat="-25.026887929897875" lon="-53.36048264435416"><ele>732.0</ele><time>2026-04-04T11:27:32.002Z</time></trkpt><trkpt lat="-25.026764304377117" lon="-53.36042542154311"><ele>731.2</ele><time>2026-04-04T11:27:33.002Z</time></trkpt><trkpt lat="-25.026649482391818" lon="-53.36036268304659"><ele>730.4000000000001</ele><time>2026-04-04T11:27:34.002Z</time></trkpt><trkpt lat="-25.026545165278662" lon="-53.36030412958125"><ele>729.5999999999999</ele><time>2026-04-04T11:27:35.002Z</time></trkpt><trkpt lat="-25.026484042941778" lon="-53.360252774821895"><ele>728.8</ele><time>2026-04-04T11:27:36.002Z</time></trkpt><trkpt lat="-25.026434952912872" lon="-53.36018436074338"><ele>728.0</ele><time>2026-04-04T11:27:37.002Z</time></trkpt><trkpt lat="-25.02641631528008" lon="-53.360093261487854"><ele>727.75</ele><time>2026-04-04T11:27:38.002Z</time></trkpt><trkpt lat="-25.026411147410432" lon="-53.35999183459175"><ele>727.5</ele><time>2026-04-04T11:27:39.002Z</time></trkpt><trkpt lat="-25.02643681416464" lon="-53.35983620596415"><ele>727.25</ele><time>2026-04-04T11:27:40.002Z</time></trkpt><trkpt lat="-25.02646804765711" lon="-53.359673514473265"><ele>727.0</ele><time>2026-04-04T11:27:41.002Z</time></trkpt><trkpt lat="-25.02650307811975" lon="-53.35952720079406"><ele>726.3333333333334</ele><time>2026-04-04T11:27:42.001Z</time></trkpt><trkpt lat="-25.026531188214456" lon="-53.35937166626536"><ele>725.6666666666666</ele><time>2026-04-04T11:27:43.001Z</time></trkpt><trkpt lat="-25.026547382810286" lon="-53.35919309774357"><ele>725.0</ele><time>2026-04-04T11:27:44.002Z</time></trkpt><trkpt lat="-25.026574879961462" lon="-53.35900635302252"><ele>724.6666666666666</ele><time>2026-04-04T11:27:45.002Z</time></trkpt><trkpt lat="-25.026623657973847" lon="-53.358835632441156"><ele>724.3333333333334</ele><time>2026-04-04T11:27:46.002Z</time></trkpt><trkpt lat="-25.02666862195057" lon="-53.35867038241556"><ele>724.0</ele><time>2026-04-04T11:27:47.002Z</time></trkpt><trkpt lat="-25.026737647586152" lon="-53.358504192293026"><ele>724.0</ele><time>2026-04-04T11:27:48.002Z</time></trkpt><trkpt lat="-25.026790257785517" lon="-53.35833516664364"><ele>724.0</ele><time>2026-04-04T11:27:49.002Z</time></trkpt><trkpt lat="-25.026847819444807" lon="-53.35815524682714"><ele>724.0</ele><time>2026-04-04T11:27:50.002Z</time></trkpt><trkpt lat="-25.026920079313623" lon="-53.35794093158927"><ele>722.6666666666667</ele><time>2026-04-04T11:27:51.002Z</time></trkpt><trkpt lat="-25.02698268847899" lon="-53.357746529685585"><ele>721.3333333333334</ele><time>2026-04-04T11:27:52.002Z</time></trkpt><trkpt lat="-25.027031167543996" lon="-53.35757712020217"><ele>720.0</ele><time>2026-04-04T11:27:53.002Z</time></trkpt><trkpt lat="-25.02708104217038" lon="-53.35741914835482"><ele>720.0</ele><time>2026-04-04T11:27:54.002Z</time></trkpt><trkpt lat="-25.027127161438713" lon="-53.35726619857667"><ele>720.0</ele><time>2026-04-04T11:27:55.002Z</time></trkpt><trkpt lat="-25.02716947281372" lon="-53.357127212302224"><ele>720.0</ele><time>2026-04-04T11:27:56.002Z</time></trkpt><trkpt lat="-25.02721079728005" lon="-53.35699974518859"><ele>720.0</ele><time>2026-04-04T11:27:57.002Z</time></trkpt><trkpt lat="-25.027254905275797" lon="-53.356869010272185"><ele>719.25</ele><time>2026-04-04T11:27:58.002Z</time></trkpt><trkpt lat="-25.027313767207154" lon="-53.356732425445244"><ele>718.5</ele><time>2026-04-04T11:27:59.002Z</time></trkpt><trkpt lat="-25.027354662837276" lon="-53.35659711840118"><ele>717.75</ele><time>2026-04-04T11:28:00.002Z</time></trkpt><trkpt lat="-25.027401800180208" lon="-53.35647235720525"><ele>717.0</ele><time>2026-04-04T11:28:01.002Z</time></trkpt><trkpt lat="-25.02745392918233" lon="-53.35634168250171"><ele>716.4000000000001</ele><time>2026-04-04T11:28:02.002Z</time></trkpt><trkpt lat="-25.027496772384644" lon="-53.35622309537257"><ele>715.8000000000001</ele><time>2026-04-04T11:28:03.002Z</time></trkpt><trkpt lat="-25.02754311500434" lon="-53.35611525861012"><ele>715.2</ele><time>2026-04-04T11:28:04.002Z</time></trkpt><trkpt lat="-25.027584896682505" lon="-53.35600346948416"><ele>714.6</ele><time>2026-04-04T11:28:05.002Z</time></trkpt><trkpt lat="-25.027616696130256" lon="-53.35591328013397"><ele>714.0</ele><time>2026-04-04T11:28:06.002Z</time></trkpt><trkpt lat="-25.02764104980558" lon="-53.35582952842215"><ele>714.0</ele><time>2026-04-04T11:28:07.002Z</time></trkpt><trkpt lat="-25.02766207274421" lon="-53.35574521691901"><ele>714.0</ele><time>2026-04-04T11:28:09.002Z</time></trkpt><trkpt lat="-25.02774569271901" lon="-53.35572851370019"><ele>714.0</ele><time>2026-04-04T11:28:32.002Z</time></trkpt><trkpt lat="-25.027788471838626" lon="-53.35578114347079"><ele>714.0</ele><time>2026-04-04T11:28:35.002Z</time></trkpt><trkpt lat="-25.027858647840233" lon="-53.35583625939085"><ele>714.0</ele><time>2026-04-04T11:30:58.002Z</time></trkpt><trkpt lat="-25.027925557530363" lon="-53.355845965720384"><ele>714.0</ele><time>2026-04-04T11:31:03.002Z</time></trkpt><trkpt lat="-25.028023076618048" lon="-53.35584319005706"><ele>714.0</ele><time>2026-04-04T11:31:06.002Z</time></trkpt><trkpt lat="-25.02809670114691" lon="-53.35584080791559"><ele>714.0</ele><time>2026-04-04T11:31:08.002Z</time></trkpt><trkpt lat="-25.028163345041065" lon="-53.35579012677957"><ele>714.0</ele><time>2026-04-04T11:31:12.002Z</time></trkpt><trkpt lat="-25.028249663403887" lon="-53.355812289444124"><ele>714.0</ele><time>2026-04-04T11:31:16.002Z</time></trkpt><trkpt lat="-25.028313901561717" lon="-53.355817602222"><ele>714.0</ele><time>2026-04-04T11:31:18.002Z</time></trkpt><trkpt lat="-25.028341617929048" lon="-53.35572616435246"><ele>714.0</ele><time>2026-04-04T11:31:25.002Z</time></trkpt><trkpt lat="-25.02837793501541" lon="-53.35565915109747"><ele>713.6666666666666</ele><time>2026-04-04T11:31:28.002Z</time></trkpt><trkpt lat="-25.02844052099098" lon="-53.35562198578296"><ele>713.3333333333334</ele><time>2026-04-04T11:31:30.002Z</time></trkpt><trkpt lat="-25.02852152448009" lon="-53.355548535903765"><ele>713.0</ele><time>2026-04-04T11:31:33.002Z</time></trkpt><trkpt lat="-25.028571573965234" lon="-53.35547711645186"><ele>712.6666666666667</ele><time>2026-04-04T11:31:36.002Z</time></trkpt><trkpt lat="-25.02864691959736" lon="-53.35544831752784"><ele>712.3333333333334</ele><time>2026-04-04T11:31:38.002Z</time></trkpt><trkpt lat="-25.02870845227421" lon="-53.355385981091295"><ele>712.0</ele><time>2026-04-04T11:31:40.002Z</time></trkpt><trkpt lat="-25.028719409377267" lon="-53.355305359161626"><ele>709.8333333333334</ele><time>2026-04-04T11:31:42.002Z</time></trkpt><trkpt lat="-25.028719569034706" lon="-53.35522201128385"><ele>707.6666666666667</ele><time>2026-04-04T11:31:45.002Z</time></trkpt><trkpt lat="-25.028718587758384" lon="-53.35514436334116"><ele>705.5</ele><time>2026-04-04T11:31:49.002Z</time></trkpt><trkpt lat="-25.02865563882729" lon="-53.355087745332526"><ele>703.3333333333334</ele><time>2026-04-04T11:31:54.002Z</time></trkpt><trkpt lat="-25.02856455226178" lon="-53.35512170773781"><ele>701.1666666666666</ele><time>2026-04-04T11:32:00.002Z</time></trkpt><trkpt lat="-25.028502282268658" lon="-53.35513809515245"><ele>699.0</ele><time>2026-04-04T11:32:02.003Z</time></trkpt><trkpt lat="-25.028454979565176" lon="-53.35519622150645"><ele>699.0</ele><time>2026-04-04T11:32:05.002Z</time></trkpt><trkpt lat="-25.028371142719816" lon="-53.35522212919184"><ele>699.0</ele><time>2026-04-04T11:32:08.002Z</time></trkpt><trkpt lat="-25.028291442615483" lon="-53.35522424636858"><ele>699.0</ele><time>2026-04-04T11:32:12.002Z</time></trkpt><trkpt lat="-25.02821776267535" lon="-53.35524131547386"><ele>699.0</ele><time>2026-04-04T11:32:14.002Z</time></trkpt><trkpt lat="-25.028145561008422" lon="-53.35521418307557"><ele>699.0</ele><time>2026-04-04T11:32:17.002Z</time></trkpt><trkpt lat="-25.028074627440272" lon="-53.35517437711292"><ele>699.0</ele><time>2026-04-04T11:32:20.002Z</time></trkpt><trkpt lat="-25.028091440234583" lon="-53.355092598931236"><ele>699.6666666666666</ele><time>2026-04-04T11:32:24.002Z</time></trkpt><trkpt lat="-25.028098276086553" lon="-53.35499312094512"><ele>700.3333333333334</ele><time>2026-04-04T11:32:27.002Z</time></trkpt><trkpt lat="-25.028136321568944" lon="-53.35492966708471"><ele>701.0</ele><time>2026-04-04T11:32:30.002Z</time></trkpt><trkpt lat="-25.02807515013746" lon="-53.35485531628044"><ele>701.6666666666667</ele><time>2026-04-04T11:32:33.002Z</time></trkpt><trkpt lat="-25.02802575647849" lon="-53.354807163474874"><ele>702.3333333333334</ele><time>2026-04-04T11:32:36.002Z</time></trkpt><trkpt lat="-25.028002479477458" lon="-53.3547269099999"><ele>703.0</ele><time>2026-04-04T11:32:39.002Z</time></trkpt><trkpt lat="-25.027964154523023" lon="-53.35466824611034"><ele>701.7142857142857</ele><time>2026-04-04T11:32:41.002Z</time></trkpt><trkpt lat="-25.02792508385954" lon="-53.35460857365436"><ele>700.4285714285714</ele><time>2026-04-04T11:32:44.002Z</time></trkpt><trkpt lat="-25.02784206939916" lon="-53.354604222628986"><ele>699.1428571428571</ele><time>2026-04-04T11:32:51.002Z</time></trkpt><trkpt lat="-25.027776207717483" lon="-53.35456024498571"><ele>697.8571428571429</ele><time>2026-04-04T11:32:53.002Z</time></trkpt><trkpt lat="-25.02770656970356" lon="-53.35451662271273"><ele>696.5714285714286</ele><time>2026-04-04T11:32:56.002Z</time></trkpt><trkpt lat="-25.027635675326078" lon="-53.35449549135018"><ele>695.2857142857143</ele><time>2026-04-04T11:32:59.002Z</time></trkpt><trkpt lat="-25.027570782075674" lon="-53.354518534987484"><ele>694.0</ele><time>2026-04-04T11:33:03.002Z</time></trkpt><trkpt lat="-25.027497675276756" lon="-53.35455630333431"><ele>693.8333333333334</ele><time>2026-04-04T11:33:07.002Z</time></trkpt><trkpt lat="-25.027418643916317" lon="-53.354578852701344"><ele>693.6666666666667</ele><time>2026-04-04T11:33:10.002Z</time></trkpt><trkpt lat="-25.02734843526768" lon="-53.35456852037538"><ele>693.5</ele><time>2026-04-04T11:33:12.002Z</time></trkpt><trkpt lat="-25.027277754597854" lon="-53.354560257758685"><ele>693.3333333333334</ele><time>2026-04-04T11:33:13.002Z</time></trkpt><trkpt lat="-25.02721166878434" lon="-53.35452866376336"><ele>693.1666666666666</ele><time>2026-04-04T11:33:15.002Z</time></trkpt><trkpt lat="-25.027101385774067" lon="-53.35451689653023"><ele>693.0</ele><time>2026-04-04T11:33:17.002Z</time></trkpt><trkpt lat="-25.027039251102174" lon="-53.3544969328317"><ele>693.0</ele><time>2026-04-04T11:33:18.002Z</time></trkpt><trkpt lat="-25.026948992301115" lon="-53.35454686518671"><ele>693.0</ele><time>2026-04-04T11:33:21.002Z</time></trkpt><trkpt lat="-25.0268663010088" lon="-53.35454531985421"><ele>693.0</ele><time>2026-04-04T11:33:23.002Z</time></trkpt><trkpt lat="-25.026784030897513" lon="-53.35454967036362"><ele>693.0</ele><time>2026-04-04T11:33:25.002Z</time></trkpt><trkpt lat="-25.02670250633412" lon="-53.354511291617904"><ele>693.0</ele><time>2026-04-04T11:33:27.002Z</time></trkpt><trkpt lat="-25.026654132186234" lon="-53.354422774973855"><ele>693.0</ele><time>2026-04-04T11:33:30.002Z</time></trkpt><trkpt lat="-25.02661846598355" lon="-53.35434356738"><ele>692.3333333333334</ele><time>2026-04-04T11:33:32.002Z</time></trkpt><trkpt lat="-25.026529355180955" lon="-53.354290210967406"><ele>691.6666666666666</ele><time>2026-04-04T11:33:34.002Z</time></trkpt><trkpt lat="-25.026436203908705" lon="-53.35426898642641"><ele>691.0</ele><time>2026-04-04T11:33:36.002Z</time></trkpt><trkpt lat="-25.026381760664258" lon="-53.35423068153871"><ele>690.3333333333333</ele><time>2026-04-04T11:33:39.002Z</time></trkpt><trkpt lat="-25.026316001254155" lon="-53.354217950828016"><ele>689.6666666666666</ele><time>2026-04-04T11:33:42.002Z</time></trkpt><trkpt lat="-25.026279444873378" lon="-53.35414643160884"><ele>689.0</ele><time>2026-04-04T11:33:45.002Z</time></trkpt><trkpt lat="-25.026222627598052" lon="-53.35411639060557"><ele>689.0</ele><time>2026-04-04T11:33:47.002Z</time></trkpt><trkpt lat="-25.026147016803705" lon="-53.35410763145485"><ele>689.0</ele><time>2026-04-04T11:33:49.002Z</time></trkpt><trkpt lat="-25.02606885487338" lon="-53.35407036467265"><ele>689.0</ele><time>2026-04-04T11:33:52.002Z</time></trkpt><trkpt lat="-25.0260005244126" lon="-53.354042765848206"><ele>689.0</ele><time>2026-04-04T11:33:54.002Z</time></trkpt><trkpt lat="-25.025930616135703" lon="-53.354020519326404"><ele>689.0</ele><time>2026-04-04T11:33:58.002Z</time></trkpt><trkpt lat="-25.025876469829143" lon="-53.35398332253885"><ele>689.0</ele><time>2026-04-04T11:34:08.002Z</time></trkpt><trkpt lat="-25.025812626253774" lon="-53.35394120298189"><ele>689.0</ele><time>2026-04-04T11:34:15.003Z</time></trkpt><trkpt lat="-25.025766940919496" lon="-53.35389089962075"><ele>686.2857142857142</ele><time>2026-04-04T11:34:21.003Z</time></trkpt><trkpt lat="-25.02577517561863" lon="-53.35380634825286"><ele>683.5714285714286</ele><time>2026-04-04T11:34:26.003Z</time></trkpt><trkpt lat="-25.025835554427328" lon="-53.35376402142286"><ele>680.8571428571429</ele><time>2026-04-04T11:34:32.003Z</time></trkpt><trkpt lat="-25.02590826914791" lon="-53.3537411968621"><ele>678.1428571428571</ele><time>2026-04-04T11:34:37.003Z</time></trkpt><trkpt lat="-25.025979337645115" lon="-53.35372181270353"><ele>675.4285714285714</ele><time>2026-04-04T11:34:41.003Z</time></trkpt><trkpt lat="-25.02604013838624" lon="-53.353684638462774"><ele>672.7142857142857</ele><time>2026-04-04T11:34:44.003Z</time></trkpt><trkpt lat="-25.026106403154362" lon="-53.35367887109989"><ele>670.0</ele><time>2026-04-04T11:34:47.003Z</time></trkpt><trkpt lat="-25.026185289553815" lon="-53.35365182032782"><ele>669.8333333333334</ele><time>2026-04-04T11:34:50.003Z</time></trkpt><trkpt lat="-25.026259508679356" lon="-53.35367611471571"><ele>669.6666666666667</ele><time>2026-04-04T11:34:53.003Z</time></trkpt><trkpt lat="-25.026303521195043" lon="-53.35376451491123"><ele>669.5</ele><time>2026-04-04T11:34:55.003Z</time></trkpt><trkpt lat="-25.02636350938871" lon="-53.353788935446154"><ele>669.3333333333334</ele><time>2026-04-04T11:34:57.003Z</time></trkpt><trkpt lat="-25.02645863969065" lon="-53.353810254765015"><ele>669.1666666666666</ele><time>2026-04-04T11:35:00.003Z</time></trkpt><trkpt lat="-25.02655070022667" lon="-53.353824062772524"><ele>669.0</ele><time>2026-04-04T11:35:02.003Z</time></trkpt><trkpt lat="-25.02661898032824" lon="-53.35383530718837"><ele>671.0</ele><time>2026-04-04T11:35:05.003Z</time></trkpt><trkpt lat="-25.02668927902489" lon="-53.35385523062634"><ele>673.0</ele><time>2026-04-04T11:35:09.003Z</time></trkpt><trkpt lat="-25.02675298426829" lon="-53.35388100776731"><ele>675.0</ele><time>2026-04-04T11:35:16.003Z</time></trkpt><trkpt lat="-25.026822148396715" lon="-53.35389380715449"><ele>677.0</ele><time>2026-04-04T11:35:29.003Z</time></trkpt><trkpt lat="-25.026895288694266" lon="-53.35385637325652"><ele>679.0</ele><time>2026-04-04T11:35:33.003Z</time></trkpt><trkpt lat="-25.026967596041644" lon="-53.35393148737389"><ele>681.0</ele><time>2026-04-04T11:35:35.003Z</time></trkpt><trkpt lat="-25.027062536427398" lon="-53.35392501011247"><ele>681.0</ele><time>2026-04-04T11:35:39.003Z</time></trkpt><trkpt lat="-25.02714860724585" lon="-53.353926784918684"><ele>681.0</ele><time>2026-04-04T11:35:42.003Z</time></trkpt><trkpt lat="-25.02721424892321" lon="-53.35391255273056"><ele>681.0</ele><time>2026-04-04T11:35:44.003Z</time></trkpt><trkpt lat="-25.02729054448872" lon="-53.353850716025086"><ele>681.0</ele><time>2026-04-04T11:35:46.003Z</time></trkpt><trkpt lat="-25.02738823711355" lon="-53.353881154620424"><ele>681.0</ele><time>2026-04-04T11:35:48.003Z</time></trkpt><trkpt lat="-25.027470128023168" lon="-53.353872199377804"><ele>681.0</ele><time>2026-04-04T11:35:50.003Z</time></trkpt><trkpt lat="-25.02753995908138" lon="-53.35390632112997"><ele>683.1666666666666</ele><time>2026-04-04T11:35:52.003Z</time></trkpt><trkpt lat="-25.027615437007572" lon="-53.353910431670926"><ele>685.3333333333334</ele><time>2026-04-04T11:35:54.003Z</time></trkpt><trkpt lat="-25.02768537881799" lon="-53.35394734735943"><ele>687.5</ele><time>2026-04-04T11:35:57.003Z</time></trkpt><trkpt lat="-25.0277809409001" lon="-53.353982193677425"><ele>689.6666666666667</ele><time>2026-04-04T11:36:00.003Z</time></trkpt><trkpt lat="-25.02788118972515" lon="-53.3539777369367"><ele>691.8333333333334</ele><time>2026-04-04T11:36:03.003Z</time></trkpt><trkpt lat="-25.027942709676626" lon="-53.35394088539645"><ele>694.0</ele><time>2026-04-04T11:36:06.002Z</time></trkpt><trkpt lat="-25.028032646113378" lon="-53.35391836826376"><ele>694.0</ele><time>2026-04-04T11:36:09.002Z</time></trkpt><trkpt lat="-25.028105258970662" lon="-53.35390220942086"><ele>694.0</ele><time>2026-04-04T11:36:11.003Z</time></trkpt><trkpt lat="-25.02818885856787" lon="-53.35394390088172"><ele>694.0</ele><time>2026-04-04T11:36:14.002Z</time></trkpt><trkpt lat="-25.02825220385171" lon="-53.35399318882147"><ele>694.0</ele><time>2026-04-04T11:36:16.002Z</time></trkpt><trkpt lat="-25.028327303623794" lon="-53.35401088506203"><ele>694.0</ele><time>2026-04-04T11:36:18.003Z</time></trkpt><trkpt lat="-25.028407177054987" lon="-53.35400160113792"><ele>694.0</ele><time>2026-04-04T11:36:20.003Z</time></trkpt><trkpt lat="-25.028476729431066" lon="-53.354023132916005"><ele>693.3333333333334</ele><time>2026-04-04T11:36:23.003Z</time></trkpt><trkpt lat="-25.028546145887578" lon="-53.35404883826846"><ele>692.6666666666667</ele><time>2026-04-04T11:36:25.003Z</time></trkpt><trkpt lat="-25.0286089654519" lon="-53.35407823150968"><ele>692.0</ele><time>2026-04-04T11:36:26.003Z</time></trkpt><trkpt lat="-25.028710870571363" lon="-53.35408096806284"><ele>691.3333333333334</ele><time>2026-04-04T11:36:28.003Z</time></trkpt><trkpt lat="-25.02878465776153" lon="-53.35407774415033"><ele>690.6666666666666</ele><time>2026-04-04T11:36:30.003Z</time></trkpt><trkpt lat="-25.028895304449158" lon="-53.35409729330945"><ele>690.0</ele><time>2026-04-04T11:36:32.003Z</time></trkpt><trkpt lat="-25.02894943823194" lon="-53.35413865421742"><ele>690.0</ele><time>2026-04-04T11:36:34.003Z</time></trkpt><trkpt lat="-25.029044630345073" lon="-53.354175600016774"><ele>690.0</ele><time>2026-04-04T11:36:36.003Z</time></trkpt><trkpt lat="-25.029131201882553" lon="-53.354165153787044"><ele>690.0</ele><time>2026-04-04T11:36:38.003Z</time></trkpt><trkpt lat="-25.029202666486047" lon="-53.35409222634337"><ele>690.0</ele><time>2026-04-04T11:36:42.003Z</time></trkpt><trkpt lat="-25.02929162560982" lon="-53.354103673753166"><ele>690.0</ele><time>2026-04-04T11:36:45.003Z</time></trkpt><trkpt lat="-25.029369213157636" lon="-53.35409969905844"><ele>688.1666666666666</ele><time>2026-04-04T11:36:47.003Z</time></trkpt><trkpt lat="-25.02940545052765" lon="-53.35403147975737"><ele>686.3333333333334</ele><time>2026-04-04T11:36:51.003Z</time></trkpt><trkpt lat="-25.029451644388054" lon="-53.35397933280401"><ele>684.5</ele><time>2026-04-04T11:36:55.003Z</time></trkpt><trkpt lat="-25.02948927326928" lon="-53.35391688169546"><ele>682.6666666666667</ele><time>2026-04-04T11:36:59.003Z</time></trkpt><trkpt lat="-25.02941930863701" lon="-53.353890366068946"><ele>680.8333333333334</ele><time>2026-04-04T11:37:03.003Z</time></trkpt><trkpt lat="-25.02936741098603" lon="-53.3538108714234"><ele>679.0</ele><time>2026-04-04T11:37:08.003Z</time></trkpt><trkpt lat="-25.029315753961285" lon="-53.35373702631852"><ele>676.4285714285714</ele><time>2026-04-04T11:37:11.003Z</time></trkpt><trkpt lat="-25.02930395698017" lon="-53.35365345523659"><ele>673.8571428571429</ele><time>2026-04-04T11:37:15.003Z</time></trkpt><trkpt lat="-25.02929190729728" lon="-53.35358472631353"><ele>671.2857142857142</ele><time>2026-04-04T11:37:24.003Z</time></trkpt><trkpt lat="-25.02925336416747" lon="-53.3535023233505"><ele>668.7142857142858</ele><time>2026-04-04T11:37:45.003Z</time></trkpt><trkpt lat="-25.029295189525026" lon="-53.35344839988985"><ele>666.1428571428571</ele><time>2026-04-04T11:37:51.003Z</time></trkpt><trkpt lat="-25.029371142218178" lon="-53.35342445675558"><ele>663.5714285714286</ele><time>2026-04-04T11:37:54.003Z</time></trkpt><trkpt lat="-25.029376630719486" lon="-53.353353465591674"><ele>661.0</ele><time>2026-04-04T11:37:57.003Z</time></trkpt><trkpt lat="-25.029448362792365" lon="-53.35332137628092"><ele>661.0</ele><time>2026-04-04T11:38:00.003Z</time></trkpt><trkpt lat="-25.029510239884885" lon="-53.35327341994724"><ele>661.0</ele><time>2026-04-04T11:38:02.003Z</time></trkpt><trkpt lat="-25.029588160186083" lon="-53.353257260639396"><ele>661.0</ele><time>2026-04-04T11:38:04.003Z</time></trkpt><trkpt lat="-25.0296656570148" lon="-53.35318255190913"><ele>661.0</ele><time>2026-04-04T11:38:07.003Z</time></trkpt><trkpt lat="-25.029743071914428" lon="-53.35315386590225"><ele>661.0</ele><time>2026-04-04T11:38:09.003Z</time></trkpt><trkpt lat="-25.029814345116463" lon="-53.353151750082404"><ele>661.0</ele><time>2026-04-04T11:38:12.002Z</time></trkpt><trkpt lat="-25.029835637887906" lon="-53.35307034268212"><ele>659.0</ele><time>2026-04-04T11:38:14.003Z</time></trkpt><trkpt lat="-25.029890612591405" lon="-53.353026903985054"><ele>657.0</ele><time>2026-04-04T11:38:16.002Z</time></trkpt><trkpt lat="-25.029954236379865" lon="-53.35301134893468"><ele>655.0</ele><time>2026-04-04T11:38:18.003Z</time></trkpt><trkpt lat="-25.030029746964704" lon="-53.353002212930576"><ele>653.0</ele><time>2026-04-04T11:38:21.003Z</time></trkpt><trkpt lat="-25.030096851727915" lon="-53.352944426608154"><ele>651.0</ele><time>2026-04-04T11:38:44.003Z</time></trkpt><trkpt lat="-25.03016999358657" lon="-53.35296549665801"><ele>649.0</ele><time>2026-04-04T11:38:49.003Z</time></trkpt><trkpt lat="-25.030235339479407" lon="-53.352963719514555"><ele>647.0</ele><time>2026-04-04T11:38:54.003Z</time></trkpt><trkpt lat="-25.030306861984656" lon="-53.35294409071459"><ele>646.6666666666666</ele><time>2026-04-04T11:38:58.003Z</time></trkpt><trkpt lat="-25.030383427694623" lon="-53.352960574025495"><ele>646.3333333333333</ele><time>2026-04-04T11:39:02.002Z</time></trkpt><trkpt lat="-25.030445142115447" lon="-53.3529786574231"><ele>646.0</ele><time>2026-04-04T11:39:05.002Z</time></trkpt><trkpt lat="-25.030532983225616" lon="-53.353007116429175"><ele>645.6666666666666</ele><time>2026-04-04T11:39:09.002Z</time></trkpt><trkpt lat="-25.030645423127623" lon="-53.35302428222618"><ele>645.3333333333334</ele><time>2026-04-04T11:39:11.002Z</time></trkpt><trkpt lat="-25.030741887804627" lon="-53.35303322827692"><ele>645.0</ele><time>2026-04-04T11:39:13.002Z</time></trkpt><trkpt lat="-25.030814694854683" lon="-53.35304846611881"><ele>645.0</ele><time>2026-04-04T11:39:16.002Z</time></trkpt><trkpt lat="-25.030898103141343" lon="-53.35306185629146"><ele>645.0</ele><time>2026-04-04T11:39:19.002Z</time></trkpt><trkpt lat="-25.030968644840485" lon="-53.35304868423442"><ele>645.0</ele><time>2026-04-04T11:39:21.002Z</time></trkpt><trkpt lat="-25.031026795224257" lon="-53.35298341386127"><ele>645.0</ele><time>2026-04-04T11:39:24.002Z</time></trkpt><trkpt lat="-25.031094989460904" lon="-53.352924444852306"><ele>645.0</ele><time>2026-04-04T11:39:27.002Z</time></trkpt><trkpt lat="-25.031158909373655" lon="-53.35290823395014"><ele>645.0</ele><time>2026-04-04T11:39:29.002Z</time></trkpt><trkpt lat="-25.03125256433961" lon="-53.352922789869645"><ele>644.1666666666666</ele><time>2026-04-04T11:39:32.002Z</time></trkpt><trkpt lat="-25.031308682432254" lon="-53.352854597807344"><ele>643.3333333333334</ele><time>2026-04-04T11:39:35.002Z</time></trkpt><trkpt lat="-25.031389832359523" lon="-53.35278845651442"><ele>642.5</ele><time>2026-04-04T11:39:37.002Z</time></trkpt><trkpt lat="-25.031456027656237" lon="-53.35273079130882"><ele>641.6666666666667</ele><time>2026-04-04T11:39:39.002Z</time></trkpt><trkpt lat="-25.0315526796594" lon="-53.35271226676181"><ele>640.8333333333334</ele><time>2026-04-04T11:39:41.002Z</time></trkpt><trkpt lat="-25.031617222403426" lon="-53.35268010435568"><ele>640.0</ele><time>2026-04-04T11:39:42.002Z</time></trkpt><trkpt lat="-25.03166478332515" lon="-53.352553985308575"><ele>639.8333333333334</ele><time>2026-04-04T11:39:44.002Z</time></trkpt><trkpt lat="-25.031695864682785" lon="-53.35246836634178"><ele>639.6666666666667</ele><time>2026-04-04T11:39:45.002Z</time></trkpt><trkpt lat="-25.03173640679982" lon="-53.352391172476906"><ele>639.5</ele><time>2026-04-04T11:39:46.002Z</time></trkpt><trkpt lat="-25.03178241585178" lon="-53.35232756495519"><ele>639.3333333333334</ele><time>2026-04-04T11:39:47.002Z</time></trkpt><trkpt lat="-25.03183086613752" lon="-53.35226210212803"><ele>639.1666666666666</ele><time>2026-04-04T11:39:48.002Z</time></trkpt><trkpt lat="-25.031893442709794" lon="-53.352211222565394"><ele>639.0</ele><time>2026-04-04T11:39:49.002Z</time></trkpt><trkpt lat="-25.031962933314812" lon="-53.3521583367719"><ele>639.0</ele><time>2026-04-04T11:39:50.002Z</time></trkpt><trkpt lat="-25.03200580753496" lon="-53.352097027029224"><ele>639.0</ele><time>2026-04-04T11:39:51.002Z</time></trkpt><trkpt lat="-25.032075955087674" lon="-53.352040444346734"><ele>639.0</ele><time>2026-04-04T11:39:53.002Z</time></trkpt><trkpt lat="-25.03219361640839" lon="-53.35208880521312"><ele>639.0</ele><time>2026-04-04T11:39:55.002Z</time></trkpt><trkpt lat="-25.032289850214276" lon="-53.352167893138"><ele>639.0</ele><time>2026-04-04T11:39:56.002Z</time></trkpt><trkpt lat="-25.032389467720343" lon="-53.35222654872108"><ele>638.0</ele><time>2026-04-04T11:39:57.002Z</time></trkpt><trkpt lat="-25.03246459880331" lon="-53.35228019891908"><ele>637.0</ele><time>2026-04-04T11:39:58.002Z</time></trkpt><trkpt lat="-25.03250722583012" lon="-53.35234531977132"><ele>636.0</ele><time>2026-04-04T11:39:59.002Z</time></trkpt><trkpt lat="-25.032545234392824" lon="-53.352459278857424"><ele>635.0</ele><time>2026-04-04T11:40:01.002Z</time></trkpt><trkpt lat="-25.032568295768126" lon="-53.35255475482921"><ele>634.0</ele><time>2026-04-04T11:40:03.002Z</time></trkpt><trkpt lat="-25.032593200340578" lon="-53.35262976719776"><ele>633.0</ele><time>2026-04-04T11:40:05.002Z</time></trkpt><trkpt lat="-25.032655872486266" lon="-53.35268617002981"><ele>633.1666666666666</ele><time>2026-04-04T11:40:11.002Z</time></trkpt><trkpt lat="-25.032688971637725" lon="-53.35274851039122"><ele>633.3333333333334</ele><time>2026-04-04T11:40:14.002Z</time></trkpt><trkpt lat="-25.032727795826307" lon="-53.35282156601774"><ele>633.5</ele><time>2026-04-04T11:40:16.004Z</time></trkpt><trkpt lat="-25.032760105145435" lon="-53.35291395406703"><ele>633.6666666666667</ele><time>2026-04-04T11:40:18.003Z</time></trkpt><trkpt lat="-25.032816602821406" lon="-53.352982343084385"><ele>633.8333333333334</ele><time>2026-04-04T11:40:20.003Z</time></trkpt><trkpt lat="-25.032890820393668" lon="-53.353027976022325"><ele>634.0</ele><time>2026-04-04T11:40:22.003Z</time></trkpt><trkpt lat="-25.032927755471874" lon="-53.35309429458602"><ele>634.0</ele><time>2026-04-04T11:40:24.004Z</time></trkpt><trkpt lat="-25.03296442114804" lon="-53.35318926085158"><ele>634.0</ele><time>2026-04-04T11:40:27.003Z</time></trkpt><trkpt lat="-25.033015928117383" lon="-53.35325713831081"><ele>634.0</ele><time>2026-04-04T11:40:29.003Z</time></trkpt><trkpt lat="-25.03306117897171" lon="-53.35332588287824"><ele>634.0</ele><time>2026-04-04T11:40:31.003Z</time></trkpt><trkpt lat="-25.03312452012318" lon="-53.35337941094532"><ele>634.0</ele><time>2026-04-04T11:40:32.003Z</time></trkpt><trkpt lat="-25.03319348002377" lon="-53.3534220917012"><ele>634.0</ele><time>2026-04-04T11:40:37.003Z</time></trkpt><trkpt lat="-25.033254640019972" lon="-53.353439006603736"><ele>633.6666666666667</ele><time>2026-04-04T11:40:40.003Z</time></trkpt><trkpt lat="-25.033319385198645" lon="-53.35345538165917"><ele>633.3333333333334</ele><time>2026-04-04T11:40:43.003Z</time></trkpt><trkpt lat="-25.033385085661035" lon="-53.35347079207163"><ele>633.0</ele><time>2026-04-04T11:40:48.003Z</time></trkpt><trkpt lat="-25.033413486888602" lon="-53.353399791626856"><ele>632.6666666666666</ele><time>2026-04-04T11:41:00.003Z</time></trkpt><trkpt lat="-25.03349184010437" lon="-53.35339623377423"><ele>632.3333333333333</ele><time>2026-04-04T11:41:05.003Z</time></trkpt><trkpt lat="-25.03357262066529" lon="-53.353393029556706"><ele>632.0</ele><time>2026-04-04T11:41:08.003Z</time></trkpt><trkpt lat="-25.033649394562996" lon="-53.353347038266236"><ele>632.0</ele><time>2026-04-04T11:41:11.003Z</time></trkpt><trkpt lat="-25.033726181002802" lon="-53.35332053157974"><ele>632.0</ele><time>2026-04-04T11:41:14.003Z</time></trkpt><trkpt lat="-25.033800190915738" lon="-53.35336157798425"><ele>632.0</ele><time>2026-04-04T11:41:17.003Z</time></trkpt><trkpt lat="-25.033894302609983" lon="-53.35338062873546"><ele>632.0</ele><time>2026-04-04T11:41:19.003Z</time></trkpt><trkpt lat="-25.033973306588226" lon="-53.35338212478282"><ele>632.0</ele><time>2026-04-04T11:41:22.003Z</time></trkpt><trkpt lat="-25.03404581875095" lon="-53.353423262199605"><ele>632.0</ele><time>2026-04-04T11:41:25.003Z</time></trkpt><trkpt lat="-25.03411323582888" lon="-53.35341717823581"><ele>632.1428571428572</ele><time>2026-04-04T11:41:27.003Z</time></trkpt><trkpt lat="-25.034186305286937" lon="-53.353444709707546"><ele>632.2857142857143</ele><time>2026-04-04T11:41:30.003Z</time></trkpt><trkpt lat="-25.034256841446265" lon="-53.3534372465267"><ele>632.4285714285714</ele><time>2026-04-04T11:41:32.003Z</time></trkpt><trkpt lat="-25.03434149921825" lon="-53.35345988132908"><ele>632.5714285714287</ele><time>2026-04-04T11:41:35.003Z</time></trkpt><trkpt lat="-25.034405509990233" lon="-53.35347475541935"><ele>632.7142857142858</ele><time>2026-04-04T11:41:37.003Z</time></trkpt><trkpt lat="-25.034467119569612" lon="-53.35350882516005"><ele>632.8571428571429</ele><time>2026-04-04T11:41:39.003Z</time></trkpt><trkpt lat="-25.03452570678384" lon="-53.353539711994316"><ele>633.0</ele><time>2026-04-04T11:41:41.003Z</time></trkpt><trkpt lat="-25.034585059888922" lon="-53.35357907708652"><ele>633.0</ele><time>2026-04-04T11:41:43.003Z</time></trkpt><trkpt lat="-25.03465178876064" lon="-53.35356810042487"><ele>633.0</ele><time>2026-04-04T11:41:45.003Z</time></trkpt><trkpt lat="-25.034691469030506" lon="-53.353509658779295"><ele>633.0</ele><time>2026-04-04T11:41:50.003Z</time></trkpt><trkpt lat="-25.03472796971904" lon="-53.35343168009236"><ele>633.0</ele><time>2026-04-04T11:41:53.003Z</time></trkpt><trkpt lat="-25.034812499574787" lon="-53.35339946159765"><ele>633.0</ele><time>2026-04-04T11:41:57.003Z</time></trkpt><trkpt lat="-25.03494597611321" lon="-53.35337224688641"><ele>633.0</ele><time>2026-04-04T11:41:59.003Z</time></trkpt><trkpt lat="-25.035040321616563" lon="-53.35336486797852"><ele>632.6666666666666</ele><time>2026-04-04T11:42:01.003Z</time></trkpt><trkpt lat="-25.03512626268133" lon="-53.353422062460055"><ele>632.3333333333334</ele><time>2026-04-04T11:42:03.003Z</time></trkpt><trkpt lat="-25.035183378922202" lon="-53.353387808784156"><ele>632.0</ele><time>2026-04-04T11:42:05.003Z</time></trkpt><trkpt lat="-25.03520767647797" lon="-53.35328783882952"><ele>631.6666666666667</ele><time>2026-04-04T11:42:08.003Z</time></trkpt><trkpt lat="-25.035278447677094" lon="-53.353292084644764"><ele>631.3333333333334</ele><time>2026-04-04T11:42:11.003Z</time></trkpt><trkpt lat="-25.035344232131415" lon="-53.353267776050174"><ele>631.0</ele><time>2026-04-04T11:42:13.003Z</time></trkpt><trkpt lat="-25.035402877979095" lon="-53.35322961668819"><ele>631.0</ele><time>2026-04-04T11:42:15.003Z</time></trkpt><trkpt lat="-25.035437997219045" lon="-53.35315693811787"><ele>631.0</ele><time>2026-04-04T11:42:18.003Z</time></trkpt><trkpt lat="-25.03547106020152" lon="-53.353070141938055"><ele>631.0</ele><time>2026-04-04T11:42:21.003Z</time></trkpt><trkpt lat="-25.0354765730251" lon="-53.35299700210046"><ele>631.0</ele><time>2026-04-04T11:42:23.004Z</time></trkpt><trkpt lat="-25.035474813722274" lon="-53.352903838085474"><ele>631.0</ele><time>2026-04-04T11:42:25.004Z</time></trkpt><trkpt lat="-25.03549479170896" lon="-53.35281652826653"><ele>631.0</ele><time>2026-04-04T11:42:28.003Z</time></trkpt><trkpt lat="-25.03547494751114" lon="-53.35271448182299"><ele>632.6666666666667</ele><time>2026-04-04T11:42:32.003Z</time></trkpt><trkpt lat="-25.03552972015582" lon="-53.35264320399215"><ele>634.3333333333334</ele><time>2026-04-04T11:42:35.004Z</time></trkpt><trkpt lat="-25.03558412850457" lon="-53.35259644414905"><ele>636.0</ele><time>2026-04-04T11:42:38.004Z</time></trkpt><trkpt lat="-25.035627051092877" lon="-53.35253392059567"><ele>637.6666666666666</ele><time>2026-04-04T11:42:41.004Z</time></trkpt><trkpt lat="-25.035668142295826" lon="-53.3524371380622"><ele>639.3333333333333</ele><time>2026-04-04T11:42:44.004Z</time></trkpt><trkpt lat="-25.035707792763375" lon="-53.35237500344374"><ele>641.0</ele><time>2026-04-04T11:42:46.004Z</time></trkpt><trkpt lat="-25.035727512772034" lon="-53.35228552045642"><ele>640.5</ele><time>2026-04-04T11:42:49.004Z</time></trkpt><trkpt lat="-25.035737757366984" lon="-53.35218716381994"><ele>640.0</ele><time>2026-04-04T11:42:51.004Z</time></trkpt><trkpt lat="-25.035762573195107" lon="-53.35211107860233"><ele>639.5</ele><time>2026-04-04T11:42:54.004Z</time></trkpt><trkpt lat="-25.03578669248191" lon="-53.35201949770537"><ele>639.0</ele><time>2026-04-04T11:42:57.004Z</time></trkpt><trkpt lat="-25.03580166379501" lon="-53.351924196148076"><ele>638.5</ele><time>2026-04-04T11:43:00.004Z</time></trkpt><trkpt lat="-25.035836327030022" lon="-53.351864791363425"><ele>638.0</ele><time>2026-04-04T11:43:02.004Z</time></trkpt><trkpt lat="-25.035879206797976" lon="-53.35179149783124"><ele>638.0</ele><time>2026-04-04T11:43:05.004Z</time></trkpt><trkpt lat="-25.035938486550414" lon="-53.35176334788829"><ele>638.0</ele><time>2026-04-04T11:43:07.004Z</time></trkpt><trkpt lat="-25.036028438393465" lon="-53.35171153255042"><ele>638.0</ele><time>2026-04-04T11:43:09.004Z</time></trkpt><trkpt lat="-25.036098832306443" lon="-53.35165345283283"><ele>638.0</ele><time>2026-04-04T11:43:12.003Z</time></trkpt><trkpt lat="-25.03615910168943" lon="-53.35155382390318"><ele>638.0</ele><time>2026-04-04T11:43:14.003Z</time></trkpt><trkpt lat="-25.03621293144549" lon="-53.35144585950242"><ele>639.1666666666666</ele><time>2026-04-04T11:43:16.003Z</time></trkpt><trkpt lat="-25.0362591981403" lon="-53.35136438200672"><ele>640.3333333333333</ele><time>2026-04-04T11:43:17.003Z</time></trkpt><trkpt lat="-25.03634038375568" lon="-53.35129077089308"><ele>641.5</ele><time>2026-04-04T11:43:20.003Z</time></trkpt><trkpt lat="-25.036383747711643" lon="-53.35120012052477"><ele>642.6666666666666</ele><time>2026-04-04T11:43:23.003Z</time></trkpt><trkpt lat="-25.036449967772278" lon="-53.351145069168346"><ele>643.8333333333334</ele><time>2026-04-04T11:43:25.003Z</time></trkpt><trkpt lat="-25.036503269082193" lon="-53.351100923287525"><ele>645.0</ele><time>2026-04-04T11:43:27.003Z</time></trkpt><trkpt lat="-25.036548325341805" lon="-53.35104069373359"><ele>645.0</ele><time>2026-04-04T11:43:29.003Z</time></trkpt><trkpt lat="-25.036596964425378" lon="-53.3509895425507"><ele>645.0</ele><time>2026-04-04T11:43:31.003Z</time></trkpt><trkpt lat="-25.036649351339392" lon="-53.35092012089706"><ele>645.0</ele><time>2026-04-04T11:43:33.003Z</time></trkpt><trkpt lat="-25.03668875914247" lon="-53.35084881400727"><ele>645.0</ele><time>2026-04-04T11:43:36.003Z</time></trkpt><trkpt lat="-25.036746126384514" lon="-53.350767087550466"><ele>645.0</ele><time>2026-04-04T11:43:39.003Z</time></trkpt><trkpt lat="-25.036727484171777" lon="-53.35065199282977"><ele>645.0</ele><time>2026-04-04T11:43:42.003Z</time></trkpt><trkpt lat="-25.036677588738506" lon="-53.35056090258613"><ele>646.8</ele><time>2026-04-04T11:43:44.003Z</time></trkpt><trkpt lat="-25.0366482983948" lon="-53.3504632636696"><ele>648.6</ele><time>2026-04-04T11:43:46.003Z</time></trkpt><trkpt lat="-25.036675423059826" lon="-53.35037896409239"><ele>650.4000000000001</ele><time>2026-04-04T11:43:49.003Z</time></trkpt><trkpt lat="-25.03665345629399" lon="-53.35029972071086"><ele>652.2</ele><time>2026-04-04T11:43:51.003Z</time></trkpt><trkpt lat="-25.036730431557356" lon="-53.35025261026262"><ele>654.0</ele><time>2026-04-04T11:43:53.003Z</time></trkpt><trkpt lat="-25.036883154228295" lon="-53.34995409419375"><ele>654.0</ele><time>2026-04-04T11:43:56.003Z</time></trkpt><trkpt lat="-25.036905022101973" lon="-53.34983221122129"><ele>654.0</ele><time>2026-04-04T11:43:58.003Z</time></trkpt><trkpt lat="-25.036925236686887" lon="-53.349702039693135"><ele>654.0</ele><time>2026-04-04T11:44:01.003Z</time></trkpt><trkpt lat="-25.036949500117853" lon="-53.34961058596221"><ele>654.0</ele><time>2026-04-04T11:44:04.003Z</time></trkpt><trkpt lat="-25.036986240114423" lon="-53.34950969957164"><ele>654.0</ele><time>2026-04-04T11:44:06.003Z</time></trkpt><trkpt lat="-25.03697349959338" lon="-53.349434680849726"><ele>656.0</ele><time>2026-04-04T11:44:08.003Z</time></trkpt><trkpt lat="-25.036960206280042" lon="-53.34933377412003"><ele>658.0</ele><time>2026-04-04T11:44:10.003Z</time></trkpt><trkpt lat="-25.036955242584533" lon="-53.34907479444784"><ele>660.0</ele><time>2026-04-04T11:44:11.003Z</time></trkpt><trkpt lat="-25.036927279329863" lon="-53.34900160617234"><ele>662.0</ele><time>2026-04-04T11:44:16.003Z</time></trkpt><trkpt lat="-25.036922619339663" lon="-53.34892486074173"><ele>663.8333333333333</ele><time>2026-04-04T11:44:18.003Z</time></trkpt><trkpt lat="-25.0369240416447" lon="-53.34883734843502"><ele>665.6666666666666</ele><time>2026-04-04T11:44:20.003Z</time></trkpt><trkpt lat="-25.03690655681246" lon="-53.34874299691212"><ele>667.5</ele><time>2026-04-04T11:44:22.003Z</time></trkpt><trkpt lat="-25.03689929950047" lon="-53.34862373170673"><ele>669.3333333333334</ele><time>2026-04-04T11:44:24.003Z</time></trkpt><trkpt lat="-25.03686202407628" lon="-53.34856491381945"><ele>671.1666666666667</ele><time>2026-04-04T11:44:27.004Z</time></trkpt><trkpt lat="-25.036855207748978" lon="-53.348472118772484"><ele>673.0</ele><time>2026-04-04T11:44:30.004Z</time></trkpt><trkpt lat="-25.036777750154606" lon="-53.3484644925941"><ele>673.0</ele><time>2026-04-04T11:44:35.004Z</time></trkpt><trkpt lat="-25.03672349070781" lon="-53.34841124806819"><ele>673.0</ele><time>2026-04-04T11:44:38.004Z</time></trkpt><trkpt lat="-25.036685624396327" lon="-53.34832938186016"><ele>673.0</ele><time>2026-04-04T11:44:41.003Z</time></trkpt><trkpt lat="-25.0366317406977" lon="-53.348262339195266"><ele>673.0</ele><time>2026-04-04T11:44:44.003Z</time></trkpt><trkpt lat="-25.036558125711746" lon="-53.34822903114598"><ele>673.0</ele><time>2026-04-04T11:44:48.003Z</time></trkpt><trkpt lat="-25.036502834512575" lon="-53.3481828367542"><ele>673.0</ele><time>2026-04-04T11:44:53.003Z</time></trkpt><trkpt lat="-25.03645651163301" lon="-53.34812888989658"><ele>675.5</ele><time>2026-04-04T11:45:04.003Z</time></trkpt><trkpt lat="-25.03639638300053" lon="-53.348091847718536"><ele>678.0</ele><time>2026-04-04T11:45:22.003Z</time></trkpt><trkpt lat="-25.036351156657865" lon="-53.34803729690769"><ele>680.5</ele><time>2026-04-04T11:45:36.003Z</time></trkpt><trkpt lat="-25.036299229887053" lon="-53.348087136079634"><ele>683.0</ele><time>2026-04-04T11:45:39.003Z</time></trkpt><trkpt lat="-25.036243723964876" lon="-53.348017202800136"><ele>685.5</ele><time>2026-04-04T11:45:43.003Z</time></trkpt><trkpt lat="-25.03617409338365" lon="-53.347980513770366"><ele>688.0</ele><time>2026-04-04T11:45:47.003Z</time></trkpt><trkpt lat="-25.03609220340116" lon="-53.347953597323794"><ele>689.0000000000001</ele><time>2026-04-04T11:45:51.003Z</time></trkpt><trkpt lat="-25.036037860981164" lon="-53.34791766986146"><ele>690.0</ele><time>2026-04-04T11:45:54.003Z</time></trkpt><trkpt lat="-25.035985750507333" lon="-53.34786395599019"><ele>691.0</ele><time>2026-04-04T11:45:57.003Z</time></trkpt><trkpt lat="-25.035938171109418" lon="-53.34780039197705"><ele>692.0</ele><time>2026-04-04T11:46:01.003Z</time></trkpt><trkpt lat="-25.035942234319087" lon="-53.3477297473308"><ele>693.0</ele><time>2026-04-04T11:46:06.003Z</time></trkpt><trkpt lat="-25.035992256287035" lon="-53.3476811003612"><ele>694.0000000000001</ele><time>2026-04-04T11:46:10.003Z</time></trkpt><trkpt lat="-25.036059604917153" lon="-53.34765114211183"><ele>695.0</ele><time>2026-04-04T11:46:12.003Z</time></trkpt><trkpt lat="-25.036133576639813" lon="-53.34763018843124"><ele>695.0</ele><time>2026-04-04T11:46:16.003Z</time></trkpt><trkpt lat="-25.036173323751612" lon="-53.347570702585976"><ele>695.0</ele><time>2026-04-04T11:46:18.003Z</time></trkpt><trkpt lat="-25.036243427799402" lon="-53.34753037627851"><ele>695.0</ele><time>2026-04-04T11:46:21.003Z</time></trkpt><trkpt lat="-25.036265454930753" lon="-53.347439652421755"><ele>695.0</ele><time>2026-04-04T11:46:24.003Z</time></trkpt><trkpt lat="-25.036292580131402" lon="-53.34737679597057"><ele>695.0</ele><time>2026-04-04T11:46:25.003Z</time></trkpt><trkpt lat="-25.036390657616685" lon="-53.34731216389633"><ele>695.0</ele><time>2026-04-04T11:46:28.003Z</time></trkpt><trkpt lat="-25.0364687086423" lon="-53.34731826662331"><ele>695.0000000000001</ele><time>2026-04-04T11:46:30.003Z</time></trkpt><trkpt lat="-25.03652721926219" lon="-53.34723683442594"><ele>695.0</ele><time>2026-04-04T11:46:34.004Z</time></trkpt><trkpt lat="-25.03659033228126" lon="-53.347216242924034"><ele>695.0</ele><time>2026-04-04T11:46:36.004Z</time></trkpt><trkpt lat="-25.03665043203646" lon="-53.347189552104474"><ele>695.0</ele><time>2026-04-04T11:46:38.004Z</time></trkpt><trkpt lat="-25.036726023656545" lon="-53.347159881195616"><ele>695.0</ele><time>2026-04-04T11:46:41.004Z</time></trkpt><trkpt lat="-25.03677985357802" lon="-53.347107612281675"><ele>695.0000000000001</ele><time>2026-04-04T11:46:44.004Z</time></trkpt><trkpt lat="-25.03682795414391" lon="-53.34706153730864"><ele>695.0</ele><time>2026-04-04T11:46:47.004Z</time></trkpt><trkpt lat="-25.03687798058257" lon="-53.3470101976976"><ele>695.0000000000001</ele><time>2026-04-04T11:46:51.004Z</time></trkpt><trkpt lat="-25.036946057326915" lon="-53.34696716568945"><ele>695.0</ele><time>2026-04-04T11:47:06.004Z</time></trkpt><trkpt lat="-25.036955604506204" lon="-53.346892179868824"><ele>695.0</ele><time>2026-04-04T11:47:09.004Z</time></trkpt><trkpt lat="-25.036959907167674" lon="-53.3468210623943"><ele>695.0</ele><time>2026-04-04T11:47:12.004Z</time></trkpt><trkpt lat="-25.037000867343234" lon="-53.34676758856932"><ele>695.0</ele><time>2026-04-04T11:47:14.004Z</time></trkpt><trkpt lat="-25.037065798342848" lon="-53.34672341762891"><ele>695.0000000000001</ele><time>2026-04-04T11:47:17.004Z</time></trkpt><trkpt lat="-25.03712876805906" lon="-53.34668834751712"><ele>695.0</ele><time>2026-04-04T11:47:20.004Z</time></trkpt><trkpt lat="-25.03720756256689" lon="-53.34665245704242"><ele>695.0</ele><time>2026-04-04T11:47:23.004Z</time></trkpt><trkpt lat="-25.037275436421872" lon="-53.346660579530486"><ele>695.0</ele><time>2026-04-04T11:47:25.004Z</time></trkpt><trkpt lat="-25.037339499137214" lon="-53.34662250697611"><ele>695.0</ele><time>2026-04-04T11:47:27.004Z</time></trkpt><trkpt lat="-25.03743005317154" lon="-53.346600216110964"><ele>695.0</ele><time>2026-04-04T11:47:30.004Z</time></trkpt><trkpt lat="-25.037530770038675" lon="-53.34655541224321"><ele>695.0</ele><time>2026-04-04T11:47:32.004Z</time></trkpt><trkpt lat="-25.03759834826196" lon="-53.34655004240915"><ele>695.0</ele><time>2026-04-04T11:47:34.004Z</time></trkpt><trkpt lat="-25.03765153614614" lon="-53.34650207338702"><ele>694.0000000000001</ele><time>2026-04-04T11:47:39.004Z</time></trkpt><trkpt lat="-25.037710988605834" lon="-53.34643309629238"><ele>693.0</ele><time>2026-04-04T11:47:43.004Z</time></trkpt><trkpt lat="-25.037747597924238" lon="-53.34637367951138"><ele>692.0</ele><time>2026-04-04T11:47:45.004Z</time></trkpt><trkpt lat="-25.037797056382765" lon="-53.34629106786775"><ele>691.0</ele><time>2026-04-04T11:47:48.004Z</time></trkpt><trkpt lat="-25.037839822207033" lon="-53.34623263056016"><ele>690.0</ele><time>2026-04-04T11:47:51.004Z</time></trkpt><trkpt lat="-25.037894719996498" lon="-53.346196208186434"><ele>689.0000000000001</ele><time>2026-04-04T11:47:53.004Z</time></trkpt><trkpt lat="-25.03796254831977" lon="-53.34618487954836"><ele>688.0</ele><time>2026-04-04T11:47:56.004Z</time></trkpt><trkpt lat="-25.038015652558666" lon="-53.34614574199622"><ele>688.0000000000001</ele><time>2026-04-04T11:47:58.004Z</time></trkpt><trkpt lat="-25.038069065973605" lon="-53.34609268053349"><ele>688.0</ele><time>2026-04-04T11:48:00.004Z</time></trkpt><trkpt lat="-25.038122232280898" lon="-53.34604980554075"><ele>688.0</ele><time>2026-04-04T11:48:02.004Z</time></trkpt><trkpt lat="-25.038175219246995" lon="-53.34598156263265"><ele>688.0</ele><time>2026-04-04T11:48:05.004Z</time></trkpt><trkpt lat="-25.038189340115416" lon="-53.345906801207214"><ele>688.0</ele><time>2026-04-04T11:48:08.004Z</time></trkpt><trkpt lat="-25.038176559018535" lon="-53.34583077759002"><ele>688.0000000000001</ele><time>2026-04-04T11:48:11.004Z</time></trkpt><trkpt lat="-25.038152137329508" lon="-53.345764197297235"><ele>688.0</ele><time>2026-04-04T11:48:15.004Z</time></trkpt><trkpt lat="-25.038132329031665" lon="-53.345694165762936"><ele>688.0000000000001</ele><time>2026-04-04T11:48:18.004Z</time></trkpt><trkpt lat="-25.038097094605316" lon="-53.34563139737818"><ele>688.0</ele><time>2026-04-04T11:48:21.004Z</time></trkpt><trkpt lat="-25.038073048692798" lon="-53.34555967404716"><ele>688.0</ele><time>2026-04-04T11:48:24.004Z</time></trkpt><trkpt lat="-25.038067174686205" lon="-53.345479375785274"><ele>688.0</ele><time>2026-04-04T11:48:26.004Z</time></trkpt><trkpt lat="-25.038041850150353" lon="-53.34541067840116"><ele>688.0</ele><time>2026-04-04T11:48:28.004Z</time></trkpt><trkpt lat="-25.037988347256" lon="-53.345361185448255"><ele>688.0000000000001</ele><time>2026-04-04T11:48:30.004Z</time></trkpt><trkpt lat="-25.03790174349559" lon="-53.34533223412136"><ele>688.0</ele><time>2026-04-04T11:48:32.004Z</time></trkpt><trkpt lat="-25.0378327016295" lon="-53.345325937821926"><ele>687.5999999999999</ele><time>2026-04-04T11:48:34.004Z</time></trkpt><trkpt lat="-25.037738610898035" lon="-53.34527725465058"><ele>687.1999999999999</ele><time>2026-04-04T11:48:36.004Z</time></trkpt><trkpt lat="-25.037651439495473" lon="-53.34523529238626"><ele>686.8</ele><time>2026-04-04T11:48:38.004Z</time></trkpt><trkpt lat="-25.037556545055647" lon="-53.345170595408916"><ele>686.4</ele><time>2026-04-04T11:48:40.005Z</time></trkpt><trkpt lat="-25.03749342027898" lon="-53.34515995625663"><ele>686.0</ele><time>2026-04-04T11:48:42.005Z</time></trkpt><trkpt lat="-25.03741543059796" lon="-53.34513131898482"><ele>689.0</ele><time>2026-04-04T11:48:44.005Z</time></trkpt><trkpt lat="-25.037317297049054" lon="-53.34507191664859"><ele>692.0</ele><time>2026-04-04T11:48:47.005Z</time></trkpt><trkpt lat="-25.037227044533548" lon="-53.34505804644214"><ele>695.0</ele><time>2026-04-04T11:48:49.005Z</time></trkpt><trkpt lat="-25.03716132320004" lon="-53.34497927156708"><ele>698.0</ele><time>2026-04-04T11:48:51.005Z</time></trkpt><trkpt lat="-25.03712977160915" lon="-53.34488430442286"><ele>701.0</ele><time>2026-04-04T11:48:53.004Z</time></trkpt><trkpt lat="-25.037138401580147" lon="-53.34480211991024"><ele>701.0</ele><time>2026-04-04T11:48:56.004Z</time></trkpt><trkpt lat="-25.03717397070748" lon="-53.34474214981273"><ele>701.0</ele><time>2026-04-04T11:48:59.004Z</time></trkpt><trkpt lat="-25.037242529587893" lon="-53.34469575417755"><ele>701.0</ele><time>2026-04-04T11:49:04.004Z</time></trkpt><trkpt lat="-25.037273241518964" lon="-53.34462515618277"><ele>701.0</ele><time>2026-04-04T11:49:07.004Z</time></trkpt><trkpt lat="-25.037253528244282" lon="-53.34453127752831"><ele>701.0</ele><time>2026-04-04T11:49:10.004Z</time></trkpt><trkpt lat="-25.037200946272403" lon="-53.34447446434399"><ele>701.0</ele><time>2026-04-04T11:49:12.004Z</time></trkpt><trkpt lat="-25.037134262078364" lon="-53.34445946655223"><ele>701.0</ele><time>2026-04-04T11:49:15.004Z</time></trkpt><trkpt lat="-25.03705402014826" lon="-53.34442057722181"><ele>701.0</ele><time>2026-04-04T11:49:17.004Z</time></trkpt><trkpt lat="-25.03699072050338" lon="-53.344395806033575"><ele>701.0</ele><time>2026-04-04T11:49:19.004Z</time></trkpt><trkpt lat="-25.036932859699338" lon="-53.34435467044823"><ele>701.0</ele><time>2026-04-04T11:49:28.004Z</time></trkpt><trkpt lat="-25.036876162559743" lon="-53.344307828120456"><ele>701.0</ele><time>2026-04-04T11:49:42.004Z</time></trkpt><trkpt lat="-25.03686763766158" lon="-53.344419759619925"><ele>701.0</ele><time>2026-04-04T11:52:42.004Z</time></trkpt><trkpt lat="-25.036902217612877" lon="-53.344530869963094"><ele>701.0</ele><time>2026-04-04T11:52:44.004Z</time></trkpt><trkpt lat="-25.03689708540302" lon="-53.34461631664718"><ele>701.0</ele><time>2026-04-04T11:52:46.004Z</time></trkpt><trkpt lat="-25.03687849759946" lon="-53.344749628561765"><ele>701.0</ele><time>2026-04-04T11:52:48.004Z</time></trkpt><trkpt lat="-25.036946020741073" lon="-53.34484543180576"><ele>701.0</ele><time>2026-04-04T11:52:50.004Z</time></trkpt><trkpt lat="-25.0369990410977" lon="-53.34495510498035"><ele>701.0</ele><time>2026-04-04T11:52:52.005Z</time></trkpt><trkpt lat="-25.037011851905802" lon="-53.34504579665289"><ele>701.0</ele><time>2026-04-04T11:52:53.005Z</time></trkpt><trkpt lat="-25.037037060055635" lon="-53.34513036171145"><ele>701.0</ele><time>2026-04-04T11:52:54.005Z</time></trkpt><trkpt lat="-25.03706950093171" lon="-53.34520562097342"><ele>701.0</ele><time>2026-04-04T11:52:55.005Z</time></trkpt><trkpt lat="-25.037112734725103" lon="-53.34532269500107"><ele>701.0</ele><time>2026-04-04T11:52:57.006Z</time></trkpt><trkpt lat="-25.037126653163707" lon="-53.34539711354025"><ele>701.0</ele><time>2026-04-04T11:52:58.006Z</time></trkpt><trkpt lat="-25.037164587480294" lon="-53.34548984362838"><ele>701.0</ele><time>2026-04-04T11:53:00.005Z</time></trkpt><trkpt lat="-25.037207281034142" lon="-53.34555440787244"><ele>701.0</ele><time>2026-04-04T11:53:02.005Z</time></trkpt><trkpt lat="-25.03724598220163" lon="-53.34561577835544"><ele>701.1666666666666</ele><time>2026-04-04T11:53:04.005Z</time></trkpt><trkpt lat="-25.03730538860566" lon="-53.345654846585596"><ele>701.3333333333333</ele><time>2026-04-04T11:53:06.005Z</time></trkpt><trkpt lat="-25.037291587975925" lon="-53.345751390526424"><ele>701.5</ele><time>2026-04-04T11:53:09.005Z</time></trkpt><trkpt lat="-25.037274404868302" lon="-53.345840116690034"><ele>701.6666666666666</ele><time>2026-04-04T11:53:13.005Z</time></trkpt><trkpt lat="-25.0372578101732" lon="-53.34592925686744"><ele>701.8333333333334</ele><time>2026-04-04T11:53:16.005Z</time></trkpt><trkpt lat="-25.03719486432244" lon="-53.34603119670467"><ele>702.0</ele><time>2026-04-04T11:53:19.005Z</time></trkpt><trkpt lat="-25.037165229761595" lon="-53.346107316705265"><ele>702.0</ele><time>2026-04-04T11:53:20.005Z</time></trkpt><trkpt lat="-25.03712208518318" lon="-53.346188718752785"><ele>702.0</ele><time>2026-04-04T11:53:22.005Z</time></trkpt><trkpt lat="-25.037050341664386" lon="-53.34625832571217"><ele>702.0</ele><time>2026-04-04T11:53:25.005Z</time></trkpt><trkpt lat="-25.03699745542065" lon="-53.34632664855214"><ele>702.0</ele><time>2026-04-04T11:53:27.005Z</time></trkpt><trkpt lat="-25.036937101140154" lon="-53.34637706983648"><ele>702.0</ele><time>2026-04-04T11:53:28.005Z</time></trkpt><trkpt lat="-25.036873181583047" lon="-53.346397733740886"><ele>702.0</ele><time>2026-04-04T11:53:29.005Z</time></trkpt><trkpt lat="-25.036772984914982" lon="-53.34642175075867"><ele>702.6666666666666</ele><time>2026-04-04T11:53:31.005Z</time></trkpt><trkpt lat="-25.036723159587122" lon="-53.34648255922208"><ele>703.3333333333334</ele><time>2026-04-04T11:53:38.005Z</time></trkpt><trkpt lat="-25.03667009608466" lon="-53.34653553771896"><ele>704.0</ele><time>2026-04-04T11:53:40.005Z</time></trkpt><trkpt lat="-25.036617011298695" lon="-53.346595253564864"><ele>704.6666666666667</ele><time>2026-04-04T11:53:42.005Z</time></trkpt><trkpt lat="-25.036552215925322" lon="-53.34664064935202"><ele>705.3333333333334</ele><time>2026-04-04T11:53:43.005Z</time></trkpt><trkpt lat="-25.03643036155129" lon="-53.34668231204815"><ele>706.0</ele><time>2026-04-04T11:53:45.005Z</time></trkpt><trkpt lat="-25.036355995318416" lon="-53.34677129377182"><ele>706.0</ele><time>2026-04-04T11:53:47.005Z</time></trkpt><trkpt lat="-25.036255070601253" lon="-53.346836336960315"><ele>706.0</ele><time>2026-04-04T11:53:49.005Z</time></trkpt><trkpt lat="-25.036184926844083" lon="-53.346861012113045"><ele>706.0</ele><time>2026-04-04T11:53:50.005Z</time></trkpt><trkpt lat="-25.036127925412192" lon="-53.346897424455555"><ele>706.0</ele><time>2026-04-04T11:53:51.005Z</time></trkpt><trkpt lat="-25.036073177177798" lon="-53.34693621481251"><ele>706.0</ele><time>2026-04-04T11:53:52.005Z</time></trkpt><trkpt lat="-25.03596648383822" lon="-53.34694133064098"><ele>706.0</ele><time>2026-04-04T11:53:54.005Z</time></trkpt><trkpt lat="-25.0358493926322" lon="-53.346934118676515"><ele>705.5999999999999</ele><time>2026-04-04T11:53:56.005Z</time></trkpt><trkpt lat="-25.035780963639475" lon="-53.34699221778174"><ele>705.2</ele><time>2026-04-04T11:53:58.005Z</time></trkpt><trkpt lat="-25.035740497864964" lon="-53.34707852246349"><ele>704.8</ele><time>2026-04-04T11:54:00.005Z</time></trkpt><trkpt lat="-25.035658584641727" lon="-53.347169860957614"><ele>704.4000000000001</ele><time>2026-04-04T11:54:02.005Z</time></trkpt><trkpt lat="-25.03560995087295" lon="-53.34723000692854"><ele>704.0</ele><time>2026-04-04T11:54:03.005Z</time></trkpt><trkpt lat="-25.035529169318117" lon="-53.34732244677508"><ele>704.0</ele><time>2026-04-04T11:54:05.005Z</time></trkpt><trkpt lat="-25.03546596746975" lon="-53.347405911196574"><ele>704.0</ele><time>2026-04-04T11:54:07.005Z</time></trkpt><trkpt lat="-25.035409970671108" lon="-53.34747177038703"><ele>704.0</ele><time>2026-04-04T11:54:09.005Z</time></trkpt><trkpt lat="-25.035315313814333" lon="-53.347548229894244"><ele>704.0</ele><time>2026-04-04T11:54:11.005Z</time></trkpt><trkpt lat="-25.035254544823673" lon="-53.34758513249097"><ele>704.0</ele><time>2026-04-04T11:54:12.005Z</time></trkpt><trkpt lat="-25.035178942649665" lon="-53.34761761493201"><ele>704.0</ele><time>2026-04-04T11:54:13.005Z</time></trkpt><trkpt lat="-25.03509061761068" lon="-53.347657686277"><ele>704.0</ele><time>2026-04-04T11:54:14.005Z</time></trkpt><trkpt lat="-25.035004330752535" lon="-53.34770783422107"><ele>704.0</ele><time>2026-04-04T11:54:15.005Z</time></trkpt><trkpt lat="-25.03493242452827" lon="-53.34776474662762"><ele>704.0</ele><time>2026-04-04T11:54:16.005Z</time></trkpt><trkpt lat="-25.034876283162273" lon="-53.34781593284485"><ele>704.0</ele><time>2026-04-04T11:54:17.005Z</time></trkpt><trkpt lat="-25.034826442085446" lon="-53.347864479553934"><ele>704.0</ele><time>2026-04-04T11:54:18.005Z</time></trkpt><trkpt lat="-25.034743222792294" lon="-53.34792231120378"><ele>704.0</ele><time>2026-04-04T11:54:20.005Z</time></trkpt><trkpt lat="-25.03474901283072" lon="-53.34802581139846"><ele>705.0</ele><time>2026-04-04T11:54:22.005Z</time></trkpt><trkpt lat="-25.034750650845577" lon="-53.34814895176696"><ele>706.0</ele><time>2026-04-04T11:54:24.005Z</time></trkpt><trkpt lat="-25.03479852268702" lon="-53.34819700926282"><ele>707.0</ele><time>2026-04-04T11:54:27.005Z</time></trkpt><trkpt lat="-25.034861232269666" lon="-53.348208079432915"><ele>708.0</ele><time>2026-04-04T11:54:29.005Z</time></trkpt><trkpt lat="-25.034843614976506" lon="-53.348297040873454"><ele>709.0</ele><time>2026-04-04T11:54:31.005Z</time></trkpt><trkpt lat="-25.03478115703093" lon="-53.348345044752804"><ele>710.0</ele><time>2026-04-04T11:54:33.005Z</time></trkpt><trkpt lat="-25.034726081959967" lon="-53.34841774701028"><ele>710.0</ele><time>2026-04-04T11:54:35.005Z</time></trkpt><trkpt lat="-25.034706254135795" lon="-53.348497139881104"><ele>710.0</ele><time>2026-04-04T11:54:37.005Z</time></trkpt><trkpt lat="-25.034645419187893" lon="-53.348528865674254"><ele>710.0</ele><time>2026-04-04T11:54:39.005Z</time></trkpt><trkpt lat="-25.03467014981106" lon="-53.348600753228226"><ele>710.0</ele><time>2026-04-04T11:54:42.005Z</time></trkpt><trkpt lat="-25.034611478915142" lon="-53.34864353485319"><ele>710.0</ele><time>2026-04-04T11:54:46.005Z</time></trkpt><trkpt lat="-25.03453486055908" lon="-53.348685398356004"><ele>710.0</ele><time>2026-04-04T11:54:49.005Z</time></trkpt><trkpt lat="-25.034433585565914" lon="-53.348721117920235"><ele>710.0</ele><time>2026-04-04T11:54:51.005Z</time></trkpt><trkpt lat="-25.034353192094446" lon="-53.3487216539558"><ele>710.0</ele><time>2026-04-04T11:54:53.005Z</time></trkpt><trkpt lat="-25.034288847350012" lon="-53.348686482089064"><ele>710.0</ele><time>2026-04-04T11:54:56.005Z</time></trkpt><trkpt lat="-25.034223148136505" lon="-53.34869627725458"><ele>710.0</ele><time>2026-04-04T11:54:58.006Z</time></trkpt><trkpt lat="-25.034181358486205" lon="-53.34863698604948"><ele>710.0</ele><time>2026-04-04T11:55:00.006Z</time></trkpt><trkpt lat="-25.034118431968157" lon="-53.34857784133297"><ele>710.0</ele><time>2026-04-04T11:55:03.006Z</time></trkpt><trkpt lat="-25.034084345783118" lon="-53.34847008577487"><ele>710.6666666666666</ele><time>2026-04-04T11:55:06.006Z</time></trkpt><trkpt lat="-25.03402847217284" lon="-53.34842236143867"><ele>711.3333333333333</ele><time>2026-04-04T11:55:08.006Z</time></trkpt><trkpt lat="-25.033959365543033" lon="-53.34837192720652"><ele>712.0</ele><time>2026-04-04T11:55:11.006Z</time></trkpt><trkpt lat="-25.033900739617803" lon="-53.348328172481736"><ele>712.6666666666666</ele><time>2026-04-04T11:55:15.006Z</time></trkpt><trkpt lat="-25.03383231909808" lon="-53.34830685467658"><ele>713.3333333333334</ele><time>2026-04-04T11:55:19.006Z</time></trkpt><trkpt lat="-25.033797092036618" lon="-53.34822278965298"><ele>714.0</ele><time>2026-04-04T11:55:22.006Z</time></trkpt><trkpt lat="-25.03371677108588" lon="-53.348214570802085"><ele>714.0</ele><time>2026-04-04T11:55:25.006Z</time></trkpt><trkpt lat="-25.0336476558312" lon="-53.34823059007538"><ele>714.0</ele><time>2026-04-04T11:55:27.006Z</time></trkpt><trkpt lat="-25.033574035557955" lon="-53.34822656568512"><ele>714.0</ele><time>2026-04-04T11:55:29.006Z</time></trkpt><trkpt lat="-25.033515087978294" lon="-53.348266212834346"><ele>714.0</ele><time>2026-04-04T11:55:31.006Z</time></trkpt><trkpt lat="-25.033408730137804" lon="-53.348311408436714"><ele>714.0</ele><time>2026-04-04T11:55:34.006Z</time></trkpt><trkpt lat="-25.033340378320233" lon="-53.348294695135756"><ele>714.0</ele><time>2026-04-04T11:55:36.006Z</time></trkpt><trkpt lat="-25.033259496888583" lon="-53.34836174618883"><ele>713.5</ele><time>2026-04-04T11:55:38.004Z</time></trkpt><trkpt lat="-25.03319807693378" lon="-53.348413101804496"><ele>713.0</ele><time>2026-04-04T11:55:40.002Z</time></trkpt><trkpt lat="-25.03313324679727" lon="-53.34843885951248"><ele>712.5</ele><time>2026-04-04T11:55:42Z</time></trkpt><trkpt lat="-25.033066824114066" lon="-53.34848399668222"><ele>712.0</ele><time>2026-04-04T11:55:43.999Z</time></trkpt><trkpt lat="-25.033026224235627" lon="-53.34854093570787"><ele>711.5</ele><time>2026-04-04T11:55:45.997Z</time></trkpt><trkpt lat="-25.032948325968587" lon="-53.348580009742236"><ele>711.0</ele><time>2026-04-04T11:55:47.996Z</time></trkpt><trkpt lat="-25.032877092725798" lon="-53.34861446416059"><ele>711.0</ele><time>2026-04-04T11:55:48.996Z</time></trkpt><trkpt lat="-25.032788207808125" lon="-53.34865130446691"><ele>711.0</ele><time>2026-04-04T11:55:50.995Z</time></trkpt><trkpt lat="-25.032739920334773" lon="-53.34874902344343"><ele>711.0</ele><time>2026-04-04T11:55:53.993Z</time></trkpt><trkpt lat="-25.03270825808511" lon="-53.34883650284258"><ele>711.0</ele><time>2026-04-04T11:55:56.992Z</time></trkpt><trkpt lat="-25.032660523763358" lon="-53.34890842021078"><ele>711.0</ele><time>2026-04-04T11:55:58.992Z</time></trkpt><trkpt lat="-25.032684740557478" lon="-53.34899216451691"><ele>711.0</ele><time>2026-04-04T11:56:00.991Z</time></trkpt><trkpt lat="-25.032680183687727" lon="-53.34909277743979"><ele>708.8333333333334</ele><time>2026-04-04T11:56:03.99Z</time></trkpt><trkpt lat="-25.032697411706433" lon="-53.349182095951086"><ele>706.6666666666666</ele><time>2026-04-04T11:56:07.99Z</time></trkpt><trkpt lat="-25.032641934760626" lon="-53.34926097047071"><ele>704.5</ele><time>2026-04-04T11:56:09.989Z</time></trkpt><trkpt lat="-25.032558887863562" lon="-53.349250770202985"><ele>702.3333333333333</ele><time>2026-04-04T11:56:11.989Z</time></trkpt><trkpt lat="-25.03247667676249" lon="-53.3492352166244"><ele>700.1666666666666</ele><time>2026-04-04T11:56:13.989Z</time></trkpt><trkpt lat="-25.032386394741334" lon="-53.34923026368657"><ele>698.0</ele><time>2026-04-04T11:56:15.989Z</time></trkpt><trkpt lat="-25.032324047651805" lon="-53.34920532718017"><ele>697.8571428571428</ele><time>2026-04-04T11:56:19.988Z</time></trkpt><trkpt lat="-25.032246069135326" lon="-53.349237708989456"><ele>697.7142857142857</ele><time>2026-04-04T11:56:24.988Z</time></trkpt><trkpt lat="-25.03216984412678" lon="-53.34922315585067"><ele>697.5714285714286</ele><time>2026-04-04T11:56:27.988Z</time></trkpt><trkpt lat="-25.03210684800687" lon="-53.349245886942185"><ele>697.4285714285713</ele><time>2026-04-04T11:56:28.988Z</time></trkpt><trkpt lat="-25.032041425576878" lon="-53.34927818080218"><ele>697.2857142857142</ele><time>2026-04-04T11:56:29.988Z</time></trkpt><trkpt lat="-25.031977408526004" lon="-53.34930135907453"><ele>697.1428571428571</ele><time>2026-04-04T11:56:30.988Z</time></trkpt><trkpt lat="-25.031903359137807" lon="-53.3493153558371"><ele>697.0</ele><time>2026-04-04T11:56:31.988Z</time></trkpt><trkpt lat="-25.03181797087112" lon="-53.349355925356036"><ele>697.0</ele><time>2026-04-04T11:56:33.987Z</time></trkpt><trkpt lat="-25.03174329721875" lon="-53.3493806488686"><ele>697.0</ele><time>2026-04-04T11:56:36.987Z</time></trkpt><trkpt lat="-25.031647436109857" lon="-53.34935805738948"><ele>697.0</ele><time>2026-04-04T11:56:38.987Z</time></trkpt><trkpt lat="-25.031586290659394" lon="-53.34934105666143"><ele>697.0</ele><time>2026-04-04T11:56:42.987Z</time></trkpt><trkpt lat="-25.031513920204784" lon="-53.349307827136265"><ele>697.0</ele><time>2026-04-04T11:56:47.987Z</time></trkpt><trkpt lat="-25.03144973590968" lon="-53.349267406819784"><ele>697.0</ele><time>2026-04-04T11:56:50.987Z</time></trkpt><trkpt lat="-25.03135018975164" lon="-53.34927590532605"><ele>697.3333333333334</ele><time>2026-04-04T11:56:53.987Z</time></trkpt><trkpt lat="-25.031292264752572" lon="-53.34930634447061"><ele>697.6666666666667</ele><time>2026-04-04T11:56:54.987Z</time></trkpt><trkpt lat="-25.03121729680888" lon="-53.34937333394704"><ele>698.0</ele><time>2026-04-04T11:56:56.987Z</time></trkpt><trkpt lat="-25.031190425777666" lon="-53.349446040372065"><ele>698.3333333333334</ele><time>2026-04-04T11:57:00.987Z</time></trkpt><trkpt lat="-25.03117970625471" lon="-53.34952870282072"><ele>698.6666666666666</ele><time>2026-04-04T11:57:05.987Z</time></trkpt><trkpt lat="-25.03115759040278" lon="-53.34960856862209"><ele>699.0</ele><time>2026-04-04T11:57:09.987Z</time></trkpt><trkpt lat="-25.03111599566504" lon="-53.349687092298026"><ele>699.0</ele><time>2026-04-04T11:57:13.987Z</time></trkpt><trkpt lat="-25.031056218315292" lon="-53.34971940014323"><ele>699.0</ele><time>2026-04-04T11:57:16.988Z</time></trkpt><trkpt lat="-25.030985177133196" lon="-53.34970786929088"><ele>699.0</ele><time>2026-04-04T11:57:20.988Z</time></trkpt><trkpt lat="-25.030923867739638" lon="-53.34967506841699"><ele>699.0</ele><time>2026-04-04T11:57:23.988Z</time></trkpt><trkpt lat="-25.030874857625946" lon="-53.34961598952889"><ele>699.0</ele><time>2026-04-04T11:57:28.988Z</time></trkpt><trkpt lat="-25.03087058159954" lon="-53.349536386076416"><ele>699.0</ele><time>2026-04-04T11:57:32.987Z</time></trkpt><trkpt lat="-25.03080717671086" lon="-53.349501315061325"><ele>699.0</ele><time>2026-04-04T11:57:35.987Z</time></trkpt><trkpt lat="-25.030735595255127" lon="-53.34950842308467"><ele>696.6666666666666</ele><time>2026-04-04T11:57:38.987Z</time></trkpt><trkpt lat="-25.03064953033966" lon="-53.34950783766695"><ele>694.3333333333334</ele><time>2026-04-04T11:57:41.987Z</time></trkpt><trkpt lat="-25.030573099821186" lon="-53.3494603252235"><ele>692.0</ele><time>2026-04-04T11:57:44.987Z</time></trkpt><trkpt lat="-25.030511086215313" lon="-53.349402277750485"><ele>689.6666666666667</ele><time>2026-04-04T11:57:47.987Z</time></trkpt><trkpt lat="-25.030437385202383" lon="-53.349406243958825"><ele>687.3333333333334</ele><time>2026-04-04T11:57:49.987Z</time></trkpt><trkpt lat="-25.030371577813774" lon="-53.34941233807173"><ele>685.0</ele><time>2026-04-04T11:57:52.987Z</time></trkpt><trkpt lat="-25.030309949871683" lon="-53.349394781738404"><ele>685.0</ele><time>2026-04-04T11:57:56.987Z</time></trkpt><trkpt lat="-25.030201515335627" lon="-53.34936724110246"><ele>685.0</ele><time>2026-04-04T11:58:08.987Z</time></trkpt><trkpt lat="-25.03013176980955" lon="-53.34936390331802"><ele>685.0</ele><time>2026-04-04T11:58:24.987Z</time></trkpt><trkpt lat="-25.03008314833287" lon="-53.34931270538366"><ele>685.0</ele><time>2026-04-04T11:59:07.987Z</time></trkpt><trkpt lat="-25.03004474075039" lon="-53.34937916406203"><ele>685.0</ele><time>2026-04-04T11:59:16.987Z</time></trkpt><trkpt lat="-25.029992665623613" lon="-53.34943778718591"><ele>685.0</ele><time>2026-04-04T11:59:20.987Z</time></trkpt><trkpt lat="-25.029964438720476" lon="-53.349530945031724"><ele>681.8571428571428</ele><time>2026-04-04T11:59:23.987Z</time></trkpt><trkpt lat="-25.029892142790843" lon="-53.349546063557604"><ele>678.7142857142858</ele><time>2026-04-04T11:59:27.987Z</time></trkpt><trkpt lat="-25.02983956109973" lon="-53.34950343721517"><ele>675.5714285714286</ele><time>2026-04-04T11:59:30.987Z</time></trkpt><trkpt lat="-25.02976913587208" lon="-53.34949009355222"><ele>672.4285714285713</ele><time>2026-04-04T11:59:33.987Z</time></trkpt><trkpt lat="-25.029718869100808" lon="-53.34953242046923"><ele>669.2857142857142</ele><time>2026-04-04T11:59:36.987Z</time></trkpt><trkpt lat="-25.02965997136589" lon="-53.349561766992856"><ele>666.1428571428571</ele><time>2026-04-04T11:59:44.987Z</time></trkpt><trkpt lat="-25.02959634028797" lon="-53.349581437140735"><ele>663.0</ele><time>2026-04-04T11:59:49.987Z</time></trkpt><trkpt lat="-25.02951497379043" lon="-53.34959359604889"><ele>662.9999999999999</ele><time>2026-04-04T11:59:53.987Z</time></trkpt><trkpt lat="-25.029452453314143" lon="-53.34960553670007"><ele>663.0</ele><time>2026-04-04T11:59:56.987Z</time></trkpt><trkpt lat="-25.029391867257406" lon="-53.34957768510779"><ele>663.0</ele><time>2026-04-04T11:59:59.987Z</time></trkpt><trkpt lat="-25.029332552004732" lon="-53.34953271982043"><ele>663.0</ele><time>2026-04-04T12:00:02.987Z</time></trkpt><trkpt lat="-25.029290082297358" lon="-53.3494751228175"><ele>663.0</ele><time>2026-04-04T12:00:05.987Z</time></trkpt><trkpt lat="-25.02922510122138" lon="-53.34941748383059"><ele>662.9999999999999</ele><time>2026-04-04T12:00:08.987Z</time></trkpt><trkpt lat="-25.029164163613288" lon="-53.34936403854292"><ele>663.0</ele><time>2026-04-04T12:00:11.987Z</time></trkpt><trkpt lat="-25.02909932151388" lon="-53.349294556524534"><ele>660.8571428571428</ele><time>2026-04-04T12:00:14.987Z</time></trkpt><trkpt lat="-25.02906141740688" lon="-53.34923224202079"><ele>658.7142857142857</ele><time>2026-04-04T12:00:15.987Z</time></trkpt><trkpt lat="-25.02903435022039" lon="-53.349168210306985"><ele>656.5714285714286</ele><time>2026-04-04T12:00:18.987Z</time></trkpt><trkpt lat="-25.02896689290687" lon="-53.34914804519693"><ele>654.4285714285713</ele><time>2026-04-04T12:00:21.987Z</time></trkpt><trkpt lat="-25.028912142701184" lon="-53.34910574054409"><ele>652.2857142857142</ele><time>2026-04-04T12:00:23.987Z</time></trkpt><trkpt lat="-25.02888282241469" lon="-53.3489899671862"><ele>650.1428571428571</ele><time>2026-04-04T12:00:26.987Z</time></trkpt><trkpt lat="-25.02885997039871" lon="-53.34891968584599"><ele>648.0</ele><time>2026-04-04T12:00:28.987Z</time></trkpt><trkpt lat="-25.02883574106753" lon="-53.34885145857371"><ele>648.0</ele><time>2026-04-04T12:00:31.987Z</time></trkpt><trkpt lat="-25.028806416173513" lon="-53.348784553143034"><ele>648.0</ele><time>2026-04-04T12:00:34.987Z</time></trkpt><trkpt lat="-25.028760466191738" lon="-53.348704099366785"><ele>648.0</ele><time>2026-04-04T12:00:37.987Z</time></trkpt><trkpt lat="-25.02873958095941" lon="-53.348629622437045"><ele>648.0</ele><time>2026-04-04T12:00:39.987Z</time></trkpt><trkpt lat="-25.028697319268762" lon="-53.34854927982107"><ele>648.0</ele><time>2026-04-04T12:00:41.987Z</time></trkpt><trkpt lat="-25.028666291485134" lon="-53.348483155796465"><ele>648.0</ele><time>2026-04-04T12:00:43.987Z</time></trkpt><trkpt lat="-25.028581125110584" lon="-53.34852930541487"><ele>648.0</ele><time>2026-04-04T12:00:54.987Z</time></trkpt><trkpt lat="-25.028510245330953" lon="-53.34854592467234"><ele>648.0</ele><time>2026-04-04T12:00:56.986Z</time></trkpt><trkpt lat="-25.02843782592628" lon="-53.34854228088425"><ele>648.0</ele><time>2026-04-04T12:01:00.986Z</time></trkpt><trkpt lat="-25.02837596730493" lon="-53.34857207545865"><ele>648.0</ele><time>2026-04-04T12:01:03.986Z</time></trkpt><trkpt lat="-25.028310483415527" lon="-53.34854586627451"><ele>648.0</ele><time>2026-04-04T12:01:06.986Z</time></trkpt><trkpt lat="-25.02825656282888" lon="-53.348508417278225"><ele>648.0</ele><time>2026-04-04T12:01:08.986Z</time></trkpt><trkpt lat="-25.028199235373364" lon="-53.34847318485493"><ele>648.0</ele><time>2026-04-04T12:01:12.986Z</time></trkpt><trkpt lat="-25.02817321850613" lon="-53.348402919080335"><ele>649.2857142857143</ele><time>2026-04-04T12:01:18.987Z</time></trkpt><trkpt lat="-25.028160953898958" lon="-53.348334425946426"><ele>650.5714285714286</ele><time>2026-04-04T12:01:24.987Z</time></trkpt><trkpt lat="-25.028171220600623" lon="-53.34826256648508"><ele>651.8571428571429</ele><time>2026-04-04T12:01:33.986Z</time></trkpt><trkpt lat="-25.028171086290413" lon="-53.348171975026496"><ele>653.1428571428571</ele><time>2026-04-04T12:01:57.986Z</time></trkpt><trkpt lat="-25.028125376844386" lon="-53.34811556910552"><ele>654.4285714285714</ele><time>2026-04-04T12:02:03.986Z</time></trkpt><trkpt lat="-25.02806705065507" lon="-53.34808482030334"><ele>655.7142857142857</ele><time>2026-04-04T12:02:08.986Z</time></trkpt><trkpt lat="-25.028003516522155" lon="-53.34810848392037"><ele>657.0</ele><time>2026-04-04T12:02:16.986Z</time></trkpt><trkpt lat="-25.027914225972893" lon="-53.348130549598764"><ele>657.0</ele><time>2026-04-04T12:02:19.986Z</time></trkpt><trkpt lat="-25.027837830842675" lon="-53.34816061893616"><ele>657.0</ele><time>2026-04-04T12:02:22.986Z</time></trkpt><trkpt lat="-25.027810223907807" lon="-53.348229644851784"><ele>657.0</ele><time>2026-04-04T12:02:24.986Z</time></trkpt><trkpt lat="-25.027779627462817" lon="-53.348324041632004"><ele>657.0</ele><time>2026-04-04T12:02:28.986Z</time></trkpt><trkpt lat="-25.027704586936856" lon="-53.348383293064614"><ele>657.0</ele><time>2026-04-04T12:02:31.986Z</time></trkpt><trkpt lat="-25.027641468810703" lon="-53.34843568068462"><ele>657.0</ele><time>2026-04-04T12:02:36.986Z</time></trkpt><trkpt lat="-25.027550087268803" lon="-53.34847609135859"><ele>657.0</ele><time>2026-04-04T12:03:02.985Z</time></trkpt><trkpt lat="-25.027504142736795" lon="-53.34852783190145"><ele>657.0</ele><time>2026-04-04T12:03:11.985Z</time></trkpt><trkpt lat="-25.02748101054275" lon="-53.34862030775761"><ele>657.0</ele><time>2026-04-04T12:03:14.985Z</time></trkpt><trkpt lat="-25.027448758618455" lon="-53.348687888269204"><ele>657.0</ele><time>2026-04-04T12:03:16.985Z</time></trkpt><trkpt lat="-25.027459034939685" lon="-53.348762444265304"><ele>657.0</ele><time>2026-04-04T12:03:19.985Z</time></trkpt><trkpt lat="-25.02745727162638" lon="-53.34885975277081"><ele>657.0</ele><time>2026-04-04T12:03:23.986Z</time></trkpt><trkpt lat="-25.027416648379685" lon="-53.34892722753637"><ele>658.8333333333334</ele><time>2026-04-04T12:03:25.986Z</time></trkpt><trkpt lat="-25.027343540567006" lon="-53.348944747097484"><ele>660.6666666666666</ele><time>2026-04-04T12:03:30.986Z</time></trkpt><trkpt lat="-25.02730757777974" lon="-53.34900310815459"><ele>662.5</ele><time>2026-04-04T12:04:00.986Z</time></trkpt><trkpt lat="-25.02726307134971" lon="-53.349052402924286"><ele>664.3333333333333</ele><time>2026-04-04T12:04:06.985Z</time></trkpt><trkpt lat="-25.02719281416538" lon="-53.34909735520011"><ele>666.1666666666666</ele><time>2026-04-04T12:04:11.985Z</time></trkpt><trkpt lat="-25.02708720244651" lon="-53.34915035299992"><ele>668.0</ele><time>2026-04-04T12:04:38.985Z</time></trkpt><trkpt lat="-25.027033814041868" lon="-53.3491900366781"><ele>668.0</ele><time>2026-04-04T12:05:05.985Z</time></trkpt><trkpt lat="-25.027101147948194" lon="-53.34913210778235"><ele>668.0</ele><time>2026-04-04T12:07:16.985Z</time></trkpt><trkpt lat="-25.027155235407594" lon="-53.34909176776968"><ele>668.0</ele><time>2026-04-04T12:07:20.985Z</time></trkpt><trkpt lat="-25.027217608877695" lon="-53.34906459224411"><ele>668.0</ele><time>2026-04-04T12:07:25.985Z</time></trkpt><trkpt lat="-25.027275569415664" lon="-53.34902616406076"><ele>668.0</ele><time>2026-04-04T12:07:29.985Z</time></trkpt><trkpt lat="-25.02729849676479" lon="-53.348956512483774"><ele>668.0</ele><time>2026-04-04T12:07:32.987Z</time></trkpt><trkpt lat="-25.027301543102833" lon="-53.34888350819518"><ele>668.0</ele><time>2026-04-04T12:07:36.986Z</time></trkpt><trkpt lat="-25.02732738959599" lon="-53.34881746436631"><ele>669.5714285714286</ele><time>2026-04-04T12:07:41.986Z</time></trkpt><trkpt lat="-25.02732722689324" lon="-53.348740473280216"><ele>671.1428571428571</ele><time>2026-04-04T12:07:44.986Z</time></trkpt><trkpt lat="-25.027378112992725" lon="-53.34868332370504"><ele>672.7142857142858</ele><time>2026-04-04T12:07:52.986Z</time></trkpt><trkpt lat="-25.02734238738849" lon="-53.348614649680044"><ele>674.2857142857142</ele><time>2026-04-04T12:08:04.985Z</time></trkpt><trkpt lat="-25.027325783482553" lon="-53.348546452065854"><ele>675.8571428571429</ele><time>2026-04-04T12:08:15.985Z</time></trkpt><trkpt lat="-25.027324546564127" lon="-53.34847696871748"><ele>677.4285714285714</ele><time>2026-04-04T12:08:25.985Z</time></trkpt><trkpt lat="-25.027303558174424" lon="-53.348400029674295"><ele>679.0</ele><time>2026-04-04T12:08:40.985Z</time></trkpt><trkpt lat="-25.027274072058884" lon="-53.348334503834124"><ele>679.0</ele><time>2026-04-04T12:08:48.985Z</time></trkpt><trkpt lat="-25.02727859765382" lon="-53.348243927928884"><ele>679.0</ele><time>2026-04-04T12:09:39.986Z</time></trkpt><trkpt lat="-25.0272080574007" lon="-53.348185727760736"><ele>679.0</ele><time>2026-04-04T12:09:43.986Z</time></trkpt><trkpt lat="-25.02715488908058" lon="-53.348117123849626"><ele>679.0</ele><time>2026-04-04T12:09:47.986Z</time></trkpt><trkpt lat="-25.02712442950905" lon="-53.34805200554675"><ele>679.0</ele><time>2026-04-04T12:09:57.986Z</time></trkpt><trkpt lat="-25.027060872217" lon="-53.34802620192767"><ele>679.0</ele><time>2026-04-04T12:11:32.985Z</time></trkpt><trkpt lat="-25.027023912097988" lon="-53.34796777503749"><ele>679.0</ele><time>2026-04-04T12:11:39.985Z</time></trkpt><trkpt lat="-25.02698938164472" lon="-53.3479068402261"><ele>679.0</ele><time>2026-04-04T12:11:58.986Z</time></trkpt><trkpt lat="-25.026928330744223" lon="-53.34787154140195"><ele>679.0</ele><time>2026-04-04T12:12:10.986Z</time></trkpt><trkpt lat="-25.02686163900226" lon="-53.347856133053604"><ele>679.0</ele><time>2026-04-04T12:12:25.986Z</time></trkpt><trkpt lat="-25.02682889400361" lon="-53.3479234541949"><ele>679.0</ele><time>2026-04-04T12:12:31.986Z</time></trkpt><trkpt lat="-25.026838796993953" lon="-53.34800223191178"><ele>679.0</ele><time>2026-04-04T12:12:37.986Z</time></trkpt><trkpt lat="-25.02680362168105" lon="-53.34807972196163"><ele>679.0</ele><time>2026-04-04T12:12:41.986Z</time></trkpt><trkpt lat="-25.026761763201247" lon="-53.348157506775195"><ele>679.0</ele><time>2026-04-04T12:12:45.986Z</time></trkpt><trkpt lat="-25.02670945333392" lon="-53.34821573894857"><ele>679.0</ele><time>2026-04-04T12:12:48.986Z</time></trkpt><trkpt lat="-25.026750231600847" lon="-53.3482753975497"><ele>679.0</ele><time>2026-04-04T12:12:52.986Z</time></trkpt><trkpt lat="-25.026741537750162" lon="-53.348354494079175"><ele>679.0</ele><time>2026-04-04T12:12:57.986Z</time></trkpt><trkpt lat="-25.02674449319521" lon="-53.34842551148839"><ele>679.0</ele><time>2026-04-04T12:13:00.986Z</time></trkpt><trkpt lat="-25.026751686889295" lon="-53.348501940075295"><ele>679.0</ele><time>2026-04-04T12:13:04.986Z</time></trkpt><trkpt lat="-25.026745997769645" lon="-53.34857666680138"><ele>679.0</ele><time>2026-04-04T12:13:07.986Z</time></trkpt><trkpt lat="-25.026692650110665" lon="-53.34864047760622"><ele>679.0</ele><time>2026-04-04T12:13:11.985Z</time></trkpt><trkpt lat="-25.026645865921466" lon="-53.34869888187159"><ele>679.0</ele><time>2026-04-04T12:13:17.985Z</time></trkpt><trkpt lat="-25.026595125602515" lon="-53.34876183035014"><ele>679.0</ele><time>2026-04-04T12:13:22.985Z</time></trkpt><trkpt lat="-25.02658502240675" lon="-53.348837338346776"><ele>679.0</ele><time>2026-04-04T12:13:26.985Z</time></trkpt><trkpt lat="-25.02655848744679" lon="-53.348900763090896"><ele>679.0</ele><time>2026-04-04T12:13:29.985Z</time></trkpt><trkpt lat="-25.026517307381724" lon="-53.34896657517819"><ele>679.0</ele><time>2026-04-04T12:13:33.985Z</time></trkpt><trkpt lat="-25.026481543279864" lon="-53.3490270863212"><ele>679.0</ele><time>2026-04-04T12:13:43.985Z</time></trkpt><trkpt lat="-25.026451363354777" lon="-53.34909516875761"><ele>680.5714285714286</ele><time>2026-04-04T12:13:53.986Z</time></trkpt><trkpt lat="-25.026401190584192" lon="-53.34915768495799"><ele>682.1428571428571</ele><time>2026-04-04T12:14:00.986Z</time></trkpt><trkpt lat="-25.026348571409244" lon="-53.3492076916912"><ele>683.7142857142858</ele><time>2026-04-04T12:14:10.986Z</time></trkpt><trkpt lat="-25.02628474481742" lon="-53.34924110885093"><ele>685.2857142857142</ele><time>2026-04-04T12:14:19.986Z</time></trkpt><trkpt lat="-25.026215163428862" lon="-53.349233753515726"><ele>686.8571428571429</ele><time>2026-04-04T12:14:23.986Z</time></trkpt><trkpt lat="-25.026268241033407" lon="-53.34919550952939"><ele>688.4285714285714</ele><time>2026-04-04T12:15:04.986Z</time></trkpt><trkpt lat="-25.02633222380678" lon="-53.34916588732395"><ele>690.0</ele><time>2026-04-04T12:15:16.986Z</time></trkpt><trkpt lat="-25.026387882888354" lon="-53.34911879775638"><ele>690.0</ele><time>2026-04-04T12:15:56.985Z</time></trkpt><trkpt lat="-25.02649940166377" lon="-53.34915621543705"><ele>690.0</ele><time>2026-04-04T12:30:09.983Z</time></trkpt><trkpt lat="-25.026424164305762" lon="-53.34920716123627"><ele>690.0</ele><time>2026-04-04T12:30:50.985Z</time></trkpt><trkpt lat="-25.02638943842846" lon="-53.349148707375775"><ele>690.0</ele><time>2026-04-04T12:38:44.983Z</time></trkpt><trkpt lat="-25.02635381336229" lon="-53.349213317472575"><ele>690.0</ele><time>2026-04-04T12:39:09.984Z</time></trkpt><trkpt lat="-25.026282000328408" lon="-53.34923477466864"><ele>690.0</ele><time>2026-04-04T12:39:19.984Z</time></trkpt><trkpt lat="-25.026215867545243" lon="-53.3492463229193"><ele>690.0</ele><time>2026-04-04T12:39:29.984Z</time></trkpt><trkpt lat="-25.026149209505355" lon="-53.349248140561045"><ele>690.0</ele><time>2026-04-04T12:39:44.984Z</time></trkpt><trkpt lat="-25.026207326627752" lon="-53.349202251688794"><ele>690.0</ele><time>2026-04-04T12:40:38.984Z</time></trkpt><trkpt lat="-25.026274755191004" lon="-53.349214005918334"><ele>690.0</ele><time>2026-04-04T12:40:50.984Z</time></trkpt><trkpt lat="-25.026335282716413" lon="-53.34917892106471"><ele>690.0</ele><time>2026-04-04T12:40:59.984Z</time></trkpt><trkpt lat="-25.026381116725183" lon="-53.34913038178138"><ele>690.0</ele><time>2026-04-04T12:41:16.984Z</time></trkpt><trkpt lat="-25.026453302608022" lon="-53.34907945395519"><ele>690.0</ele><time>2026-04-04T12:41:30.984Z</time></trkpt><trkpt lat="-25.026361617659674" lon="-53.34912581284323"><ele>690.0</ele><time>2026-04-04T12:46:22.983Z</time></trkpt><trkpt lat="-25.026340989998996" lon="-53.3491978333421"><ele>690.0</ele><time>2026-04-04T12:49:08.983Z</time></trkpt><trkpt lat="-25.02629097449324" lon="-53.34925025105085"><ele>690.0</ele><time>2026-04-04T12:49:22.983Z</time></trkpt><trkpt lat="-25.026221415837586" lon="-53.34925381951874"><ele>690.0</ele><time>2026-04-04T12:49:30.983Z</time></trkpt><trkpt lat="-25.02614993825735" lon="-53.34926889882961"><ele>690.0</ele><time>2026-04-04T12:50:06.983Z</time></trkpt><trkpt lat="-25.026089667167255" lon="-53.34933721651023"><ele>690.0</ele><time>2026-04-04T12:50:10.983Z</time></trkpt><trkpt lat="-25.02603138276206" lon="-53.34937360695718"><ele>690.0</ele><time>2026-04-04T12:50:13.983Z</time></trkpt><trkpt lat="-25.025979169838543" lon="-53.34944144399899"><ele>690.0</ele><time>2026-04-04T12:50:18.983Z</time></trkpt><trkpt lat="-25.025943432174937" lon="-53.34952351409903"><ele>690.0</ele><time>2026-04-04T12:50:25.983Z</time></trkpt><trkpt lat="-25.02587786631496" lon="-53.349584586276414"><ele>690.0</ele><time>2026-04-04T12:50:30.983Z</time></trkpt><trkpt lat="-25.025828256468095" lon="-53.34965435497787"><ele>690.0</ele><time>2026-04-04T12:50:33.983Z</time></trkpt><trkpt lat="-25.02577035792876" lon="-53.34969756113453"><ele>690.0</ele><time>2026-04-04T12:50:36.983Z</time></trkpt><trkpt lat="-25.025695810771595" lon="-53.34973305482407"><ele>690.0</ele><time>2026-04-04T12:50:39.983Z</time></trkpt><trkpt lat="-25.025673700350687" lon="-53.34980983356903"><ele>690.5714285714286</ele><time>2026-04-04T12:50:47.983Z</time></trkpt><trkpt lat="-25.02568302633931" lon="-53.34990385843502"><ele>691.1428571428571</ele><time>2026-04-04T12:50:50.983Z</time></trkpt><trkpt lat="-25.025619563146854" lon="-53.349948899613395"><ele>691.7142857142858</ele><time>2026-04-04T12:50:54.983Z</time></trkpt><trkpt lat="-25.02557710557393" lon="-53.35000233484763"><ele>692.2857142857142</ele><time>2026-04-04T12:51:04.983Z</time></trkpt><trkpt lat="-25.025531622723815" lon="-53.350054966335534"><ele>692.8571428571428</ele><time>2026-04-04T12:51:31.983Z</time></trkpt><trkpt lat="-25.02547728716445" lon="-53.350092737089746"><ele>693.4285714285714</ele><time>2026-04-04T12:51:34.983Z</time></trkpt><trkpt lat="-25.025424109694168" lon="-53.350134902298876"><ele>694.0</ele><time>2026-04-04T12:51:38.984Z</time></trkpt><trkpt lat="-25.02536372796251" lon="-53.35015478633564"><ele>694.0</ele><time>2026-04-04T12:51:49.983Z</time></trkpt><trkpt lat="-25.025297651261475" lon="-53.35017322906159"><ele>694.0</ele><time>2026-04-04T12:51:53.983Z</time></trkpt><trkpt lat="-25.025226900623085" lon="-53.35018555673357"><ele>694.0</ele><time>2026-04-04T12:51:57.983Z</time></trkpt><trkpt lat="-25.025152704711495" lon="-53.35019193511214"><ele>694.0</ele><time>2026-04-04T12:52:01.983Z</time></trkpt><trkpt lat="-25.025093128352147" lon="-53.35024086764662"><ele>694.0</ele><time>2026-04-04T12:52:05.983Z</time></trkpt><trkpt lat="-25.0249883245023" lon="-53.35028941208997"><ele>694.0</ele><time>2026-04-04T12:52:46.983Z</time></trkpt><trkpt lat="-25.024932094718103" lon="-53.3503471709296"><ele>694.8333333333334</ele><time>2026-04-04T12:52:48.983Z</time></trkpt><trkpt lat="-25.02487401062468" lon="-53.35043997788358"><ele>695.6666666666667</ele><time>2026-04-04T12:52:50.983Z</time></trkpt><trkpt lat="-25.02480753173679" lon="-53.35045044943426"><ele>696.5</ele><time>2026-04-04T12:52:55.983Z</time></trkpt><trkpt lat="-25.024776659868124" lon="-53.350376983439574"><ele>697.3333333333334</ele><time>2026-04-04T12:53:01.983Z</time></trkpt><trkpt lat="-25.024725711142295" lon="-53.35033578404382"><ele>698.1666666666666</ele><time>2026-04-04T12:53:03.983Z</time></trkpt><trkpt lat="-25.024681098309756" lon="-53.35025572903002"><ele>699.0</ele><time>2026-04-04T12:53:05.983Z</time></trkpt><trkpt lat="-25.024665650378275" lon="-53.35014785229687"><ele>699.0</ele><time>2026-04-04T12:53:10.983Z</time></trkpt><trkpt lat="-25.02463650337122" lon="-53.3500559643578"><ele>699.0</ele><time>2026-04-04T12:53:13.983Z</time></trkpt><trkpt lat="-25.02461622213335" lon="-53.349986989512615"><ele>699.0</ele><time>2026-04-04T12:53:16.983Z</time></trkpt><trkpt lat="-25.02451590111186" lon="-53.3498923303061"><ele>699.0</ele><time>2026-04-04T12:53:21.983Z</time></trkpt><trkpt lat="-25.024259140278744" lon="-53.34966821681753"><ele>699.3333333333334</ele><time>2026-04-04T12:53:24.983Z</time></trkpt><trkpt lat="-25.02412598218706" lon="-53.34963960899219"><ele>699.6666666666666</ele><time>2026-04-04T12:53:26.983Z</time></trkpt><trkpt lat="-25.024054464643157" lon="-53.34962084337522"><ele>700.0</ele><time>2026-04-04T12:53:27.983Z</time></trkpt><trkpt lat="-25.02398338316825" lon="-53.349633047298205"><ele>700.3333333333333</ele><time>2026-04-04T12:53:29.983Z</time></trkpt><trkpt lat="-25.024042969459927" lon="-53.3496988167964"><ele>700.6666666666666</ele><time>2026-04-04T12:53:35.983Z</time></trkpt><trkpt lat="-25.02407208291519" lon="-53.34976515303306"><ele>701.0</ele><time>2026-04-04T12:53:37.982Z</time></trkpt><trkpt lat="-25.0240874866216" lon="-53.349845257998545"><ele>701.0</ele><time>2026-04-04T12:53:40.982Z</time></trkpt><trkpt lat="-25.02410966944169" lon="-53.34992949722239"><ele>701.0</ele><time>2026-04-04T12:53:42.983Z</time></trkpt><trkpt lat="-25.024101488943344" lon="-53.350018263306396"><ele>701.0</ele><time>2026-04-04T12:53:46.983Z</time></trkpt><trkpt lat="-25.02411813143668" lon="-53.350091656424695"><ele>701.0</ele><time>2026-04-04T12:53:48.983Z</time></trkpt><trkpt lat="-25.024100490871692" lon="-53.35018688445029"><ele>701.0</ele><time>2026-04-04T12:53:51.983Z</time></trkpt><trkpt lat="-25.024043206454905" lon="-53.35025520527379"><ele>701.0</ele><time>2026-04-04T12:53:54.983Z</time></trkpt><trkpt lat="-25.023991521067583" lon="-53.350325881826265"><ele>701.0</ele><time>2026-04-04T12:53:57.983Z</time></trkpt><trkpt lat="-25.023955775799816" lon="-53.35039605484038"><ele>701.0</ele><time>2026-04-04T12:53:59.983Z</time></trkpt><trkpt lat="-25.023890751717154" lon="-53.35045529062303"><ele>701.0</ele><time>2026-04-04T12:54:01.983Z</time></trkpt><trkpt lat="-25.023866143842092" lon="-53.35053458082709"><ele>701.0</ele><time>2026-04-04T12:54:05.983Z</time></trkpt><trkpt lat="-25.023817937395446" lon="-53.350595541530744"><ele>701.0</ele><time>2026-04-04T12:54:08.983Z</time></trkpt><trkpt lat="-25.023792444321483" lon="-53.350688832870404"><ele>701.0</ele><time>2026-04-04T12:54:11.983Z</time></trkpt><trkpt lat="-25.023790437635704" lon="-53.35077385526988"><ele>698.7142857142858</ele><time>2026-04-04T12:54:13.983Z</time></trkpt><trkpt lat="-25.02379646122532" lon="-53.35086415161702"><ele>696.4285714285713</ele><time>2026-04-04T12:54:16.983Z</time></trkpt><trkpt lat="-25.023756637128646" lon="-53.35093048256545"><ele>694.1428571428571</ele><time>2026-04-04T12:54:19.983Z</time></trkpt><trkpt lat="-25.023690129475582" lon="-53.350957649021396"><ele>691.8571428571429</ele><time>2026-04-04T12:54:23.983Z</time></trkpt><trkpt lat="-25.023630010569903" lon="-53.35098850006706"><ele>689.5714285714287</ele><time>2026-04-04T12:54:33.983Z</time></trkpt><trkpt lat="-25.02354195882225" lon="-53.35099089383529"><ele>687.2857142857142</ele><time>2026-04-04T12:54:49.983Z</time></trkpt><trkpt lat="-25.023481550485492" lon="-53.350955836639145"><ele>685.0</ele><time>2026-04-04T12:54:57.983Z</time></trkpt><trkpt lat="-25.023423651404816" lon="-53.35092834322008"><ele>685.0</ele><time>2026-04-04T12:55:02.983Z</time></trkpt><trkpt lat="-25.023365624645347" lon="-53.35097431103123"><ele>685.0</ele><time>2026-04-04T12:55:05.983Z</time></trkpt><trkpt lat="-25.02328639681418" lon="-53.35102717047738"><ele>685.0</ele><time>2026-04-04T12:55:08.983Z</time></trkpt><trkpt lat="-25.023227413648794" lon="-53.351069193959965"><ele>685.0</ele><time>2026-04-04T12:55:09.983Z</time></trkpt><trkpt lat="-25.023175344977375" lon="-53.35111687841128"><ele>685.0</ele><time>2026-04-04T12:55:11.983Z</time></trkpt><trkpt lat="-25.023119525663517" lon="-53.35119626147081"><ele>685.0</ele><time>2026-04-04T12:55:14.983Z</time></trkpt><trkpt lat="-25.023078803970808" lon="-53.35126749778822"><ele>683.1666666666667</ele><time>2026-04-04T12:55:17.983Z</time></trkpt><trkpt lat="-25.023070990441383" lon="-53.35139779614805"><ele>681.3333333333334</ele><time>2026-04-04T12:55:20.983Z</time></trkpt><trkpt lat="-25.023031059375622" lon="-53.35147364453068"><ele>679.5</ele><time>2026-04-04T12:55:23.983Z</time></trkpt><trkpt lat="-25.023078322790422" lon="-53.35152757963828"><ele>677.6666666666666</ele><time>2026-04-04T12:55:30.982Z</time></trkpt><trkpt lat="-25.023146768304805" lon="-53.35152825295623"><ele>675.8333333333333</ele><time>2026-04-04T12:55:33.982Z</time></trkpt><trkpt lat="-25.0232020920848" lon="-53.35156777777306"><ele>674.0</ele><time>2026-04-04T12:55:36.982Z</time></trkpt><trkpt lat="-25.02320956614887" lon="-53.351644267096255"><ele>674.0000000000001</ele><time>2026-04-04T12:55:39.982Z</time></trkpt><trkpt lat="-25.023244313562433" lon="-53.35172226288285"><ele>674.0</ele><time>2026-04-04T12:55:43.982Z</time></trkpt><trkpt lat="-25.023311111493356" lon="-53.35176677914413"><ele>674.0</ele><time>2026-04-04T12:55:49.983Z</time></trkpt><trkpt lat="-25.023376820168163" lon="-53.351776730237894"><ele>674.0</ele><time>2026-04-04T12:55:52.982Z</time></trkpt><trkpt lat="-25.023441744868204" lon="-53.35179180666585"><ele>674.0</ele><time>2026-04-04T12:55:56.983Z</time></trkpt><trkpt lat="-25.023469640073838" lon="-53.35187234853604"><ele>674.0000000000001</ele><time>2026-04-04T12:55:59.983Z</time></trkpt><trkpt lat="-25.023481700411757" lon="-53.35195845982478"><ele>674.0</ele><time>2026-04-04T12:56:03.983Z</time></trkpt><trkpt lat="-25.02349179294351" lon="-53.35202915372649"><ele>673.8333333333333</ele><time>2026-04-04T12:56:10.982Z</time></trkpt><trkpt lat="-25.023518579379214" lon="-53.35210196332761"><ele>673.6666666666666</ele><time>2026-04-04T12:56:19.982Z</time></trkpt><trkpt lat="-25.02354987828489" lon="-53.35219565060063"><ele>673.5</ele><time>2026-04-04T12:56:43.982Z</time></trkpt><trkpt lat="-25.02355575372953" lon="-53.35227925116085"><ele>673.3333333333334</ele><time>2026-04-04T12:56:48.982Z</time></trkpt><trkpt lat="-25.023630600569312" lon="-53.352363353163504"><ele>673.1666666666667</ele><time>2026-04-04T12:56:50.982Z</time></trkpt><trkpt lat="-25.02361697889774" lon="-53.35243508077706"><ele>673.0</ele><time>2026-04-04T12:56:53.982Z</time></trkpt><trkpt lat="-25.023624256957117" lon="-53.352521546262"><ele>673.0</ele><time>2026-04-04T12:56:56.982Z</time></trkpt><trkpt lat="-25.023651724361482" lon="-53.352600240785584"><ele>673.0</ele><time>2026-04-04T12:56:59.982Z</time></trkpt><trkpt lat="-25.023635712036427" lon="-53.35269935258481"><ele>673.0</ele><time>2026-04-04T12:57:02.982Z</time></trkpt><trkpt lat="-25.023562958721186" lon="-53.35276370675689"><ele>673.0</ele><time>2026-04-04T12:57:06.982Z</time></trkpt><trkpt lat="-25.023501027690166" lon="-53.35283256728176"><ele>673.0</ele><time>2026-04-04T12:57:09.982Z</time></trkpt><trkpt lat="-25.023463614389986" lon="-53.35289807155712"><ele>673.0</ele><time>2026-04-04T12:57:14.982Z</time></trkpt><trkpt lat="-25.023449837529192" lon="-53.35296834801072"><ele>673.0</ele><time>2026-04-04T12:57:22.982Z</time></trkpt><trkpt lat="-25.023405895271516" lon="-53.35302752115191"><ele>673.0</ele><time>2026-04-04T12:57:37.982Z</time></trkpt><trkpt lat="-25.023355111620393" lon="-53.35306976793126"><ele>673.0</ele><time>2026-04-04T12:57:46.982Z</time></trkpt><trkpt lat="-25.023292675189673" lon="-53.35309273050366"><ele>673.0</ele><time>2026-04-04T12:57:51.982Z</time></trkpt><trkpt lat="-25.02322218219559" lon="-53.35312448886311"><ele>673.0</ele><time>2026-04-04T12:57:57.982Z</time></trkpt><trkpt lat="-25.023173159837157" lon="-53.35317852346605"><ele>673.0</ele><time>2026-04-04T12:58:02.983Z</time></trkpt><trkpt lat="-25.02311423020347" lon="-53.35321104305632"><ele>673.0</ele><time>2026-04-04T12:58:06.982Z</time></trkpt><trkpt lat="-25.023037147555886" lon="-53.35322227432206"><ele>678.2</ele><time>2026-04-04T12:58:10.982Z</time></trkpt><trkpt lat="-25.022956362914215" lon="-53.35325275208497"><ele>683.4</ele><time>2026-04-04T12:58:13.982Z</time></trkpt><trkpt lat="-25.022893079869743" lon="-53.35328857201721"><ele>688.6</ele><time>2026-04-04T12:58:16.982Z</time></trkpt><trkpt lat="-25.02282953410931" lon="-53.35328473580208"><ele>693.8000000000001</ele><time>2026-04-04T12:58:21.982Z</time></trkpt><trkpt lat="-25.022689805894498" lon="-53.353275975070375"><ele>699.0</ele><time>2026-04-04T12:58:37.982Z</time></trkpt><trkpt lat="-25.022601169364062" lon="-53.353321490500626"><ele>699.0</ele><time>2026-04-04T12:58:57.953Z</time></trkpt><trkpt lat="-25.022675454569924" lon="-53.353307697044144"><ele>699.0</ele><time>2026-04-04T12:59:18.941Z</time></trkpt><trkpt lat="-25.022745042898535" lon="-53.353293356001416"><ele>699.0</ele><time>2026-04-04T12:59:33.938Z</time></trkpt><trkpt lat="-25.02255684018802" lon="-53.353332492322146"><ele>699.0</ele><time>2026-04-04T13:00:49.936Z</time></trkpt><trkpt lat="-25.022493565124474" lon="-53.353315840752195"><ele>699.0</ele><time>2026-04-04T13:01:38.935Z</time></trkpt><trkpt lat="-25.022440808639598" lon="-53.35325679406455"><ele>700.0</ele><time>2026-04-04T13:01:50.935Z</time></trkpt><trkpt lat="-25.022378355123095" lon="-53.35321217931268"><ele>701.0</ele><time>2026-04-04T13:01:56.935Z</time></trkpt><trkpt lat="-25.022310227672357" lon="-53.35322347490554"><ele>702.0</ele><time>2026-04-04T13:01:59.935Z</time></trkpt><trkpt lat="-25.022251489851687" lon="-53.35319839287464"><ele>703.0</ele><time>2026-04-04T13:02:01.935Z</time></trkpt><trkpt lat="-25.022171037706574" lon="-53.35324626034869"><ele>704.0</ele><time>2026-04-04T13:02:05.936Z</time></trkpt><trkpt lat="-25.022110399735535" lon="-53.353296799168845"><ele>705.0</ele><time>2026-04-04T13:02:09.935Z</time></trkpt><trkpt lat="-25.02205008972463" lon="-53.35333199312829"><ele>706.0</ele><time>2026-04-04T13:02:12.936Z</time></trkpt><trkpt lat="-25.022011358645155" lon="-53.35339323814329"><ele>706.0</ele><time>2026-04-04T13:02:14.935Z</time></trkpt><trkpt lat="-25.02194729092389" lon="-53.35340789493728"><ele>706.0</ele><time>2026-04-04T13:02:16.936Z</time></trkpt><trkpt lat="-25.021850643547186" lon="-53.35338477975324"><ele>706.0</ele><time>2026-04-04T13:02:18.936Z</time></trkpt><trkpt lat="-25.02181700153377" lon="-53.35330076732371"><ele>706.0</ele><time>2026-04-04T13:02:21.936Z</time></trkpt><trkpt lat="-25.021819268730493" lon="-53.35318507717692"><ele>706.0</ele><time>2026-04-04T13:02:27.935Z</time></trkpt><trkpt lat="-25.02185582914635" lon="-53.35311207635911"><ele>706.0</ele><time>2026-04-04T13:02:30.935Z</time></trkpt><trkpt lat="-25.02189903041114" lon="-53.35305119254054"><ele>703.8333333333334</ele><time>2026-04-04T13:02:33.935Z</time></trkpt><trkpt lat="-25.0219572227394" lon="-53.35298029176276"><ele>701.6666666666667</ele><time>2026-04-04T13:02:37.935Z</time></trkpt><trkpt lat="-25.021996023080966" lon="-53.35290227428749"><ele>699.5</ele><time>2026-04-04T13:02:39.935Z</time></trkpt><trkpt lat="-25.02204079647362" lon="-53.3528277002561"><ele>697.3333333333334</ele><time>2026-04-04T13:02:41.935Z</time></trkpt><trkpt lat="-25.022018796625595" lon="-53.35272119134616"><ele>695.1666666666666</ele><time>2026-04-04T13:02:44.935Z</time></trkpt><trkpt lat="-25.022065225908545" lon="-53.352644021706176"><ele>693.0</ele><time>2026-04-04T13:02:46.935Z</time></trkpt><trkpt lat="-25.022119185890467" lon="-53.35259532276847"><ele>693.0</ele><time>2026-04-04T13:02:49.935Z</time></trkpt><trkpt lat="-25.022194319141487" lon="-53.35261053506286"><ele>693.0</ele><time>2026-04-04T13:02:51.935Z</time></trkpt><trkpt lat="-25.022273094477697" lon="-53.35259291363478"><ele>693.0</ele><time>2026-04-04T13:02:54.935Z</time></trkpt><trkpt lat="-25.022336472990144" lon="-53.35255311678534"><ele>693.0</ele><time>2026-04-04T13:02:56.935Z</time></trkpt><trkpt lat="-25.02234505585883" lon="-53.35247728093944"><ele>693.0</ele><time>2026-04-04T13:03:00.935Z</time></trkpt><trkpt lat="-25.02242568355819" lon="-53.352443326180456"><ele>693.0</ele><time>2026-04-04T13:03:03.935Z</time></trkpt><trkpt lat="-25.022453453961894" lon="-53.3523350141641"><ele>693.0</ele><time>2026-04-04T13:03:06.935Z</time></trkpt><trkpt lat="-25.02243697854674" lon="-53.35224970014757"><ele>693.0</ele><time>2026-04-04T13:03:08.935Z</time></trkpt><trkpt lat="-25.022425163626373" lon="-53.35217947695588"><ele>693.0</ele><time>2026-04-04T13:03:12.935Z</time></trkpt><trkpt lat="-25.02235523864161" lon="-53.35215752705683"><ele>693.0</ele><time>2026-04-04T13:03:15.935Z</time></trkpt><trkpt lat="-25.022280816522056" lon="-53.35213765397971"><ele>693.0</ele><time>2026-04-04T13:03:18.935Z</time></trkpt><trkpt lat="-25.02223756848561" lon="-53.35204339770371"><ele>693.0</ele><time>2026-04-04T13:03:35.934Z</time></trkpt><trkpt lat="-25.02219821910791" lon="-53.35198552348292"><ele>689.6666666666666</ele><time>2026-04-04T13:04:05.934Z</time></trkpt><trkpt lat="-25.022119743018656" lon="-53.35198723830303"><ele>686.3333333333334</ele><time>2026-04-04T13:05:01.933Z</time></trkpt><trkpt lat="-25.022044632878917" lon="-53.3520501495252"><ele>683.0</ele><time>2026-04-04T13:05:06.933Z</time></trkpt><trkpt lat="-25.021980349323343" lon="-53.35207446094845"><ele>679.6666666666667</ele><time>2026-04-04T13:05:08.933Z</time></trkpt><trkpt lat="-25.021884489973996" lon="-53.352070397156744"><ele>676.3333333333334</ele><time>2026-04-04T13:05:11.933Z</time></trkpt><trkpt lat="-25.021807029252226" lon="-53.35207382913864"><ele>673.0</ele><time>2026-04-04T13:05:16.933Z</time></trkpt><trkpt lat="-25.02171117731144" lon="-53.352062105857186"><ele>673.0</ele><time>2026-04-04T13:05:29.933Z</time></trkpt><trkpt lat="-25.021652087910553" lon="-53.3520891401509"><ele>673.0</ele><time>2026-04-04T13:05:34.933Z</time></trkpt><trkpt lat="-25.021601069236365" lon="-53.352143030822006"><ele>673.0</ele><time>2026-04-04T13:05:38.933Z</time></trkpt><trkpt lat="-25.021565382335037" lon="-53.352224295104975"><ele>673.0</ele><time>2026-04-04T13:05:42.933Z</time></trkpt><trkpt lat="-25.021546645311975" lon="-53.35229327414086"><ele>673.0</ele><time>2026-04-04T13:05:45.932Z</time></trkpt><trkpt lat="-25.021487510234632" lon="-53.352361389760794"><ele>673.0</ele><time>2026-04-04T13:05:48.932Z</time></trkpt><trkpt lat="-25.02142631874462" lon="-53.35240629717768"><ele>673.0</ele><time>2026-04-04T13:05:51.932Z</time></trkpt><trkpt lat="-25.021353125807558" lon="-53.35242788709899"><ele>675.8571428571429</ele><time>2026-04-04T13:05:55.932Z</time></trkpt><trkpt lat="-25.021277566343787" lon="-53.3524653757236"><ele>678.7142857142857</ele><time>2026-04-04T13:05:59.932Z</time></trkpt><trkpt lat="-25.021212770359387" lon="-53.35246571714451"><ele>681.5714285714286</ele><time>2026-04-04T13:06:02.932Z</time></trkpt><trkpt lat="-25.021135386431734" lon="-53.352498817596036"><ele>684.4285714285714</ele><time>2026-04-04T13:06:05.932Z</time></trkpt><trkpt lat="-25.02108176625909" lon="-53.35245255081559"><ele>687.2857142857142</ele><time>2026-04-04T13:06:09.932Z</time></trkpt><trkpt lat="-25.021013498313597" lon="-53.352430605887854"><ele>690.1428571428571</ele><time>2026-04-04T13:06:12.932Z</time></trkpt><trkpt lat="-25.02094772110727" lon="-53.352408628535855"><ele>693.0</ele><time>2026-04-04T13:06:19.933Z</time></trkpt><trkpt lat="-25.020860341764088" lon="-53.352371977577256"><ele>692.0</ele><time>2026-04-04T13:06:28.934Z</time></trkpt><trkpt lat="-25.02080124354356" lon="-53.352331419827664"><ele>691.0</ele><time>2026-04-04T13:06:33.933Z</time></trkpt><trkpt lat="-25.020740920253587" lon="-53.35226677281429"><ele>690.0</ele><time>2026-04-04T13:06:36.933Z</time></trkpt><trkpt lat="-25.020694824476077" lon="-53.35220773428238"><ele>689.0</ele><time>2026-04-04T13:06:39.933Z</time></trkpt><trkpt lat="-25.02067701685271" lon="-53.352127778810335"><ele>688.0</ele><time>2026-04-04T13:06:44.933Z</time></trkpt><trkpt lat="-25.02061692232442" lon="-53.35205424160206"><ele>687.0</ele><time>2026-04-04T13:06:47.933Z</time></trkpt><trkpt lat="-25.020577367901932" lon="-53.35197424714684"><ele>686.0</ele><time>2026-04-04T13:06:50.933Z</time></trkpt><trkpt lat="-25.0205331047227" lon="-53.351921925588734"><ele>685.0</ele><time>2026-04-04T13:06:53.933Z</time></trkpt><trkpt lat="-25.02049467696723" lon="-53.351859622730224"><ele>684.0</ele><time>2026-04-04T13:06:56.933Z</time></trkpt><trkpt lat="-25.020474023240958" lon="-53.35178815396021"><ele>683.0</ele><time>2026-04-04T13:06:59.933Z</time></trkpt><trkpt lat="-25.020489226880176" lon="-53.35171049535172"><ele>682.0</ele><time>2026-04-04T13:07:03.933Z</time></trkpt><trkpt lat="-25.02043636972871" lon="-53.351639998522195"><ele>681.0</ele><time>2026-04-04T13:07:06.933Z</time></trkpt><trkpt lat="-25.02040238469067" lon="-53.351573649992915"><ele>680.0</ele><time>2026-04-04T13:07:09.932Z</time></trkpt><trkpt lat="-25.020404651012907" lon="-53.35150004674404"><ele>680.0</ele><time>2026-04-04T13:07:13.932Z</time></trkpt><trkpt lat="-25.02038062173912" lon="-53.35142139118447"><ele>680.0</ele><time>2026-04-04T13:07:18.932Z</time></trkpt><trkpt lat="-25.020352269191164" lon="-53.35134306166978"><ele>680.0</ele><time>2026-04-04T13:07:24.932Z</time></trkpt><trkpt lat="-25.020288597756718" lon="-53.35135502836047"><ele>680.0</ele><time>2026-04-04T13:07:31.932Z</time></trkpt><trkpt lat="-25.02020255836843" lon="-53.35127314642423"><ele>680.0</ele><time>2026-04-04T13:07:57.932Z</time></trkpt><trkpt lat="-25.020171550271318" lon="-53.35136887369664"><ele>680.0</ele><time>2026-04-04T13:10:41.931Z</time></trkpt><trkpt lat="-25.020198075834216" lon="-53.351252062387815"><ele>680.0</ele><time>2026-04-04T13:12:32.929Z</time></trkpt><trkpt lat="-25.020196663907587" lon="-53.35133539501756"><ele>680.0</ele><time>2026-04-04T13:13:46.928Z</time></trkpt><trkpt lat="-25.020179364557727" lon="-53.35143428907407"><ele>680.0</ele><time>2026-04-04T13:15:00.928Z</time></trkpt><trkpt lat="-25.020158407773714" lon="-53.35150436819466"><ele>680.0</ele><time>2026-04-04T13:15:19.928Z</time></trkpt><trkpt lat="-25.020099543593197" lon="-53.35155190176093"><ele>680.0</ele><time>2026-04-04T13:15:22.928Z</time></trkpt><trkpt lat="-25.0200543971184" lon="-53.35160546939859"><ele>680.0</ele><time>2026-04-04T13:15:27.928Z</time></trkpt><trkpt lat="-25.020001853408274" lon="-53.35164755979273"><ele>680.0</ele><time>2026-04-04T13:15:32.928Z</time></trkpt><trkpt lat="-25.01996154337533" lon="-53.351710671741"><ele>680.2857142857143</ele><time>2026-04-04T13:15:37.928Z</time></trkpt><trkpt lat="-25.019937990745795" lon="-53.351778673963004"><ele>680.5714285714286</ele><time>2026-04-04T13:15:42.928Z</time></trkpt><trkpt lat="-25.019883586144356" lon="-53.35183379601"><ele>680.8571428571429</ele><time>2026-04-04T13:15:46.928Z</time></trkpt><trkpt lat="-25.019827316307868" lon="-53.3518759566667"><ele>681.1428571428571</ele><time>2026-04-04T13:15:50.927Z</time></trkpt><trkpt lat="-25.019757126153433" lon="-53.35189619087024"><ele>681.4285714285714</ele><time>2026-04-04T13:15:54.927Z</time></trkpt><trkpt lat="-25.0197070034021" lon="-53.351970464427794"><ele>681.7142857142857</ele><time>2026-04-04T13:15:57.927Z</time></trkpt><trkpt lat="-25.01966126975621" lon="-53.352019075878275"><ele>682.0</ele><time>2026-04-04T13:16:00.927Z</time></trkpt><trkpt lat="-25.019573417336872" lon="-53.35203934266734"><ele>682.0</ele><time>2026-04-04T13:16:03.927Z</time></trkpt><trkpt lat="-25.019523692065103" lon="-53.35211993271993"><ele>682.0</ele><time>2026-04-04T13:16:06.927Z</time></trkpt><trkpt lat="-25.01946573392911" lon="-53.35220100819398"><ele>682.0</ele><time>2026-04-04T13:16:09.927Z</time></trkpt><trkpt lat="-25.01943142084766" lon="-53.3522722397843"><ele>682.0</ele><time>2026-04-04T13:16:12.927Z</time></trkpt><trkpt lat="-25.019112660375036" lon="-53.35245489192263"><ele>682.8333333333334</ele><time>2026-04-04T13:16:13.927Z</time></trkpt><trkpt lat="-25.01902414247409" lon="-53.35246389195765"><ele>683.6666666666667</ele><time>2026-04-04T13:16:15.927Z</time></trkpt><trkpt lat="-25.018951930105885" lon="-53.35247019058038"><ele>684.5</ele><time>2026-04-04T13:16:18.927Z</time></trkpt><trkpt lat="-25.018890693968206" lon="-53.35245075868611"><ele>685.3333333333334</ele><time>2026-04-04T13:16:21.927Z</time></trkpt><trkpt lat="-25.01882090794268" lon="-53.352469038622296"><ele>686.1666666666666</ele><time>2026-04-04T13:16:25.927Z</time></trkpt><trkpt lat="-25.018746880991838" lon="-53.35245379396874"><ele>687.0</ele><time>2026-04-04T13:16:28.927Z</time></trkpt><trkpt lat="-25.01866543562501" lon="-53.35243641992998"><ele>687.0</ele><time>2026-04-04T13:16:30.927Z</time></trkpt><trkpt lat="-25.018759136366928" lon="-53.35241225725276"><ele>687.0</ele><time>2026-04-04T13:16:31.927Z</time></trkpt><trkpt lat="-25.01869175534791" lon="-53.35237161647937"><ele>687.0</ele><time>2026-04-04T13:16:33.927Z</time></trkpt><trkpt lat="-25.01879293911414" lon="-53.35230303868477"><ele>687.0</ele><time>2026-04-04T13:16:36.927Z</time></trkpt><trkpt lat="-25.018731175292828" lon="-53.35227313153661"><ele>687.0</ele><time>2026-04-04T13:16:38.927Z</time></trkpt><trkpt lat="-25.01867982148803" lon="-53.35222481166842"><ele>687.0</ele><time>2026-04-04T13:16:40.927Z</time></trkpt><trkpt lat="-25.018635072114357" lon="-53.352171332403955"><ele>686.8333333333334</ele><time>2026-04-04T13:16:43.927Z</time></trkpt><trkpt lat="-25.018599993198468" lon="-53.35209116298762"><ele>686.6666666666666</ele><time>2026-04-04T13:16:45.927Z</time></trkpt><trkpt lat="-25.01859285979477" lon="-53.35198552460061"><ele>686.5</ele><time>2026-04-04T13:16:48.927Z</time></trkpt><trkpt lat="-25.018579772106765" lon="-53.351914889591015"><ele>686.3333333333333</ele><time>2026-04-04T13:16:52.927Z</time></trkpt><trkpt lat="-25.018611285542132" lon="-53.35185143688743"><ele>686.1666666666666</ele><time>2026-04-04T13:16:54.926Z</time></trkpt><trkpt lat="-25.01860178435952" lon="-53.351771271703576"><ele>686.0</ele><time>2026-04-04T13:16:57.927Z</time></trkpt><trkpt lat="-25.018582931501836" lon="-53.35168429270942"><ele>686.0</ele><time>2026-04-04T13:17:00.926Z</time></trkpt><trkpt lat="-25.01856595046411" lon="-53.35160157310473"><ele>686.0</ele><time>2026-04-04T13:17:03.926Z</time></trkpt><trkpt lat="-25.018581976155808" lon="-53.351527034252996"><ele>686.0</ele><time>2026-04-04T13:17:05.926Z</time></trkpt><trkpt lat="-25.018609671807717" lon="-53.351434150793125"><ele>686.0</ele><time>2026-04-04T13:17:08.926Z</time></trkpt><trkpt lat="-25.018591889743064" lon="-53.35136115313638"><ele>686.0</ele><time>2026-04-04T13:17:10.926Z</time></trkpt><trkpt lat="-25.018569403495547" lon="-53.351269378655346"><ele>686.0</ele><time>2026-04-04T13:17:13.926Z</time></trkpt><trkpt lat="-25.018507510054054" lon="-53.3512500477695"><ele>685.6666666666666</ele><time>2026-04-04T13:17:17.926Z</time></trkpt><trkpt lat="-25.018450573585643" lon="-53.35128756210779"><ele>685.3333333333333</ele><time>2026-04-04T13:17:22.926Z</time></trkpt><trkpt lat="-25.018384179595063" lon="-53.35126824731173"><ele>685.0</ele><time>2026-04-04T13:17:24.926Z</time></trkpt><trkpt lat="-25.018317752028537" lon="-53.351235665765486"><ele>684.6666666666666</ele><time>2026-04-04T13:17:26.926Z</time></trkpt><trkpt lat="-25.018252571433823" lon="-53.35117162317861"><ele>684.3333333333334</ele><time>2026-04-04T13:17:29.926Z</time></trkpt><trkpt lat="-25.018257289571004" lon="-53.35107358433536"><ele>684.0</ele><time>2026-04-04T13:17:32.926Z</time></trkpt><trkpt lat="-25.018235443054152" lon="-53.35100219867709"><ele>683.9999999999999</ele><time>2026-04-04T13:17:34.926Z</time></trkpt><trkpt lat="-25.01826400060226" lon="-53.35092286653165"><ele>684.0</ele><time>2026-04-04T13:17:37.926Z</time></trkpt><trkpt lat="-25.01830681366804" lon="-53.350870912838886"><ele>684.0</ele><time>2026-04-04T13:17:39.926Z</time></trkpt><trkpt lat="-25.018366080274664" lon="-53.35081967127984"><ele>684.0</ele><time>2026-04-04T13:17:42.926Z</time></trkpt><trkpt lat="-25.01839733739108" lon="-53.35073115081872"><ele>684.0</ele><time>2026-04-04T13:17:47.926Z</time></trkpt><trkpt lat="-25.018421783358143" lon="-53.35065727427434"><ele>683.9999999999999</ele><time>2026-04-04T13:17:50.926Z</time></trkpt><trkpt lat="-25.018434822663767" lon="-53.35058734579518"><ele>684.0</ele><time>2026-04-04T13:17:52.926Z</time></trkpt><trkpt lat="-25.01847383816966" lon="-53.35050857933732"><ele>682.0</ele><time>2026-04-04T13:17:55.926Z</time></trkpt><trkpt lat="-25.018509506724907" lon="-53.35044026816442"><ele>680.0</ele><time>2026-04-04T13:17:58.926Z</time></trkpt><trkpt lat="-25.018538571538144" lon="-53.35034248598824"><ele>678.0</ele><time>2026-04-04T13:18:01.925Z</time></trkpt><trkpt lat="-25.018559649309385" lon="-53.35025244915939"><ele>676.0</ele><time>2026-04-04T13:18:04.925Z</time></trkpt><trkpt lat="-25.01854567033701" lon="-53.350167634859886"><ele>674.0</ele><time>2026-04-04T13:18:06.925Z</time></trkpt><trkpt lat="-25.018599339856852" lon="-53.34991640805786"><ele>674.0</ele><time>2026-04-04T13:18:08.925Z</time></trkpt><trkpt lat="-25.018602377844136" lon="-53.34983125217223"><ele>674.0</ele><time>2026-04-04T13:18:10.925Z</time></trkpt><trkpt lat="-25.018590136730896" lon="-53.34975590069532"><ele>674.0</ele><time>2026-04-04T13:18:12.925Z</time></trkpt><trkpt lat="-25.01856397531002" lon="-53.349682065483115"><ele>674.0</ele><time>2026-04-04T13:18:14.925Z</time></trkpt><trkpt lat="-25.01859436842319" lon="-53.34975087886949"><ele>674.0</ele><time>2026-04-04T13:18:23.925Z</time></trkpt><trkpt lat="-25.018598795913785" lon="-53.34987181022772"><ele>674.0</ele><time>2026-04-04T13:18:24.925Z</time></trkpt><trkpt lat="-25.018548964996075" lon="-53.349983028070596"><ele>674.0</ele><time>2026-04-04T13:18:26.925Z</time></trkpt><trkpt lat="-25.018495760708706" lon="-53.3500864810039"><ele>674.0</ele><time>2026-04-04T13:18:28.925Z</time></trkpt><trkpt lat="-25.01850678078703" lon="-53.350160141473225"><ele>674.0</ele><time>2026-04-04T13:18:30.925Z</time></trkpt><trkpt lat="-25.01844944578698" lon="-53.350222276159556"><ele>674.0</ele><time>2026-04-04T13:18:35.925Z</time></trkpt><trkpt lat="-25.01840851556815" lon="-53.350285762127236"><ele>674.0</ele><time>2026-04-04T13:18:38.925Z</time></trkpt><trkpt lat="-25.01834692360822" lon="-53.35034834310285"><ele>674.0</ele><time>2026-04-04T13:18:42.925Z</time></trkpt><trkpt lat="-25.018287895587733" lon="-53.350395433460484"><ele>674.5</ele><time>2026-04-04T13:18:45.925Z</time></trkpt><trkpt lat="-25.01823450673228" lon="-53.35046898315116"><ele>675.0</ele><time>2026-04-04T13:18:48.925Z</time></trkpt><trkpt lat="-25.01816193183149" lon="-53.35054537218771"><ele>675.5</ele><time>2026-04-04T13:18:50.925Z</time></trkpt><trkpt lat="-25.018104525612504" lon="-53.350589589963725"><ele>676.0</ele><time>2026-04-04T13:18:51.925Z</time></trkpt><trkpt lat="-25.01803549163232" lon="-53.35064249593295"><ele>676.5</ele><time>2026-04-04T13:18:54.926Z</time></trkpt><trkpt lat="-25.01799938016739" lon="-53.35072482705977"><ele>677.0</ele><time>2026-04-04T13:18:57.925Z</time></trkpt><trkpt lat="-25.017923905828884" lon="-53.35078686720445"><ele>678.1666666666666</ele><time>2026-04-04T13:18:59.925Z</time></trkpt><trkpt lat="-25.017863117537956" lon="-53.350842840210966"><ele>679.3333333333333</ele><time>2026-04-04T13:19:02.925Z</time></trkpt><trkpt lat="-25.017807680715222" lon="-53.35087715486255"><ele>680.5</ele><time>2026-04-04T13:19:04.925Z</time></trkpt><trkpt lat="-25.017761806906083" lon="-53.350959817810484"><ele>681.6666666666666</ele><time>2026-04-04T13:19:06.925Z</time></trkpt><trkpt lat="-25.017697649471614" lon="-53.35100380129592"><ele>682.8333333333334</ele><time>2026-04-04T13:19:09.925Z</time></trkpt><trkpt lat="-25.01764492481128" lon="-53.35107117209061"><ele>684.0</ele><time>2026-04-04T13:19:12.925Z</time></trkpt><trkpt lat="-25.017582842840643" lon="-53.351130655920365"><ele>684.0</ele><time>2026-04-04T13:19:15.925Z</time></trkpt><trkpt lat="-25.017509224153173" lon="-53.351178815006485"><ele>684.0</ele><time>2026-04-04T13:19:18.925Z</time></trkpt><trkpt lat="-25.01743076105008" lon="-53.35119271771412"><ele>684.0</ele><time>2026-04-04T13:19:21.925Z</time></trkpt><trkpt lat="-25.017361210897647" lon="-53.3512302484383"><ele>684.0</ele><time>2026-04-04T13:19:24.925Z</time></trkpt><trkpt lat="-25.01730338317271" lon="-53.35126844035637"><ele>684.0</ele><time>2026-04-04T13:19:26.925Z</time></trkpt><trkpt lat="-25.01723395193777" lon="-53.35129227385406"><ele>684.0</ele><time>2026-04-04T13:19:28.925Z</time></trkpt><trkpt lat="-25.01715000230009" lon="-53.35134861063535"><ele>685.9999999999999</ele><time>2026-04-04T13:19:30.925Z</time></trkpt><trkpt lat="-25.01709280783322" lon="-53.35139696114752"><ele>688.0</ele><time>2026-04-04T13:19:32.925Z</time></trkpt><trkpt lat="-25.017020680813676" lon="-53.35141502280702"><ele>690.0</ele><time>2026-04-04T13:19:36.925Z</time></trkpt><trkpt lat="-25.016955104967934" lon="-53.35142878063162"><ele>692.0</ele><time>2026-04-04T13:19:40.925Z</time></trkpt><trkpt lat="-25.016894276580373" lon="-53.351457102454056"><ele>694.0</ele><time>2026-04-04T13:19:45.925Z</time></trkpt><trkpt lat="-25.016832284457788" lon="-53.3514833775771"><ele>695.9999999999999</ele><time>2026-04-04T13:19:52.925Z</time></trkpt><trkpt lat="-25.0167515932676" lon="-53.35149490314077"><ele>698.0</ele><time>2026-04-04T13:20:09.924Z</time></trkpt><trkpt lat="-25.016677992587145" lon="-53.35153766642845"><ele>698.3333333333333</ele><time>2026-04-04T13:20:15.924Z</time></trkpt><trkpt lat="-25.016595203530603" lon="-53.35152351193983"><ele>698.6666666666666</ele><time>2026-04-04T13:20:20.924Z</time></trkpt><trkpt lat="-25.016524413358596" lon="-53.351489853546866"><ele>699.0</ele><time>2026-04-04T13:20:24.924Z</time></trkpt><trkpt lat="-25.016457404311257" lon="-53.35148287359233"><ele>699.3333333333334</ele><time>2026-04-04T13:20:26.924Z</time></trkpt><trkpt lat="-25.016426380525118" lon="-53.351416905696524"><ele>699.6666666666667</ele><time>2026-04-04T13:20:30.924Z</time></trkpt><trkpt lat="-25.016387723682218" lon="-53.35135937109633"><ele>700.0</ele><time>2026-04-04T13:20:35.924Z</time></trkpt><trkpt lat="-25.01643714962165" lon="-53.35126816266838"><ele>699.3333333333334</ele><time>2026-04-04T13:20:40.924Z</time></trkpt><trkpt lat="-25.01645845402926" lon="-53.351194474223966"><ele>698.6666666666667</ele><time>2026-04-04T13:20:43.924Z</time></trkpt><trkpt lat="-25.016495559854018" lon="-53.3511206817691"><ele>698.0</ele><time>2026-04-04T13:20:46.924Z</time></trkpt><trkpt lat="-25.016556598359283" lon="-53.35108510338761"><ele>697.3333333333334</ele><time>2026-04-04T13:20:49.924Z</time></trkpt><trkpt lat="-25.016612652809375" lon="-53.351036916885576"><ele>696.6666666666666</ele><time>2026-04-04T13:20:52.924Z</time></trkpt><trkpt lat="-25.016614487773502" lon="-53.35094728833664"><ele>696.0</ele><time>2026-04-04T13:20:56.924Z</time></trkpt><trkpt lat="-25.0166951783858" lon="-53.35090699739094"><ele>694.8333333333334</ele><time>2026-04-04T13:20:59.924Z</time></trkpt><trkpt lat="-25.016780090004126" lon="-53.35087087627043"><ele>693.6666666666666</ele><time>2026-04-04T13:21:02.924Z</time></trkpt><trkpt lat="-25.01684551782892" lon="-53.35078447554088"><ele>692.5</ele><time>2026-04-04T13:21:05.924Z</time></trkpt><trkpt lat="-25.016861435794436" lon="-53.350691761343256"><ele>691.3333333333333</ele><time>2026-04-04T13:21:09.925Z</time></trkpt><trkpt lat="-25.016839954840655" lon="-53.35062024205484"><ele>690.1666666666666</ele><time>2026-04-04T13:21:12.925Z</time></trkpt><trkpt lat="-25.016846157810186" lon="-53.350549285612686"><ele>689.0</ele><time>2026-04-04T13:21:15.924Z</time></trkpt><trkpt lat="-25.016908649266693" lon="-53.35045659989764"><ele>687.1666666666666</ele><time>2026-04-04T13:21:25.924Z</time></trkpt><trkpt lat="-25.016928326172938" lon="-53.35038139167414"><ele>685.3333333333333</ele><time>2026-04-04T13:21:30.924Z</time></trkpt><trkpt lat="-25.016962996439343" lon="-53.35031172087419"><ele>683.5</ele><time>2026-04-04T13:21:33.924Z</time></trkpt><trkpt lat="-25.01696006041429" lon="-53.35023765755069"><ele>681.6666666666666</ele><time>2026-04-04T13:21:37.924Z</time></trkpt><trkpt lat="-25.01690795128364" lon="-53.35013858939191"><ele>679.8333333333334</ele><time>2026-04-04T13:21:41.924Z</time></trkpt><trkpt lat="-25.016856006050183" lon="-53.35006761549624"><ele>678.0</ele><time>2026-04-04T13:21:43.924Z</time></trkpt><trkpt lat="-25.016844935124084" lon="-53.34998801836326"><ele>678.0</ele><time>2026-04-04T13:21:45.924Z</time></trkpt><trkpt lat="-25.016793659135956" lon="-53.34991146063972"><ele>678.0</ele><time>2026-04-04T13:21:47.924Z</time></trkpt><trkpt lat="-25.016726218059745" lon="-53.349875531856554"><ele>678.0</ele><time>2026-04-04T13:21:49.924Z</time></trkpt><trkpt lat="-25.016707363482347" lon="-53.349806891035925"><ele>678.0</ele><time>2026-04-04T13:21:52.924Z</time></trkpt><trkpt lat="-25.016657711440835" lon="-53.34973763392152"><ele>678.0</ele><time>2026-04-04T13:21:55.924Z</time></trkpt><trkpt lat="-25.016645899866457" lon="-53.349661360772636"><ele>678.0</ele><time>2026-04-04T13:21:58.924Z</time></trkpt><trkpt lat="-25.016583955248173" lon="-53.349619829495474"><ele>678.0</ele><time>2026-04-04T13:22:00.924Z</time></trkpt><trkpt lat="-25.016524830222792" lon="-53.349542060335715"><ele>679.5714285714286</ele><time>2026-04-04T13:22:03.924Z</time></trkpt><trkpt lat="-25.016463337200484" lon="-53.34950211241421"><ele>681.1428571428572</ele><time>2026-04-04T13:22:07.924Z</time></trkpt><trkpt lat="-25.016398205545674" lon="-53.34949829642102"><ele>682.7142857142858</ele><time>2026-04-04T13:22:11.924Z</time></trkpt><trkpt lat="-25.01631871036288" lon="-53.34946484676352"><ele>684.2857142857142</ele><time>2026-04-04T13:22:14.924Z</time></trkpt><trkpt lat="-25.01624703120322" lon="-53.34950172555476"><ele>685.8571428571429</ele><time>2026-04-04T13:22:18.923Z</time></trkpt><trkpt lat="-25.016212638103376" lon="-53.34957498552941"><ele>687.4285714285714</ele><time>2026-04-04T13:22:22.923Z</time></trkpt><trkpt lat="-25.016149569586926" lon="-53.34960653298425"><ele>689.0</ele><time>2026-04-04T13:22:24.923Z</time></trkpt><trkpt lat="-25.016031783762795" lon="-53.34960863751657"><ele>689.0</ele><time>2026-04-04T13:22:37.923Z</time></trkpt><trkpt lat="-25.01590923132305" lon="-53.34962320046121"><ele>689.0</ele><time>2026-04-04T13:23:00.923Z</time></trkpt><trkpt lat="-25.015863758498398" lon="-53.349713595973874"><ele>689.0</ele><time>2026-04-04T13:23:12.923Z</time></trkpt><trkpt lat="-25.015862184475395" lon="-53.34981752790464"><ele>689.0</ele><time>2026-04-04T13:23:16.923Z</time></trkpt><trkpt lat="-25.015827775865347" lon="-53.34992645907016"><ele>689.0</ele><time>2026-04-04T13:23:20.923Z</time></trkpt><trkpt lat="-25.015789795246707" lon="-53.35002990886699"><ele>689.8571428571429</ele><time>2026-04-04T13:23:22.923Z</time></trkpt><trkpt lat="-25.015752875198913" lon="-53.35009155861796"><ele>690.7142857142858</ele><time>2026-04-04T13:23:24.923Z</time></trkpt><trkpt lat="-25.015718926410752" lon="-53.350159467720935"><ele>691.5714285714287</ele><time>2026-04-04T13:23:26.923Z</time></trkpt><trkpt lat="-25.01571239921439" lon="-53.35023394115182"><ele>692.4285714285714</ele><time>2026-04-04T13:23:30.923Z</time></trkpt><trkpt lat="-25.01571903646336" lon="-53.350316810625365"><ele>693.2857142857143</ele><time>2026-04-04T13:23:35.923Z</time></trkpt><trkpt lat="-25.015747661965154" lon="-53.35038584667696"><ele>694.1428571428572</ele><time>2026-04-04T13:23:38.923Z</time></trkpt><trkpt lat="-25.015748085767918" lon="-53.35047559532506"><ele>695.0</ele><time>2026-04-04T13:23:41.922Z</time></trkpt><trkpt lat="-25.015730705935443" lon="-53.350543028406115"><ele>696.5</ele><time>2026-04-04T13:23:43.922Z</time></trkpt><trkpt lat="-25.015707196365067" lon="-53.350615759306756"><ele>698.0</ele><time>2026-04-04T13:23:45.922Z</time></trkpt><trkpt lat="-25.015682581013678" lon="-53.35069386418888"><ele>699.5</ele><time>2026-04-04T13:23:48.922Z</time></trkpt><trkpt lat="-25.015630045808706" lon="-53.350747742350535"><ele>701.0</ele><time>2026-04-04T13:23:50.922Z</time></trkpt><trkpt lat="-25.015565309715587" lon="-53.3507596713526"><ele>702.5</ele><time>2026-04-04T13:23:52.922Z</time></trkpt><trkpt lat="-25.015480965975353" lon="-53.350776304720796"><ele>704.0</ele><time>2026-04-04T13:23:54.922Z</time></trkpt><trkpt lat="-25.015390209443527" lon="-53.35075555009224"><ele>704.0</ele><time>2026-04-04T13:23:57.922Z</time></trkpt><trkpt lat="-25.015304004969156" lon="-53.350744555291584"><ele>704.0</ele><time>2026-04-04T13:24:01.922Z</time></trkpt><trkpt lat="-25.015254092845908" lon="-53.350680140133335"><ele>704.0</ele><time>2026-04-04T13:24:06.922Z</time></trkpt><trkpt lat="-25.015193846458935" lon="-53.35063356780067"><ele>704.0</ele><time>2026-04-04T13:24:10.922Z</time></trkpt><trkpt lat="-25.01512542546157" lon="-53.35057836204495"><ele>704.0</ele><time>2026-04-04T13:24:14.922Z</time></trkpt><trkpt lat="-25.015038946041766" lon="-53.350543681801746"><ele>704.0</ele><time>2026-04-04T13:24:18.922Z</time></trkpt><trkpt lat="-25.014982219800313" lon="-53.35049689790011"><ele>704.3333333333333</ele><time>2026-04-04T13:24:20.922Z</time></trkpt><trkpt lat="-25.01487799182789" lon="-53.3504517010354"><ele>704.6666666666666</ele><time>2026-04-04T13:24:22.922Z</time></trkpt><trkpt lat="-25.014803334613315" lon="-53.350459352568514"><ele>705.0</ele><time>2026-04-04T13:24:23.922Z</time></trkpt><trkpt lat="-25.014721732609527" lon="-53.35046489425468"><ele>705.3333333333334</ele><time>2026-04-04T13:24:24.922Z</time></trkpt><trkpt lat="-25.014646824310642" lon="-53.3504700276715"><ele>705.6666666666667</ele><time>2026-04-04T13:24:27.922Z</time></trkpt><trkpt lat="-25.01456547221956" lon="-53.350477735736"><ele>706.0</ele><time>2026-04-04T13:24:31.922Z</time></trkpt><trkpt lat="-25.01447089973837" lon="-53.35046416675097"><ele>706.0</ele><time>2026-04-04T13:24:37.922Z</time></trkpt><trkpt lat="-25.014329827864543" lon="-53.350446734356"><ele>706.0</ele><time>2026-04-04T13:24:48.922Z</time></trkpt><trkpt lat="-25.01423135858474" lon="-53.35041930778836"><ele>706.0</ele><time>2026-04-04T13:25:09.921Z</time></trkpt><trkpt lat="-25.01419063276224" lon="-53.35035853300576"><ele>706.0</ele><time>2026-04-04T13:25:39.921Z</time></trkpt><trkpt lat="-25.01415982898384" lon="-53.35042064807741"><ele>706.0</ele><time>2026-04-04T13:25:43.921Z</time></trkpt><trkpt lat="-25.014134735728632" lon="-53.35051124143262"><ele>705.4</ele><time>2026-04-04T13:25:48.921Z</time></trkpt><trkpt lat="-25.01407566189673" lon="-53.35057870959024"><ele>704.8</ele><time>2026-04-04T13:25:51.921Z</time></trkpt><trkpt lat="-25.01403382606858" lon="-53.350643512382106"><ele>704.1999999999999</ele><time>2026-04-04T13:25:58.921Z</time></trkpt><trkpt lat="-25.013970197210497" lon="-53.350622517309304"><ele>703.5999999999999</ele><time>2026-04-04T13:26:01.921Z</time></trkpt><trkpt lat="-25.013894637738453" lon="-53.35054022028073"><ele>703.0</ele><time>2026-04-04T13:26:04.921Z</time></trkpt><trkpt lat="-25.013788978926407" lon="-53.35044962196191"><ele>703.0</ele><time>2026-04-04T13:26:07.921Z</time></trkpt><trkpt lat="-25.01374553987506" lon="-53.35038929160477"><ele>703.0</ele><time>2026-04-04T13:26:10.921Z</time></trkpt><trkpt lat="-25.013706222704915" lon="-53.35026233037744"><ele>703.0</ele><time>2026-04-04T13:26:13.921Z</time></trkpt><trkpt lat="-25.013415418147467" lon="-53.349955354280254"><ele>703.0</ele><time>2026-04-04T13:26:15.921Z</time></trkpt><trkpt lat="-25.01336319787682" lon="-53.34991652373518"><ele>703.0</ele><time>2026-04-04T13:26:16.921Z</time></trkpt><trkpt lat="-25.01330782812827" lon="-53.34981204395805"><ele>703.0</ele><time>2026-04-04T13:26:18.921Z</time></trkpt><trkpt lat="-25.013272841327204" lon="-53.34970462065769"><ele>703.0</ele><time>2026-04-04T13:26:20.921Z</time></trkpt><trkpt lat="-25.013255621973503" lon="-53.349596611227405"><ele>703.0</ele><time>2026-04-04T13:26:22.921Z</time></trkpt><trkpt lat="-25.01324113201489" lon="-53.34949514927058"><ele>701.5999999999999</ele><time>2026-04-04T13:26:24.921Z</time></trkpt><trkpt lat="-25.013217765734066" lon="-53.34938547673761"><ele>700.1999999999999</ele><time>2026-04-04T13:26:26.921Z</time></trkpt><trkpt lat="-25.01318727500142" lon="-53.349272926649945"><ele>698.8</ele><time>2026-04-04T13:26:28.921Z</time></trkpt><trkpt lat="-25.01314500475027" lon="-53.349170141044176"><ele>697.4</ele><time>2026-04-04T13:26:30.921Z</time></trkpt><trkpt lat="-25.013123683960863" lon="-53.3490736296672"><ele>696.0</ele><time>2026-04-04T13:26:32.921Z</time></trkpt><trkpt lat="-25.01318030418484" lon="-53.34901378709193"><ele>696.0</ele><time>2026-04-04T13:26:35.921Z</time></trkpt><trkpt lat="-25.01320068399195" lon="-53.34893998878658"><ele>696.0</ele><time>2026-04-04T13:26:37.921Z</time></trkpt><trkpt lat="-25.013271922658014" lon="-53.348897050841664"><ele>696.0</ele><time>2026-04-04T13:26:39.921Z</time></trkpt><trkpt lat="-25.0133236171903" lon="-53.348823285865876"><ele>696.0</ele><time>2026-04-04T13:26:41.92Z</time></trkpt><trkpt lat="-25.0133978803307" lon="-53.348739440393004"><ele>696.0</ele><time>2026-04-04T13:26:43.92Z</time></trkpt><trkpt lat="-25.013449582442814" lon="-53.34869321634206"><ele>696.0</ele><time>2026-04-04T13:26:44.92Z</time></trkpt><trkpt lat="-25.013539856258124" lon="-53.348604626829086"><ele>696.5999999999999</ele><time>2026-04-04T13:26:46.92Z</time></trkpt><trkpt lat="-25.013631226251587" lon="-53.34851792495132"><ele>697.2</ele><time>2026-04-04T13:26:48.92Z</time></trkpt><trkpt lat="-25.013681735664278" lon="-53.3484712874496"><ele>697.8</ele><time>2026-04-04T13:26:49.92Z</time></trkpt><trkpt lat="-25.013768236648975" lon="-53.34837928767996"><ele>698.4000000000001</ele><time>2026-04-04T13:26:51.92Z</time></trkpt><trkpt lat="-25.013836903683046" lon="-53.34827662695382"><ele>699.0</ele><time>2026-04-04T13:26:53.92Z</time></trkpt><trkpt lat="-25.013877033169617" lon="-53.348158270361886"><ele>699.0</ele><time>2026-04-04T13:26:55.92Z</time></trkpt><trkpt lat="-25.013908127520992" lon="-53.34807625681092"><ele>699.0</ele><time>2026-04-04T13:26:57.92Z</time></trkpt><trkpt lat="-25.01397684068067" lon="-53.34803793686947"><ele>699.0</ele><time>2026-04-04T13:27:00.92Z</time></trkpt><trkpt lat="-25.014052340593686" lon="-53.34798614210897"><ele>699.0</ele><time>2026-04-04T13:27:04.92Z</time></trkpt><trkpt lat="-25.014144637595916" lon="-53.347914288489"><ele>699.0</ele><time>2026-04-04T13:27:08.92Z</time></trkpt><trkpt lat="-25.014207636226132" lon="-53.3478499557894"><ele>699.0</ele><time>2026-04-04T13:27:10.92Z</time></trkpt><trkpt lat="-25.01427891214033" lon="-53.34779435374049"><ele>701.0</ele><time>2026-04-04T13:27:14.92Z</time></trkpt><trkpt lat="-25.014347685916444" lon="-53.34774903413037"><ele>703.0</ele><time>2026-04-04T13:27:16.921Z</time></trkpt><trkpt lat="-25.014415858841588" lon="-53.34769797037619"><ele>705.0</ele><time>2026-04-04T13:27:19.921Z</time></trkpt><trkpt lat="-25.01448404076983" lon="-53.347648225960874"><ele>707.0</ele><time>2026-04-04T13:27:22.92Z</time></trkpt><trkpt lat="-25.014523150085537" lon="-53.347565762706274"><ele>709.0</ele><time>2026-04-04T13:27:26.921Z</time></trkpt><trkpt lat="-25.01455359785143" lon="-53.34749370475248"><ele>711.0</ele><time>2026-04-04T13:27:30.921Z</time></trkpt><trkpt lat="-25.014589213692904" lon="-53.34742859859933"><ele>711.0</ele><time>2026-04-04T13:27:33.921Z</time></trkpt><trkpt lat="-25.01465139445895" lon="-53.34737341881387"><ele>711.0</ele><time>2026-04-04T13:27:36.921Z</time></trkpt><trkpt lat="-25.014687874150173" lon="-53.34729672719137"><ele>711.0</ele><time>2026-04-04T13:27:39.921Z</time></trkpt><trkpt lat="-25.014740024190097" lon="-53.34723090062937"><ele>711.0</ele><time>2026-04-04T13:27:42.921Z</time></trkpt><trkpt lat="-25.014812505884393" lon="-53.34722563387572"><ele>711.0</ele><time>2026-04-04T13:27:45.921Z</time></trkpt><trkpt lat="-25.014898918183878" lon="-53.34720302354141"><ele>711.0</ele><time>2026-04-04T13:27:49.921Z</time></trkpt><trkpt lat="-25.01496213001022" lon="-53.347192302292946"><ele>711.0</ele><time>2026-04-04T13:27:51.921Z</time></trkpt><trkpt lat="-25.01504043019906" lon="-53.347186921521505"><ele>711.0</ele><time>2026-04-04T13:27:54.92Z</time></trkpt><trkpt lat="-25.015111304500643" lon="-53.34720995992077"><ele>711.0</ele><time>2026-04-04T13:27:57.92Z</time></trkpt><trkpt lat="-25.015177359482085" lon="-53.34723542771536"><ele>711.0</ele><time>2026-04-04T13:27:59.92Z</time></trkpt><trkpt lat="-25.01524903167714" lon="-53.34727799369882"><ele>711.0</ele><time>2026-04-04T13:28:03.92Z</time></trkpt><trkpt lat="-25.015328475611497" lon="-53.347313305366896"><ele>711.0</ele><time>2026-04-04T13:28:07.92Z</time></trkpt><trkpt lat="-25.015379841337975" lon="-53.347364919187655"><ele>711.0</ele><time>2026-04-04T13:28:09.92Z</time></trkpt><trkpt lat="-25.01541455316413" lon="-53.34743209914577"><ele>711.0</ele><time>2026-04-04T13:28:13.92Z</time></trkpt><trkpt lat="-25.015419953632207" lon="-53.34751061587439"><ele>711.0</ele><time>2026-04-04T13:28:17.92Z</time></trkpt><trkpt lat="-25.01548535227396" lon="-53.34757686698717"><ele>711.0</ele><time>2026-04-04T13:28:21.92Z</time></trkpt><trkpt lat="-25.015538171129073" lon="-53.34762477796751"><ele>711.0</ele><time>2026-04-04T13:28:23.92Z</time></trkpt><trkpt lat="-25.015622861883504" lon="-53.34765490789636"><ele>711.0</ele><time>2026-04-04T13:28:26.92Z</time></trkpt><trkpt lat="-25.015702673140925" lon="-53.34769602091261"><ele>711.0</ele><time>2026-04-04T13:28:29.92Z</time></trkpt><trkpt lat="-25.015760550985046" lon="-53.347751785591015"><ele>711.0</ele><time>2026-04-04T13:28:32.92Z</time></trkpt><trkpt lat="-25.01579702324276" lon="-53.34782963159618"><ele>711.0</ele><time>2026-04-04T13:28:35.92Z</time></trkpt><trkpt lat="-25.015813438573886" lon="-53.347911549458466"><ele>711.0</ele><time>2026-04-04T13:28:37.92Z</time></trkpt><trkpt lat="-25.01582208624915" lon="-53.34798288286848"><ele>711.0</ele><time>2026-04-04T13:28:39.92Z</time></trkpt><trkpt lat="-25.015856143869062" lon="-53.348044499380975"><ele>711.0</ele><time>2026-04-04T13:28:41.92Z</time></trkpt><trkpt lat="-25.015903479585425" lon="-53.34811857947085"><ele>711.0</ele><time>2026-04-04T13:28:44.92Z</time></trkpt><trkpt lat="-25.015950339739373" lon="-53.34818424762808"><ele>709.5714285714286</ele><time>2026-04-04T13:28:48.92Z</time></trkpt><trkpt lat="-25.016005180350792" lon="-53.34824068376851"><ele>708.1428571428571</ele><time>2026-04-04T13:28:51.92Z</time></trkpt><trkpt lat="-25.016053758667745" lon="-53.34829256827874"><ele>706.7142857142858</ele><time>2026-04-04T13:28:54.92Z</time></trkpt><trkpt lat="-25.01609931673589" lon="-53.34834194751294"><ele>705.2857142857142</ele><time>2026-04-04T13:28:57.92Z</time></trkpt><trkpt lat="-25.01614813071799" lon="-53.3483933330564"><ele>703.8571428571428</ele><time>2026-04-04T13:28:59.919Z</time></trkpt><trkpt lat="-25.01619506429139" lon="-53.34845068288208"><ele>702.4285714285714</ele><time>2026-04-04T13:29:04.919Z</time></trkpt><trkpt lat="-25.016258060573453" lon="-53.34849045432066"><ele>701.0</ele><time>2026-04-04T13:29:08.919Z</time></trkpt><trkpt lat="-25.016323643730292" lon="-53.348546923824095"><ele>701.0</ele><time>2026-04-04T13:29:11.919Z</time></trkpt><trkpt lat="-25.01638992295672" lon="-53.34856659397701"><ele>701.0</ele><time>2026-04-04T13:29:14.919Z</time></trkpt><trkpt lat="-25.01646649819191" lon="-53.34853941915239"><ele>701.0</ele><time>2026-04-04T13:29:17.919Z</time></trkpt><trkpt lat="-25.016542498051923" lon="-53.34855628143996"><ele>701.0</ele><time>2026-04-04T13:29:20.919Z</time></trkpt><trkpt lat="-25.01664504364195" lon="-53.348603058144576"><ele>701.0</ele><time>2026-04-04T13:29:30.919Z</time></trkpt><trkpt lat="-25.016715851510817" lon="-53.34864373395873"><ele>701.0</ele><time>2026-04-04T13:29:36.919Z</time></trkpt><trkpt lat="-25.016758338757736" lon="-53.34869611635526"><ele>699.2857142857143</ele><time>2026-04-04T13:29:38.919Z</time></trkpt><trkpt lat="-25.016798993917764" lon="-53.34876781528242"><ele>697.5714285714286</ele><time>2026-04-04T13:29:41.919Z</time></trkpt><trkpt lat="-25.016853237263987" lon="-53.34881300144509"><ele>695.8571428571429</ele><time>2026-04-04T13:29:51.919Z</time></trkpt><trkpt lat="-25.0168991671945" lon="-53.348864324361074"><ele>694.1428571428571</ele><time>2026-04-04T13:29:58.919Z</time></trkpt><trkpt lat="-25.016871997569137" lon="-53.34878515586659"><ele>692.4285714285714</ele><time>2026-04-04T13:30:06.919Z</time></trkpt><trkpt lat="-25.016802539513392" lon="-53.34876691250705"><ele>690.7142857142857</ele><time>2026-04-04T13:30:11.918Z</time></trkpt><trkpt lat="-25.01672022271491" lon="-53.34876186786453"><ele>689.0</ele><time>2026-04-04T13:30:14.918Z</time></trkpt><trkpt lat="-25.016655380749743" lon="-53.348710689639915"><ele>691.0</ele><time>2026-04-04T13:30:18.918Z</time></trkpt><trkpt lat="-25.016587454754276" lon="-53.348719053824524"><ele>693.0</ele><time>2026-04-04T13:30:21.918Z</time></trkpt><trkpt lat="-25.016521110069736" lon="-53.348675513969035"><ele>695.0</ele><time>2026-04-04T13:30:24.918Z</time></trkpt><trkpt lat="-25.0164600027356" lon="-53.34863952781687"><ele>697.0</ele><time>2026-04-04T13:30:27.918Z</time></trkpt><trkpt lat="-25.01639137210188" lon="-53.34859859923796"><ele>699.0</ele><time>2026-04-04T13:30:30.918Z</time></trkpt><trkpt lat="-25.016331630482824" lon="-53.34856227566322"><ele>701.0</ele><time>2026-04-04T13:30:33.918Z</time></trkpt><trkpt lat="-25.01625520341917" lon="-53.34850705221784"><ele>701.0</ele><time>2026-04-04T13:30:36.918Z</time></trkpt><trkpt lat="-25.016212865608058" lon="-53.34844909286017"><ele>701.0</ele><time>2026-04-04T13:30:38.918Z</time></trkpt><trkpt lat="-25.016209597871217" lon="-53.348346253392116"><ele>701.0</ele><time>2026-04-04T13:30:40.918Z</time></trkpt><trkpt lat="-25.016143157204688" lon="-53.34829694717999"><ele>701.0</ele><time>2026-04-04T13:30:43.918Z</time></trkpt><trkpt lat="-25.01606888366842" lon="-53.34823833530927"><ele>701.0</ele><time>2026-04-04T13:30:46.918Z</time></trkpt><trkpt lat="-25.01600071607255" lon="-53.348194556036596"><ele>701.0</ele><time>2026-04-04T13:30:50.918Z</time></trkpt><trkpt lat="-25.015944860185673" lon="-53.348120729285604"><ele>701.0</ele><time>2026-04-04T13:30:54.918Z</time></trkpt><trkpt lat="-25.015950387323016" lon="-53.348045827378286"><ele>701.0</ele><time>2026-04-04T13:30:58.918Z</time></trkpt><trkpt lat="-25.015893307657514" lon="-53.34796055490123"><ele>701.0</ele><time>2026-04-04T13:31:01.918Z</time></trkpt><trkpt lat="-25.01585540426946" lon="-53.347900577619086"><ele>701.0</ele><time>2026-04-04T13:31:03.918Z</time></trkpt><trkpt lat="-25.01580827721756" lon="-53.3478340360886"><ele>701.0</ele><time>2026-04-04T13:31:05.918Z</time></trkpt><trkpt lat="-25.01573111463961" lon="-53.34776014058026"><ele>701.0</ele><time>2026-04-04T13:31:07.918Z</time></trkpt><trkpt lat="-25.015705039621253" lon="-53.347691984691366"><ele>702.6666666666666</ele><time>2026-04-04T13:31:09.918Z</time></trkpt><trkpt lat="-25.01563995721039" lon="-53.347619289527806"><ele>704.3333333333333</ele><time>2026-04-04T13:31:11.918Z</time></trkpt><trkpt lat="-25.01557427916224" lon="-53.347576065274616"><ele>706.0</ele><time>2026-04-04T13:31:13.917Z</time></trkpt><trkpt lat="-25.01550394674634" lon="-53.34750518241963"><ele>707.6666666666666</ele><time>2026-04-04T13:31:16.917Z</time></trkpt><trkpt lat="-25.015443765891803" lon="-53.34746846506151"><ele>709.3333333333334</ele><time>2026-04-04T13:31:18.917Z</time></trkpt><trkpt lat="-25.015362866589122" lon="-53.34741112601026"><ele>711.0</ele><time>2026-04-04T13:31:20.917Z</time></trkpt><trkpt lat="-25.015287625993903" lon="-53.34741420639291"><ele>711.0</ele><time>2026-04-04T13:31:22.917Z</time></trkpt><trkpt lat="-25.015221383289425" lon="-53.34748132607727"><ele>711.0</ele><time>2026-04-04T13:31:25.917Z</time></trkpt><trkpt lat="-25.015129944498558" lon="-53.3474446122505"><ele>711.0</ele><time>2026-04-04T13:31:28.918Z</time></trkpt><trkpt lat="-25.01505610726743" lon="-53.347444086767325"><ele>711.0</ele><time>2026-04-04T13:31:32.918Z</time></trkpt><trkpt lat="-25.014993972469604" lon="-53.3474698093484"><ele>711.0</ele><time>2026-04-04T13:31:37.918Z</time></trkpt><trkpt lat="-25.01493682416536" lon="-53.34750302252554"><ele>711.0</ele><time>2026-04-04T13:31:40.917Z</time></trkpt><trkpt lat="-25.014863708980762" lon="-53.347516849765725"><ele>711.0</ele><time>2026-04-04T13:31:44.917Z</time></trkpt><trkpt lat="-25.014802194456536" lon="-53.3475327232342"><ele>711.0</ele><time>2026-04-04T13:31:46.917Z</time></trkpt><trkpt lat="-25.014722652635246" lon="-53.34758731874658"><ele>711.0</ele><time>2026-04-04T13:31:49.917Z</time></trkpt><trkpt lat="-25.014650171484178" lon="-53.347660850152224"><ele>711.0</ele><time>2026-04-04T13:31:52.917Z</time></trkpt><trkpt lat="-25.0145744110027" lon="-53.34771293610616"><ele>711.0</ele><time>2026-04-04T13:31:55.917Z</time></trkpt><trkpt lat="-25.01451932643242" lon="-53.34774789267149"><ele>711.0</ele><time>2026-04-04T13:31:57.917Z</time></trkpt><trkpt lat="-25.01445405489658" lon="-53.34776958647671"><ele>711.0</ele><time>2026-04-04T13:31:59.917Z</time></trkpt><trkpt lat="-25.014399670022225" lon="-53.347840163981296"><ele>711.0</ele><time>2026-04-04T13:32:02.917Z</time></trkpt><trkpt lat="-25.01433404822076" lon="-53.347878980218624"><ele>711.0</ele><time>2026-04-04T13:32:06.917Z</time></trkpt><trkpt lat="-25.014180512146005" lon="-53.347903792365486"><ele>711.0</ele><time>2026-04-04T13:32:21.916Z</time></trkpt><trkpt lat="-25.0141569395821" lon="-53.347972557746104"><ele>711.0</ele><time>2026-04-04T13:32:28.916Z</time></trkpt><trkpt lat="-25.014130830362426" lon="-53.34803671449225"><ele>711.0</ele><time>2026-04-04T13:32:31.916Z</time></trkpt><trkpt lat="-25.014141625585218" lon="-53.348114455893"><ele>710.1428571428571</ele><time>2026-04-04T13:32:35.916Z</time></trkpt><trkpt lat="-25.01419461488692" lon="-53.34815297953783"><ele>709.2857142857142</ele><time>2026-04-04T13:32:49.916Z</time></trkpt><trkpt lat="-25.01423851622221" lon="-53.34820978753131"><ele>708.4285714285713</ele><time>2026-04-04T13:37:06.912Z</time></trkpt><trkpt lat="-25.01428653386399" lon="-53.34825712761287"><ele>707.5714285714286</ele><time>2026-04-04T13:37:22.912Z</time></trkpt><trkpt lat="-25.01435577064412" lon="-53.34824116524698"><ele>706.7142857142857</ele><time>2026-04-04T13:37:30.912Z</time></trkpt><trkpt lat="-25.01441784594424" lon="-53.34826800127836"><ele>705.8571428571428</ele><time>2026-04-04T13:37:34.912Z</time></trkpt><trkpt lat="-25.01448401430994" lon="-53.348283228468894"><ele>705.0</ele><time>2026-04-04T13:37:51.913Z</time></trkpt><trkpt lat="-25.014533552199126" lon="-53.34833203275018"><ele>705.0</ele><time>2026-04-04T13:38:04.912Z</time></trkpt><trkpt lat="-25.01456801677933" lon="-53.34839436206036"><ele>705.0</ele><time>2026-04-04T13:38:23.912Z</time></trkpt><trkpt lat="-25.014639083749422" lon="-53.34840189224312"><ele>705.0</ele><time>2026-04-04T13:38:43.912Z</time></trkpt><trkpt lat="-25.014699087591406" lon="-53.34835386929565"><ele>705.0</ele><time>2026-04-04T13:38:46.912Z</time></trkpt><trkpt lat="-25.014766201300386" lon="-53.34835966583503"><ele>705.0</ele><time>2026-04-04T13:38:48.912Z</time></trkpt><trkpt lat="-25.014855121193197" lon="-53.34836309879331"><ele>705.0</ele><time>2026-04-04T13:38:51.912Z</time></trkpt><trkpt lat="-25.014908686676065" lon="-53.34843295312401"><ele>704.9999999999999</ele><time>2026-04-04T13:38:54.912Z</time></trkpt><trkpt lat="-25.014976927252867" lon="-53.34842989347434"><ele>705.0</ele><time>2026-04-04T13:38:59.911Z</time></trkpt><trkpt lat="-25.015039736495698" lon="-53.34844618206987"><ele>705.0</ele><time>2026-04-04T13:39:02.911Z</time></trkpt><trkpt lat="-25.01509614707057" lon="-53.3484961090888"><ele>705.0</ele><time>2026-04-04T13:39:09.911Z</time></trkpt><trkpt lat="-25.01514591333689" lon="-53.348547881786914"><ele>705.0</ele><time>2026-04-04T13:39:17.911Z</time></trkpt><trkpt lat="-25.015194894554043" lon="-53.34860099162556"><ele>704.9999999999999</ele><time>2026-04-04T13:39:24.911Z</time></trkpt><trkpt lat="-25.0152697969942" lon="-53.348601599665464"><ele>705.0</ele><time>2026-04-04T13:39:30.911Z</time></trkpt><trkpt lat="-25.015327710081074" lon="-53.34865662123141"><ele>704.9999999999999</ele><time>2026-04-04T13:39:34.911Z</time></trkpt><trkpt lat="-25.015384544700296" lon="-53.34870112748255"><ele>705.0</ele><time>2026-04-04T13:39:37.911Z</time></trkpt><trkpt lat="-25.015387438784042" lon="-53.34877801683139"><ele>705.0</ele><time>2026-04-04T13:39:40.911Z</time></trkpt><trkpt lat="-25.015397232895854" lon="-53.348848708004525"><ele>705.0</ele><time>2026-04-04T13:39:45.911Z</time></trkpt><trkpt lat="-25.01538213538108" lon="-53.348933577728694"><ele>705.0</ele><time>2026-04-04T13:39:50.911Z</time></trkpt><trkpt lat="-25.015368115223918" lon="-53.34900597045763"><ele>704.9999999999999</ele><time>2026-04-04T13:39:54.911Z</time></trkpt><trkpt lat="-25.015299554471614" lon="-53.34904042958253"><ele>705.0</ele><time>2026-04-04T13:40:02.911Z</time></trkpt><trkpt lat="-25.01527020552955" lon="-53.349130911182066"><ele>703.1666666666666</ele><time>2026-04-04T13:40:15.911Z</time></trkpt><trkpt lat="-25.015314437245234" lon="-53.34919462809422"><ele>701.3333333333334</ele><time>2026-04-04T13:40:23.911Z</time></trkpt><trkpt lat="-25.015373531777698" lon="-53.349236254348945"><ele>699.5</ele><time>2026-04-04T13:40:27.911Z</time></trkpt><trkpt lat="-25.015400541988306" lon="-53.349302774433845"><ele>697.6666666666667</ele><time>2026-04-04T13:40:40.911Z</time></trkpt><trkpt lat="-25.015413642294746" lon="-53.34939359094795"><ele>695.8333333333334</ele><time>2026-04-04T13:41:02.91Z</time></trkpt><trkpt lat="-25.01547787655814" lon="-53.34946807535433"><ele>694.0</ele><time>2026-04-04T13:42:08.91Z</time></trkpt><trkpt lat="-25.015541560388353" lon="-53.34944548068043"><ele>694.0</ele><time>2026-04-04T13:42:49.909Z</time></trkpt><trkpt lat="-25.015571675075588" lon="-53.34937990552353"><ele>694.0</ele><time>2026-04-04T13:42:58.909Z</time></trkpt><trkpt lat="-25.015595125682342" lon="-53.3493118937746"><ele>694.0</ele><time>2026-04-04T13:43:05.909Z</time></trkpt><trkpt lat="-25.0156238234387" lon="-53.34924791252399"><ele>694.0</ele><time>2026-04-04T13:43:12.909Z</time></trkpt><trkpt lat="-25.01567036363961" lon="-53.34919211864754"><ele>694.0</ele><time>2026-04-04T13:43:19.909Z</time></trkpt><trkpt lat="-25.01572277766925" lon="-53.34915261853515"><ele>694.0</ele><time>2026-04-04T13:43:27.909Z</time></trkpt><trkpt lat="-25.015773227513833" lon="-53.349109934852265"><ele>694.0</ele><time>2026-04-04T13:43:33.909Z</time></trkpt><trkpt lat="-25.01582296854798" lon="-53.349061236105584"><ele>693.2857142857143</ele><time>2026-04-04T13:43:40.908Z</time></trkpt><trkpt lat="-25.015893934026508" lon="-53.34903922733014"><ele>692.5714285714286</ele><time>2026-04-04T13:43:47.908Z</time></trkpt><trkpt lat="-25.01597251409935" lon="-53.34901834825787"><ele>691.8571428571429</ele><time>2026-04-04T13:43:53.908Z</time></trkpt><trkpt lat="-25.016015073101023" lon="-53.348962233087306"><ele>691.1428571428571</ele><time>2026-04-04T13:44:00.908Z</time></trkpt><trkpt lat="-25.016047367647893" lon="-53.34888901370971"><ele>690.4285714285714</ele><time>2026-04-04T13:44:05.909Z</time></trkpt><trkpt lat="-25.016025504401444" lon="-53.34882254286703"><ele>689.7142857142857</ele><time>2026-04-04T13:44:14.909Z</time></trkpt><trkpt lat="-25.016042401944688" lon="-53.348725182477686"><ele>689.0</ele><time>2026-04-04T13:45:23.908Z</time></trkpt><trkpt lat="-25.01591340434175" lon="-53.34871089933798"><ele>690.7142857142857</ele><time>2026-04-04T13:46:07.907Z</time></trkpt><trkpt lat="-25.015864542865057" lon="-53.34865942807447"><ele>692.4285714285714</ele><time>2026-04-04T13:46:20.907Z</time></trkpt><trkpt lat="-25.015874661417325" lon="-53.34858798458635"><ele>694.1428571428571</ele><time>2026-04-04T13:46:25.907Z</time></trkpt><trkpt lat="-25.015827558145865" lon="-53.34854093078887"><ele>695.8571428571429</ele><time>2026-04-04T13:46:30.907Z</time></trkpt><trkpt lat="-25.015784126276024" lon="-53.34848078838176"><ele>697.5714285714286</ele><time>2026-04-04T13:46:36.907Z</time></trkpt><trkpt lat="-25.015764183227613" lon="-53.348409030556105"><ele>699.2857142857143</ele><time>2026-04-04T13:46:41.906Z</time></trkpt><trkpt lat="-25.01573883202233" lon="-53.34833688291477"><ele>701.0</ele><time>2026-04-04T13:46:45.906Z</time></trkpt><trkpt lat="-25.01567622889862" lon="-53.348298185698454"><ele>701.6666666666666</ele><time>2026-04-04T13:46:50.906Z</time></trkpt><trkpt lat="-25.015635014273002" lon="-53.34823467409369"><ele>702.3333333333333</ele><time>2026-04-04T13:46:55.906Z</time></trkpt><trkpt lat="-25.015571594434345" lon="-53.34818497267415"><ele>703.0</ele><time>2026-04-04T13:47:01.906Z</time></trkpt><trkpt lat="-25.015522596080373" lon="-53.348126944621235"><ele>703.6666666666666</ele><time>2026-04-04T13:47:04.906Z</time></trkpt><trkpt lat="-25.01545784721016" lon="-53.348057118913324"><ele>704.3333333333334</ele><time>2026-04-04T13:47:07.906Z</time></trkpt><trkpt lat="-25.01540354023262" lon="-53.34795477430879"><ele>705.0</ele><time>2026-04-04T13:47:11.906Z</time></trkpt><trkpt lat="-25.015369302559304" lon="-53.347888224663016"><ele>706.0</ele><time>2026-04-04T13:47:17.906Z</time></trkpt><trkpt lat="-25.015335176876473" lon="-53.34780057820742"><ele>707.0</ele><time>2026-04-04T13:47:22.906Z</time></trkpt><trkpt lat="-25.015335859294527" lon="-53.34770814467822"><ele>708.0</ele><time>2026-04-04T13:47:25.906Z</time></trkpt><trkpt lat="-25.01535070526691" lon="-53.34762602284788"><ele>709.0</ele><time>2026-04-04T13:47:29.906Z</time></trkpt><trkpt lat="-25.015332314909838" lon="-53.347546073330726"><ele>710.0</ele><time>2026-04-04T13:47:33.906Z</time></trkpt><trkpt lat="-25.015269651865616" lon="-53.34750818087839"><ele>711.0</ele><time>2026-04-04T13:47:39.906Z</time></trkpt><trkpt lat="-25.015206259300335" lon="-53.34752861572712"><ele>711.0</ele><time>2026-04-04T13:47:46.905Z</time></trkpt><trkpt lat="-25.015141961308334" lon="-53.34755287667348"><ele>711.0</ele><time>2026-04-04T13:47:50.905Z</time></trkpt><trkpt lat="-25.015053369939658" lon="-53.347595553025414"><ele>711.0</ele><time>2026-04-04T13:47:54.905Z</time></trkpt><trkpt lat="-25.014978726496743" lon="-53.3476284649197"><ele>711.0</ele><time>2026-04-04T13:47:59.905Z</time></trkpt><trkpt lat="-25.01490233458407" lon="-53.34761751199877"><ele>711.0</ele><time>2026-04-04T13:48:04.905Z</time></trkpt><trkpt lat="-25.0147996918934" lon="-53.347604540772764"><ele>711.0</ele><time>2026-04-04T13:48:12.905Z</time></trkpt><trkpt lat="-25.014698424349586" lon="-53.34762099268854"><ele>711.0</ele><time>2026-04-04T13:48:32.905Z</time></trkpt><trkpt lat="-25.014674236269023" lon="-53.34754475423773"><ele>711.0</ele><time>2026-04-04T13:51:43.903Z</time></trkpt><trkpt lat="-25.014674160419766" lon="-53.347471748832916"><ele>711.0</ele><time>2026-04-04T13:51:48.903Z</time></trkpt><trkpt lat="-25.01467091853336" lon="-53.34740221126537"><ele>711.0</ele><time>2026-04-04T13:51:52.903Z</time></trkpt><trkpt lat="-25.01471446196584" lon="-53.34732738424152"><ele>711.0</ele><time>2026-04-04T13:51:55.903Z</time></trkpt><trkpt lat="-25.014790036350306" lon="-53.34728326122144"><ele>711.0</ele><time>2026-04-04T13:51:57.903Z</time></trkpt><trkpt lat="-25.014786321370483" lon="-53.34720684349632"><ele>711.0</ele><time>2026-04-04T13:51:59.903Z</time></trkpt><trkpt lat="-25.0148700934603" lon="-53.34716820342614"><ele>711.0</ele><time>2026-04-04T13:52:02.903Z</time></trkpt><trkpt lat="-25.01496487729068" lon="-53.34718888950181"><ele>711.0</ele><time>2026-04-04T13:52:05.903Z</time></trkpt><trkpt lat="-25.015066582675036" lon="-53.347197184928376"><ele>711.0</ele><time>2026-04-04T13:52:07.903Z</time></trkpt><trkpt lat="-25.01515107830817" lon="-53.34720159154252"><ele>711.0</ele><time>2026-04-04T13:52:09.903Z</time></trkpt><trkpt lat="-25.01521812541166" lon="-53.347222691171176"><ele>711.0</ele><time>2026-04-04T13:52:12.903Z</time></trkpt><trkpt lat="-25.01528391931421" lon="-53.347244697093025"><ele>711.0</ele><time>2026-04-04T13:52:16.903Z</time></trkpt><trkpt lat="-25.01534742384595" lon="-53.347295959212694"><ele>711.0</ele><time>2026-04-04T13:52:19.903Z</time></trkpt><trkpt lat="-25.015395127285363" lon="-53.34735851037374"><ele>711.0</ele><time>2026-04-04T13:52:22.903Z</time></trkpt><trkpt lat="-25.015402573546883" lon="-53.34743972630329"><ele>711.0</ele><time>2026-04-04T13:52:25.902Z</time></trkpt><trkpt lat="-25.015418166896687" lon="-53.347521762486025"><ele>711.0</ele><time>2026-04-04T13:52:29.903Z</time></trkpt><trkpt lat="-25.015480136354178" lon="-53.347581354834304"><ele>711.0</ele><time>2026-04-04T13:52:32.903Z</time></trkpt><trkpt lat="-25.015543733340714" lon="-53.347609305461624"><ele>711.0</ele><time>2026-04-04T13:52:34.903Z</time></trkpt><trkpt lat="-25.01560886582087" lon="-53.347623155007845"><ele>711.0</ele><time>2026-04-04T13:52:36.903Z</time></trkpt><trkpt lat="-25.015683850070573" lon="-53.347706247544785"><ele>711.0</ele><time>2026-04-04T13:52:39.902Z</time></trkpt><trkpt lat="-25.015705238108335" lon="-53.347787099405096"><ele>711.0</ele><time>2026-04-04T13:52:41.902Z</time></trkpt><trkpt lat="-25.015724264158536" lon="-53.3479072512606"><ele>711.0</ele><time>2026-04-04T13:52:43.902Z</time></trkpt><trkpt lat="-25.015775102581383" lon="-53.347985418712895"><ele>711.0</ele><time>2026-04-04T13:52:45.902Z</time></trkpt><trkpt lat="-25.01581999006946" lon="-53.34806559206752"><ele>711.0</ele><time>2026-04-04T13:52:47.902Z</time></trkpt><trkpt lat="-25.015855681380625" lon="-53.34813543995257"><ele>711.0</ele><time>2026-04-04T13:52:49.902Z</time></trkpt><trkpt lat="-25.015926780979434" lon="-53.348173813195345"><ele>709.3333333333334</ele><time>2026-04-04T13:52:51.902Z</time></trkpt><trkpt lat="-25.015976692066516" lon="-53.34822470087886"><ele>707.6666666666666</ele><time>2026-04-04T13:52:53.902Z</time></trkpt><trkpt lat="-25.016016500426907" lon="-53.348284104218074"><ele>706.0</ele><time>2026-04-04T13:52:55.902Z</time></trkpt><trkpt lat="-25.016071881415236" lon="-53.34834913358792"><ele>704.3333333333333</ele><time>2026-04-04T13:52:58.902Z</time></trkpt><trkpt lat="-25.016120073134463" lon="-53.348411026127906"><ele>702.6666666666666</ele><time>2026-04-04T13:53:00.902Z</time></trkpt><trkpt lat="-25.016237663972984" lon="-53.34840483838357"><ele>701.0</ele><time>2026-04-04T13:53:04.902Z</time></trkpt><trkpt lat="-25.01629126177332" lon="-53.34847017812076"><ele>701.0</ele><time>2026-04-04T13:53:06.902Z</time></trkpt><trkpt lat="-25.016364560759232" lon="-53.34849360874148"><ele>701.0</ele><time>2026-04-04T13:53:10.902Z</time></trkpt><trkpt lat="-25.016448793863724" lon="-53.34851897449063"><ele>701.0</ele><time>2026-04-04T13:53:13.902Z</time></trkpt><trkpt lat="-25.01657476093035" lon="-53.348601191853476"><ele>701.0</ele><time>2026-04-04T13:53:17.902Z</time></trkpt><trkpt lat="-25.01663423083577" lon="-53.34868664481308"><ele>701.0</ele><time>2026-04-04T13:53:18.902Z</time></trkpt><trkpt lat="-25.0166759420225" lon="-53.34876535451255"><ele>699.0</ele><time>2026-04-04T13:53:19.902Z</time></trkpt><trkpt lat="-25.016718969348045" lon="-53.348823578240214"><ele>697.0</ele><time>2026-04-04T13:53:20.902Z</time></trkpt><trkpt lat="-25.016779801563306" lon="-53.34891274113782"><ele>695.0</ele><time>2026-04-04T13:53:22.902Z</time></trkpt><trkpt lat="-25.01685021751054" lon="-53.34899035833459"><ele>693.0</ele><time>2026-04-04T13:53:24.902Z</time></trkpt><trkpt lat="-25.01689609133163" lon="-53.34908322812547"><ele>691.0</ele><time>2026-04-04T13:53:26.902Z</time></trkpt><trkpt lat="-25.016957709152738" lon="-53.34913033641817"><ele>689.0</ele><time>2026-04-04T13:53:28.902Z</time></trkpt><trkpt lat="-25.017012093153934" lon="-53.34922084101832"><ele>688.1666666666666</ele><time>2026-04-04T13:53:31.902Z</time></trkpt><trkpt lat="-25.01707609425135" lon="-53.349294356396946"><ele>687.3333333333333</ele><time>2026-04-04T13:53:33.902Z</time></trkpt><trkpt lat="-25.01713553338223" lon="-53.34935245265067"><ele>686.5</ele><time>2026-04-04T13:53:35.902Z</time></trkpt><trkpt lat="-25.017185796207922" lon="-53.349424301534214"><ele>685.6666666666666</ele><time>2026-04-04T13:53:38.901Z</time></trkpt><trkpt lat="-25.01723157725798" lon="-53.349489451376485"><ele>684.8333333333334</ele><time>2026-04-04T13:53:40.901Z</time></trkpt><trkpt lat="-25.017278632824638" lon="-53.349539897973436"><ele>684.0</ele><time>2026-04-04T13:53:45.901Z</time></trkpt><trkpt lat="-25.017234146595516" lon="-53.34948356019491"><ele>684.0</ele><time>2026-04-04T13:53:53.901Z</time></trkpt><trkpt lat="-25.01720820834589" lon="-53.34941154506309"><ele>684.0</ele><time>2026-04-04T13:53:56.901Z</time></trkpt><trkpt lat="-25.01718250980186" lon="-53.349347626697316"><ele>684.0</ele><time>2026-04-04T13:54:03.901Z</time></trkpt><trkpt lat="-25.01712929592106" lon="-53.34925728465734"><ele>684.0</ele><time>2026-04-04T13:54:10.901Z</time></trkpt><trkpt lat="-25.0170759589731" lon="-53.34917467345133"><ele>684.0</ele><time>2026-04-04T13:54:13.901Z</time></trkpt><trkpt lat="-25.017047219326844" lon="-53.349090325324184"><ele>684.0</ele><time>2026-04-04T13:54:15.901Z</time></trkpt><trkpt lat="-25.016976978275935" lon="-53.34899171111446"><ele>684.0</ele><time>2026-04-04T13:54:17.901Z</time></trkpt><trkpt lat="-25.01694637185057" lon="-53.34889626624898"><ele>684.0</ele><time>2026-04-04T13:54:19.901Z</time></trkpt><trkpt lat="-25.0169169034275" lon="-53.34881974397857"><ele>684.0</ele><time>2026-04-04T13:54:21.901Z</time></trkpt><trkpt lat="-25.01688076002883" lon="-53.34874832731774"><ele>684.0</ele><time>2026-04-04T13:54:23.901Z</time></trkpt><trkpt lat="-25.016846779916083" lon="-53.34868839799599"><ele>684.0</ele><time>2026-04-04T13:54:25.901Z</time></trkpt><trkpt lat="-25.016795863414764" lon="-53.348597325943594"><ele>684.0</ele><time>2026-04-04T13:54:27.901Z</time></trkpt><trkpt lat="-25.01672216996393" lon="-53.34850257539585"><ele>684.8333333333334</ele><time>2026-04-04T13:54:29.901Z</time></trkpt><trkpt lat="-25.016670002986885" lon="-53.34843381784999"><ele>685.6666666666666</ele><time>2026-04-04T13:54:32.901Z</time></trkpt><trkpt lat="-25.016634754351653" lon="-53.3483528489547"><ele>686.5</ele><time>2026-04-04T13:54:34.901Z</time></trkpt><trkpt lat="-25.01659660450228" lon="-53.348261894614765"><ele>687.3333333333333</ele><time>2026-04-04T13:54:36.901Z</time></trkpt><trkpt lat="-25.016551652363702" lon="-53.348197120909695"><ele>688.1666666666666</ele><time>2026-04-04T13:54:39.901Z</time></trkpt><trkpt lat="-25.01650454135179" lon="-53.34810294506571"><ele>689.0</ele><time>2026-04-04T13:54:42.902Z</time></trkpt><trkpt lat="-25.016462603096212" lon="-53.34797016310263"><ele>691.6666666666666</ele><time>2026-04-04T13:54:44.901Z</time></trkpt><trkpt lat="-25.01643689142193" lon="-53.34789735825516"><ele>694.3333333333333</ele><time>2026-04-04T13:54:46.901Z</time></trkpt><trkpt lat="-25.01636591854551" lon="-53.34781481438898"><ele>697.0</ele><time>2026-04-04T13:54:48.901Z</time></trkpt><trkpt lat="-25.016330558365667" lon="-53.34772589563079"><ele>699.6666666666666</ele><time>2026-04-04T13:54:51.901Z</time></trkpt><trkpt lat="-25.016286673389097" lon="-53.34765259774161"><ele>702.3333333333334</ele><time>2026-04-04T13:54:56.901Z</time></trkpt><trkpt lat="-25.016239935409864" lon="-53.34756967259021"><ele>705.0</ele><time>2026-04-04T13:54:59.901Z</time></trkpt><trkpt lat="-25.016205658752476" lon="-53.34751008233953"><ele>704.9999999999999</ele><time>2026-04-04T13:55:03.901Z</time></trkpt><trkpt lat="-25.01614778079547" lon="-53.34746485730659"><ele>705.0</ele><time>2026-04-04T13:55:05.901Z</time></trkpt><trkpt lat="-25.01611353014439" lon="-53.34739185052054"><ele>705.0</ele><time>2026-04-04T13:55:08.901Z</time></trkpt><trkpt lat="-25.016126227067048" lon="-53.34730676537393"><ele>705.0</ele><time>2026-04-04T13:55:12.901Z</time></trkpt><trkpt lat="-25.01613354126311" lon="-53.34723749257526"><ele>705.0</ele><time>2026-04-04T13:55:15.901Z</time></trkpt><trkpt lat="-25.016170460918186" lon="-53.347168580862"><ele>704.9999999999999</ele><time>2026-04-04T13:55:20.901Z</time></trkpt><trkpt lat="-25.01620304667865" lon="-53.34710639721704"><ele>705.0</ele><time>2026-04-04T13:55:23.901Z</time></trkpt><trkpt lat="-25.01623989215174" lon="-53.3470408292508"><ele>706.0</ele><time>2026-04-04T13:55:25.901Z</time></trkpt><trkpt lat="-25.016307870392318" lon="-53.34696131785703"><ele>707.0</ele><time>2026-04-04T13:55:28.901Z</time></trkpt><trkpt lat="-25.016393365450554" lon="-53.3468645612973"><ele>708.0</ele><time>2026-04-04T13:55:30.901Z</time></trkpt><trkpt lat="-25.016457234150256" lon="-53.34683967816419"><ele>709.0</ele><time>2026-04-04T13:55:33.901Z</time></trkpt><trkpt lat="-25.016520563244967" lon="-53.34677525588119"><ele>710.0</ele><time>2026-04-04T13:55:36.901Z</time></trkpt><trkpt lat="-25.016582822838334" lon="-53.34672534663727"><ele>708.6666666666666</ele><time>2026-04-04T13:55:39.901Z</time></trkpt><trkpt lat="-25.01666551847971" lon="-53.3467229996878"><ele>707.3333333333333</ele><time>2026-04-04T13:55:42.901Z</time></trkpt><trkpt lat="-25.016751820026126" lon="-53.34669717917421"><ele>706.0</ele><time>2026-04-04T13:55:45.901Z</time></trkpt><trkpt lat="-25.016821111722425" lon="-53.346667916474914"><ele>704.6666666666666</ele><time>2026-04-04T13:55:48.901Z</time></trkpt><trkpt lat="-25.016905116474593" lon="-53.34663795468745"><ele>703.3333333333334</ele><time>2026-04-04T13:55:52.9Z</time></trkpt><trkpt lat="-25.016946857550312" lon="-53.34656797107923"><ele>702.0</ele><time>2026-04-04T13:55:55.9Z</time></trkpt><trkpt lat="-25.01703518388631" lon="-53.346527889813544"><ele>702.0</ele><time>2026-04-04T13:56:00.9Z</time></trkpt><trkpt lat="-25.017094989095664" lon="-53.34649520041952"><ele>702.0</ele><time>2026-04-04T13:56:03.9Z</time></trkpt><trkpt lat="-25.017185772882744" lon="-53.34646667135054"><ele>702.0</ele><time>2026-04-04T13:56:07.9Z</time></trkpt><trkpt lat="-25.017628902967296" lon="-53.34628331167502"><ele>701.1666666666666</ele><time>2026-04-04T13:56:09.9Z</time></trkpt><trkpt lat="-25.017686572627923" lon="-53.346247107643585"><ele>700.3333333333334</ele><time>2026-04-04T13:56:11.9Z</time></trkpt><trkpt lat="-25.017766755458073" lon="-53.346202612201346"><ele>699.5</ele><time>2026-04-04T13:56:14.9Z</time></trkpt><trkpt lat="-25.017821488032027" lon="-53.34614264311367"><ele>698.6666666666667</ele><time>2026-04-04T13:56:16.9Z</time></trkpt><trkpt lat="-25.017883622547487" lon="-53.34607637436343"><ele>697.8333333333334</ele><time>2026-04-04T13:56:20.9Z</time></trkpt><trkpt lat="-25.01791069968789" lon="-53.34599282287702"><ele>697.0</ele><time>2026-04-04T13:56:23.9Z</time></trkpt><trkpt lat="-25.017959075391918" lon="-53.345933991987394"><ele>697.0</ele><time>2026-04-04T13:56:25.9Z</time></trkpt><trkpt lat="-25.01800618503419" lon="-53.34587166543666"><ele>697.0</ele><time>2026-04-04T13:56:27.9Z</time></trkpt><trkpt lat="-25.018018853218447" lon="-53.345790171642335"><ele>697.0</ele><time>2026-04-04T13:56:30.9Z</time></trkpt><trkpt lat="-25.017863170145727" lon="-53.34580373705312"><ele>697.0</ele><time>2026-04-04T13:56:32.9Z</time></trkpt><trkpt lat="-25.018017559715183" lon="-53.34570507587365"><ele>697.0</ele><time>2026-04-04T13:56:33.9Z</time></trkpt><trkpt lat="-25.018027000361595" lon="-53.34562715822794"><ele>697.0</ele><time>2026-04-04T13:56:35.9Z</time></trkpt><trkpt lat="-25.0180299687321" lon="-53.34553569406104"><ele>697.0</ele><time>2026-04-04T13:56:38.9Z</time></trkpt><trkpt lat="-25.018028017107188" lon="-53.345432123058295"><ele>697.0</ele><time>2026-04-04T13:56:40.9Z</time></trkpt><trkpt lat="-25.01805877219378" lon="-53.34536489255478"><ele>697.0</ele><time>2026-04-04T13:56:41.9Z</time></trkpt><trkpt lat="-25.01805625556025" lon="-53.34516871837548"><ele>696.2857142857143</ele><time>2026-04-04T13:56:42.9Z</time></trkpt><trkpt lat="-25.018121275329385" lon="-53.345113038832075"><ele>695.5714285714286</ele><time>2026-04-04T13:56:43.9Z</time></trkpt><trkpt lat="-25.018178163813676" lon="-53.345068148719825"><ele>694.8571428571429</ele><time>2026-04-04T13:56:44.9Z</time></trkpt><trkpt lat="-25.01821796348488" lon="-53.34501395661184"><ele>694.1428571428571</ele><time>2026-04-04T13:56:45.9Z</time></trkpt><trkpt lat="-25.01827122153289" lon="-53.34493255933389"><ele>693.4285714285714</ele><time>2026-04-04T13:56:47.9Z</time></trkpt><trkpt lat="-25.018285638094724" lon="-53.344852376368635"><ele>692.7142857142857</ele><time>2026-04-04T13:56:50.899Z</time></trkpt><trkpt lat="-25.018300411443573" lon="-53.3447818565029"><ele>692.0</ele><time>2026-04-04T13:56:52.9Z</time></trkpt><trkpt lat="-25.018346690401728" lon="-53.34472771510286"><ele>694.1666666666666</ele><time>2026-04-04T13:56:54.9Z</time></trkpt><trkpt lat="-25.018414708689477" lon="-53.34465363043841"><ele>696.3333333333333</ele><time>2026-04-04T13:56:56.9Z</time></trkpt><trkpt lat="-25.018491002092446" lon="-53.344585985974845"><ele>698.5</ele><time>2026-04-04T13:56:58.9Z</time></trkpt><trkpt lat="-25.01855751148634" lon="-53.34452837386433"><ele>700.6666666666666</ele><time>2026-04-04T13:57:01.9Z</time></trkpt><trkpt lat="-25.018585576883403" lon="-53.34441692153203"><ele>702.8333333333334</ele><time>2026-04-04T13:57:05.899Z</time></trkpt><trkpt lat="-25.01860810143011" lon="-53.34435114441756"><ele>705.0</ele><time>2026-04-04T13:57:08.899Z</time></trkpt><trkpt lat="-25.01861494476502" lon="-53.34426405760466"><ele>705.0</ele><time>2026-04-04T13:57:10.899Z</time></trkpt><trkpt lat="-25.018640725453075" lon="-53.344176713490945"><ele>705.0</ele><time>2026-04-04T13:57:12.899Z</time></trkpt><trkpt lat="-25.018714168976683" lon="-53.34411234527273"><ele>705.0</ele><time>2026-04-04T13:57:15.899Z</time></trkpt><trkpt lat="-25.01876659412879" lon="-53.344059078410965"><ele>705.0</ele><time>2026-04-04T13:57:18.899Z</time></trkpt><trkpt lat="-25.0188273742959" lon="-53.34402767712577"><ele>705.0</ele><time>2026-04-04T13:57:20.899Z</time></trkpt><trkpt lat="-25.018880216613148" lon="-53.34394883846738"><ele>705.0</ele><time>2026-04-04T13:57:23.899Z</time></trkpt><trkpt lat="-25.01892869952668" lon="-53.34390402102901"><ele>705.8333333333334</ele><time>2026-04-04T13:57:25.899Z</time></trkpt><trkpt lat="-25.01896867812411" lon="-53.343849279765855"><ele>706.6666666666666</ele><time>2026-04-04T13:57:27.899Z</time></trkpt><trkpt lat="-25.0189768509388" lon="-53.34376109903636"><ele>707.5</ele><time>2026-04-04T13:57:30.899Z</time></trkpt><trkpt lat="-25.019029687313257" lon="-53.34372323505403"><ele>708.3333333333333</ele><time>2026-04-04T13:57:33.899Z</time></trkpt><trkpt lat="-25.01914369584809" lon="-53.343749239164914"><ele>709.1666666666666</ele><time>2026-04-04T13:57:36.899Z</time></trkpt><trkpt lat="-25.019195270569668" lon="-53.343705127622684"><ele>710.0</ele><time>2026-04-04T13:57:41.899Z</time></trkpt><trkpt lat="-25.019281452816905" lon="-53.34368657956741"><ele>708.1666666666666</ele><time>2026-04-04T13:57:45.899Z</time></trkpt><trkpt lat="-25.019344897344652" lon="-53.34365360458556"><ele>706.3333333333333</ele><time>2026-04-04T13:57:48.899Z</time></trkpt><trkpt lat="-25.01942555065535" lon="-53.34362191854532"><ele>704.5</ele><time>2026-04-04T13:57:51.899Z</time></trkpt><trkpt lat="-25.01944736695508" lon="-53.343538331043526"><ele>702.6666666666666</ele><time>2026-04-04T13:57:54.899Z</time></trkpt><trkpt lat="-25.019421515295207" lon="-53.34343830474228"><ele>700.8333333333334</ele><time>2026-04-04T13:57:59.899Z</time></trkpt><trkpt lat="-25.0194628168474" lon="-53.3433807838073"><ele>699.0</ele><time>2026-04-04T13:58:02.899Z</time></trkpt><trkpt lat="-25.019460312327688" lon="-53.34330019282926"><ele>699.0</ele><time>2026-04-04T13:58:06.899Z</time></trkpt><trkpt lat="-25.019408770885008" lon="-53.34322439601046"><ele>699.0</ele><time>2026-04-04T13:58:10.898Z</time></trkpt><trkpt lat="-25.019360777781305" lon="-53.34317812164096"><ele>699.0</ele><time>2026-04-04T13:58:13.898Z</time></trkpt><trkpt lat="-25.01933197463846" lon="-53.343105778848106"><ele>699.0</ele><time>2026-04-04T13:58:16.898Z</time></trkpt><trkpt lat="-25.019276893194426" lon="-53.3430713841078"><ele>699.0</ele><time>2026-04-04T13:58:18.898Z</time></trkpt><trkpt lat="-25.01926981102378" lon="-53.34299496294809"><ele>699.0</ele><time>2026-04-04T13:58:20.898Z</time></trkpt><trkpt lat="-25.01921180702106" lon="-53.34293285867567"><ele>699.0</ele><time>2026-04-04T13:58:23.898Z</time></trkpt><trkpt lat="-25.019157523749257" lon="-53.34286664148648"><ele>699.0</ele><time>2026-04-04T13:58:26.898Z</time></trkpt><trkpt lat="-25.019154793624743" lon="-53.342786731435375"><ele>699.0</ele><time>2026-04-04T13:58:30.898Z</time></trkpt><trkpt lat="-25.019125202736753" lon="-53.342716708824874"><ele>699.0</ele><time>2026-04-04T13:58:33.898Z</time></trkpt><trkpt lat="-25.019124868989277" lon="-53.34264363468422"><ele>699.0</ele><time>2026-04-04T13:58:36.898Z</time></trkpt><trkpt lat="-25.019109439965344" lon="-53.342571382390254"><ele>699.0</ele><time>2026-04-04T13:58:39.898Z</time></trkpt><trkpt lat="-25.01907571474755" lon="-53.34248319431974"><ele>699.0</ele><time>2026-04-04T13:58:42.898Z</time></trkpt><trkpt lat="-25.01905210772999" lon="-53.34241125790823"><ele>699.0</ele><time>2026-04-04T13:58:45.899Z</time></trkpt><trkpt lat="-25.019011440669374" lon="-53.3423350445944"><ele>700.0</ele><time>2026-04-04T13:58:48.899Z</time></trkpt><trkpt lat="-25.018988228932326" lon="-53.34216077305195"><ele>701.0</ele><time>2026-04-04T13:58:49.898Z</time></trkpt><trkpt lat="-25.01896140033806" lon="-53.34209780317033"><ele>702.0</ele><time>2026-04-04T13:58:51.899Z</time></trkpt><trkpt lat="-25.018898115898846" lon="-53.341995582222246"><ele>703.0</ele><time>2026-04-04T13:58:57.898Z</time></trkpt><trkpt lat="-25.018862576276277" lon="-53.341937182100345"><ele>704.0</ele><time>2026-04-04T13:59:06.899Z</time></trkpt><trkpt lat="-25.018846364924624" lon="-53.34185608914621"><ele>704.0</ele><time>2026-04-04T13:59:10.899Z</time></trkpt><trkpt lat="-25.018852022249103" lon="-53.341782121104444"><ele>704.0</ele><time>2026-04-04T13:59:14.899Z</time></trkpt><trkpt lat="-25.01887823234261" lon="-53.341716280572605"><ele>704.0</ele><time>2026-04-04T13:59:22.899Z</time></trkpt><trkpt lat="-25.018924347989334" lon="-53.34165762017833"><ele>704.0</ele><time>2026-04-04T13:59:30.898Z</time></trkpt><trkpt lat="-25.01896551349522" lon="-53.34159548462795"><ele>704.0</ele><time>2026-04-04T13:59:42.898Z</time></trkpt><trkpt lat="-25.018994349791473" lon="-53.34152568316526"><ele>704.0</ele><time>2026-04-04T14:00:09.898Z</time></trkpt><trkpt lat="-25.019051263421723" lon="-53.34147809418027"><ele>704.0</ele><time>2026-04-04T14:00:20.898Z</time></trkpt><trkpt lat="-25.019082296465047" lon="-53.34141576700523"><ele>704.0</ele><time>2026-04-04T14:00:29.897Z</time></trkpt><trkpt lat="-25.019114965886615" lon="-53.34134141973681"><ele>704.0</ele><time>2026-04-04T14:00:38.897Z</time></trkpt><trkpt lat="-25.01916768860043" lon="-53.341301934738006"><ele>704.0</ele><time>2026-04-04T14:00:46.897Z</time></trkpt><trkpt lat="-25.019214042867983" lon="-53.34124625724769"><ele>704.0</ele><time>2026-04-04T14:01:07.896Z</time></trkpt><trkpt lat="-25.019136443632775" lon="-53.34134994775571"><ele>704.0</ele><time>2026-04-04T14:01:10.896Z</time></trkpt><trkpt lat="-25.01908859587196" lon="-53.3413987562896"><ele>704.0</ele><time>2026-04-04T14:01:11.896Z</time></trkpt><trkpt lat="-25.019011014097305" lon="-53.3414316194283"><ele>704.0</ele><time>2026-04-04T14:01:13.896Z</time></trkpt><trkpt lat="-25.018904731868624" lon="-53.34149402611349"><ele>704.0</ele><time>2026-04-04T14:01:32.896Z</time></trkpt><trkpt lat="-25.01882740531572" lon="-53.341542437910626"><ele>704.0</ele><time>2026-04-04T14:01:36.896Z</time></trkpt><trkpt lat="-25.018767600187502" lon="-53.341570016613744"><ele>704.0</ele><time>2026-04-04T14:01:39.896Z</time></trkpt><trkpt lat="-25.018688579036574" lon="-53.34158809047742"><ele>704.0</ele><time>2026-04-04T14:01:43.896Z</time></trkpt><trkpt lat="-25.018609676618496" lon="-53.341560658324525"><ele>704.0</ele><time>2026-04-04T14:01:46.896Z</time></trkpt><trkpt lat="-25.018537151131024" lon="-53.341547492748965"><ele>704.0</ele><time>2026-04-04T14:01:50.896Z</time></trkpt><trkpt lat="-25.018426371624976" lon="-53.3415393440263"><ele>704.0</ele><time>2026-04-04T14:02:03.895Z</time></trkpt><trkpt lat="-25.018475967206232" lon="-53.34147584575994"><ele>704.0</ele><time>2026-04-04T14:02:15.895Z</time></trkpt><trkpt lat="-25.018489686672623" lon="-53.341390174713396"><ele>704.0</ele><time>2026-04-04T14:02:19.895Z</time></trkpt><trkpt lat="-25.01845285196866" lon="-53.341317604860706"><ele>704.0</ele><time>2026-04-04T14:02:23.895Z</time></trkpt><trkpt lat="-25.018406370456123" lon="-53.34125518219586"><ele>704.0</ele><time>2026-04-04T14:02:28.895Z</time></trkpt><trkpt lat="-25.01837488789594" lon="-53.341180442483946"><ele>702.8333333333333</ele><time>2026-04-04T14:02:31.895Z</time></trkpt><trkpt lat="-25.018358804576234" lon="-53.34107665699657"><ele>701.6666666666666</ele><time>2026-04-04T14:02:34.895Z</time></trkpt><trkpt lat="-25.018353379581647" lon="-53.34100390169995"><ele>700.5</ele><time>2026-04-04T14:02:37.895Z</time></trkpt><trkpt lat="-25.018345537118687" lon="-53.34092218917331"><ele>699.3333333333334</ele><time>2026-04-04T14:02:48.895Z</time></trkpt><trkpt lat="-25.018319997399928" lon="-53.340822125304975"><ele>698.1666666666667</ele><time>2026-04-04T14:03:11.895Z</time></trkpt><trkpt lat="-25.0183697369822" lon="-53.34070668696971"><ele>697.0</ele><time>2026-04-04T14:04:07.894Z</time></trkpt><trkpt lat="-25.01842408330621" lon="-53.3407578158301"><ele>697.0</ele><time>2026-04-04T14:05:13.894Z</time></trkpt><trkpt lat="-25.01850379733203" lon="-53.34079309801787"><ele>697.0</ele><time>2026-04-04T14:05:18.894Z</time></trkpt><trkpt lat="-25.01857556291589" lon="-53.340810837873384"><ele>697.0</ele><time>2026-04-04T14:05:22.894Z</time></trkpt><trkpt lat="-25.018656660086705" lon="-53.34082241400449"><ele>697.0</ele><time>2026-04-04T14:05:24.894Z</time></trkpt><trkpt lat="-25.018752556928803" lon="-53.34083648992925"><ele>697.0</ele><time>2026-04-04T14:05:26.894Z</time></trkpt><trkpt lat="-25.018820796392003" lon="-53.3408796793444"><ele>697.0</ele><time>2026-04-04T14:05:29.894Z</time></trkpt><trkpt lat="-25.018904847159725" lon="-53.340927910167025"><ele>697.0</ele><time>2026-04-04T14:05:49.893Z</time></trkpt><trkpt lat="-25.018832983948794" lon="-53.340899562081184"><ele>697.0</ele><time>2026-04-04T14:06:05.893Z</time></trkpt><trkpt lat="-25.018764004322268" lon="-53.34091550297454"><ele>697.0</ele><time>2026-04-04T14:06:15.893Z</time></trkpt><trkpt lat="-25.018711050542006" lon="-53.34087518149715"><ele>697.0</ele><time>2026-04-04T14:06:28.893Z</time></trkpt><trkpt lat="-25.018715577635998" lon="-53.340781703382554"><ele>697.0</ele><time>2026-04-04T14:06:47.892Z</time></trkpt><trkpt lat="-25.018783212696995" lon="-53.34076461588459"><ele>697.0</ele><time>2026-04-04T14:06:54.892Z</time></trkpt><trkpt lat="-25.018852110911194" lon="-53.340768445758854"><ele>697.0</ele><time>2026-04-04T14:07:01.892Z</time></trkpt><trkpt lat="-25.018912256462276" lon="-53.340808011857206"><ele>697.0</ele><time>2026-04-04T14:07:06.892Z</time></trkpt><trkpt lat="-25.018981960372436" lon="-53.34078785355056"><ele>697.0</ele><time>2026-04-04T14:07:10.893Z</time></trkpt><trkpt lat="-25.019056719030978" lon="-53.34078444811332"><ele>697.0</ele><time>2026-04-04T14:07:16.892Z</time></trkpt><trkpt lat="-25.019115191765884" lon="-53.340811180563136"><ele>697.0</ele><time>2026-04-04T14:07:21.893Z</time></trkpt><trkpt lat="-25.01918237589371" lon="-53.34084035863995"><ele>697.0</ele><time>2026-04-04T14:07:28.892Z</time></trkpt><trkpt lat="-25.019252565077018" lon="-53.34084180070633"><ele>697.0</ele><time>2026-04-04T14:07:32.892Z</time></trkpt><trkpt lat="-25.019333373986072" lon="-53.340798272982646"><ele>697.0</ele><time>2026-04-04T14:07:36.892Z</time></trkpt><trkpt lat="-25.019402016856446" lon="-53.34080450410427"><ele>696.8333333333334</ele><time>2026-04-04T14:07:39.892Z</time></trkpt><trkpt lat="-25.01946346994501" lon="-53.340781721536764"><ele>696.6666666666667</ele><time>2026-04-04T14:07:42.892Z</time></trkpt><trkpt lat="-25.01954066436983" lon="-53.34078764479933"><ele>696.5</ele><time>2026-04-04T14:07:45.892Z</time></trkpt><trkpt lat="-25.0196253104504" lon="-53.34079059499601"><ele>696.3333333333334</ele><time>2026-04-04T14:07:51.892Z</time></trkpt><trkpt lat="-25.01969590144656" lon="-53.34082798008131"><ele>696.1666666666666</ele><time>2026-04-04T14:07:55.892Z</time></trkpt><trkpt lat="-25.019763518273596" lon="-53.34084285799985"><ele>696.0</ele><time>2026-04-04T14:07:58.891Z</time></trkpt><trkpt lat="-25.020105471047653" lon="-53.34091927122622"><ele>697.1666666666666</ele><time>2026-04-04T14:08:01.891Z</time></trkpt><trkpt lat="-25.02017029986066" lon="-53.34095379445916"><ele>698.3333333333334</ele><time>2026-04-04T14:08:03.891Z</time></trkpt><trkpt lat="-25.020226339643962" lon="-53.34103845096678"><ele>699.5</ele><time>2026-04-04T14:08:06.891Z</time></trkpt><trkpt lat="-25.020281715586965" lon="-53.341094310403165"><ele>700.6666666666667</ele><time>2026-04-04T14:08:09.891Z</time></trkpt><trkpt lat="-25.020344323501952" lon="-53.341121510460546"><ele>701.8333333333334</ele><time>2026-04-04T14:08:13.891Z</time></trkpt><trkpt lat="-25.02040304727652" lon="-53.34116067797688"><ele>703.0</ele><time>2026-04-04T14:08:15.891Z</time></trkpt><trkpt lat="-25.02047326911214" lon="-53.34119642924992"><ele>703.0</ele><time>2026-04-04T14:08:17.891Z</time></trkpt><trkpt lat="-25.020552882303985" lon="-53.34121961262643"><ele>703.0</ele><time>2026-04-04T14:08:20.891Z</time></trkpt><trkpt lat="-25.020727992947887" lon="-53.341215962842966"><ele>703.0</ele><time>2026-04-04T14:08:23.891Z</time></trkpt><trkpt lat="-25.020779270657982" lon="-53.34131970991414"><ele>703.0</ele><time>2026-04-04T14:08:26.891Z</time></trkpt><trkpt lat="-25.020855358811573" lon="-53.34143908613098"><ele>702.1666666666667</ele><time>2026-04-04T14:08:29.891Z</time></trkpt><trkpt lat="-25.02087165985907" lon="-53.341546412235644"><ele>701.3333333333334</ele><time>2026-04-04T14:08:32.891Z</time></trkpt><trkpt lat="-25.020934927446284" lon="-53.34159202652155"><ele>700.5</ele><time>2026-04-04T14:08:34.891Z</time></trkpt><trkpt lat="-25.020972961537524" lon="-53.34165984083751"><ele>699.6666666666666</ele><time>2026-04-04T14:08:36.891Z</time></trkpt><trkpt lat="-25.021028098808117" lon="-53.341726982506614"><ele>698.8333333333333</ele><time>2026-04-04T14:08:39.891Z</time></trkpt><trkpt lat="-25.02108983568766" lon="-53.341777688010204"><ele>698.0</ele><time>2026-04-04T14:08:42.891Z</time></trkpt><trkpt lat="-25.021076589534808" lon="-53.34186575856794"><ele>698.0</ele><time>2026-04-04T14:08:45.891Z</time></trkpt><trkpt lat="-25.02109259171036" lon="-53.341954468361784"><ele>698.0</ele><time>2026-04-04T14:08:49.891Z</time></trkpt><trkpt lat="-25.02111344829745" lon="-53.34204017206392"><ele>698.0</ele><time>2026-04-04T14:08:52.891Z</time></trkpt><trkpt lat="-25.02108455310578" lon="-53.34210396278675"><ele>698.0</ele><time>2026-04-04T14:08:54.891Z</time></trkpt><trkpt lat="-25.02107829205521" lon="-53.34219073623861"><ele>698.0</ele><time>2026-04-04T14:08:57.891Z</time></trkpt><trkpt lat="-25.02107274576951" lon="-53.342284393461476"><ele>698.0</ele><time>2026-04-04T14:09:00.891Z</time></trkpt><trkpt lat="-25.02108802606869" lon="-53.34235935728136"><ele>696.6666666666666</ele><time>2026-04-04T14:09:04.89Z</time></trkpt><trkpt lat="-25.021122689606663" lon="-53.342488194456735"><ele>695.3333333333333</ele><time>2026-04-04T14:09:05.89Z</time></trkpt><trkpt lat="-25.021150828470333" lon="-53.34256788327309"><ele>694.0</ele><time>2026-04-04T14:09:09.89Z</time></trkpt><trkpt lat="-25.021209634515685" lon="-53.34262602547462"><ele>692.6666666666666</ele><time>2026-04-04T14:09:12.89Z</time></trkpt><trkpt lat="-25.021276979603492" lon="-53.3426695619728"><ele>691.3333333333334</ele><time>2026-04-04T14:09:14.89Z</time></trkpt><trkpt lat="-25.021343529575432" lon="-53.34271834603966"><ele>690.0</ele><time>2026-04-04T14:09:16.892Z</time></trkpt><trkpt lat="-25.021411451134533" lon="-53.34272956622648"><ele>690.0</ele><time>2026-04-04T14:09:18.891Z</time></trkpt><trkpt lat="-25.021488961974423" lon="-53.34275893179383"><ele>690.0</ele><time>2026-04-04T14:09:20.891Z</time></trkpt><trkpt lat="-25.021568342874527" lon="-53.34278290112633"><ele>690.0</ele><time>2026-04-04T14:09:22.891Z</time></trkpt><trkpt lat="-25.021653426060983" lon="-53.342775457272545"><ele>690.0</ele><time>2026-04-04T14:09:25.891Z</time></trkpt><trkpt lat="-25.021724330206585" lon="-53.34281517323655"><ele>690.0</ele><time>2026-04-04T14:09:27.891Z</time></trkpt><trkpt lat="-25.02180260812398" lon="-53.342778925857814"><ele>690.0</ele><time>2026-04-04T14:09:29.892Z</time></trkpt><trkpt lat="-25.02189530572866" lon="-53.34281040502789"><ele>692.6</ele><time>2026-04-04T14:09:31.892Z</time></trkpt><trkpt lat="-25.021972953950666" lon="-53.342856975537984"><ele>695.2</ele><time>2026-04-04T14:09:33.892Z</time></trkpt><trkpt lat="-25.02209182734721" lon="-53.34289945908439"><ele>697.8</ele><time>2026-04-04T14:09:34.892Z</time></trkpt><trkpt lat="-25.02215825863507" lon="-53.34299549682079"><ele>700.4</ele><time>2026-04-04T14:09:36.891Z</time></trkpt><trkpt lat="-25.02222404055001" lon="-53.34305057232571"><ele>703.0</ele><time>2026-04-04T14:09:38.891Z</time></trkpt><trkpt lat="-25.022270421715035" lon="-53.34312791925048"><ele>703.3333333333334</ele><time>2026-04-04T14:09:41.891Z</time></trkpt><trkpt lat="-25.022303164994298" lon="-53.34319798610264"><ele>703.6666666666667</ele><time>2026-04-04T14:09:43.891Z</time></trkpt><trkpt lat="-25.022332783700875" lon="-53.343262961145946"><ele>704.0</ele><time>2026-04-04T14:09:47.891Z</time></trkpt><trkpt lat="-25.022302939847293" lon="-53.34317326419021"><ele>704.3333333333334</ele><time>2026-04-04T14:09:55.891Z</time></trkpt><trkpt lat="-25.022330918182487" lon="-53.34325219272967"><ele>704.6666666666666</ele><time>2026-04-04T14:10:18.891Z</time></trkpt><trkpt lat="-25.022269184908353" lon="-53.3433197949444"><ele>705.0</ele><time>2026-04-04T14:10:21.891Z</time></trkpt><trkpt lat="-25.022207664356305" lon="-53.34341518533299"><ele>705.0</ele><time>2026-04-04T14:10:24.891Z</time></trkpt><trkpt lat="-25.022141238478856" lon="-53.34342438414878"><ele>705.0</ele><time>2026-04-04T14:10:26.891Z</time></trkpt><trkpt lat="-25.022073251858146" lon="-53.343370574643366"><ele>705.0</ele><time>2026-04-04T14:10:29.891Z</time></trkpt><trkpt lat="-25.02198865505448" lon="-53.34340160725627"><ele>705.0</ele><time>2026-04-04T14:10:32.891Z</time></trkpt><trkpt lat="-25.021970234422835" lon="-53.34349854735882"><ele>705.0</ele><time>2026-04-04T14:10:35.891Z</time></trkpt><trkpt lat="-25.02190381634293" lon="-53.34352484858474"><ele>705.0</ele><time>2026-04-04T14:10:37.891Z</time></trkpt><trkpt lat="-25.021872289693682" lon="-53.34362202064968"><ele>704.9999999999999</ele><time>2026-04-04T14:10:40.89Z</time></trkpt><trkpt lat="-25.02183174953848" lon="-53.34369063661841"><ele>705.0</ele><time>2026-04-04T14:10:43.89Z</time></trkpt><trkpt lat="-25.021775567462686" lon="-53.343764489506704"><ele>705.0</ele><time>2026-04-04T14:10:46.89Z</time></trkpt><trkpt lat="-25.021707031079885" lon="-53.34381826936109"><ele>705.0</ele><time>2026-04-04T14:10:48.89Z</time></trkpt><trkpt lat="-25.021693850753092" lon="-53.34388731200034"><ele>705.0</ele><time>2026-04-04T14:10:51.89Z</time></trkpt><trkpt lat="-25.02167646698485" lon="-53.343960797558196"><ele>704.9999999999999</ele><time>2026-04-04T14:10:55.89Z</time></trkpt><trkpt lat="-25.021656003011206" lon="-53.34402724828545"><ele>705.0</ele><time>2026-04-04T14:10:57.89Z</time></trkpt><trkpt lat="-25.021645902165538" lon="-53.34412358456809"><ele>704.8571428571428</ele><time>2026-04-04T14:11:00.89Z</time></trkpt><trkpt lat="-25.02165220112033" lon="-53.3441964339684"><ele>704.7142857142857</ele><time>2026-04-04T14:11:03.89Z</time></trkpt><trkpt lat="-25.02158796988093" lon="-53.34428550359887"><ele>704.5714285714286</ele><time>2026-04-04T14:11:06.89Z</time></trkpt><trkpt lat="-25.02155115812805" lon="-53.34434266921803"><ele>704.4285714285713</ele><time>2026-04-04T14:11:08.89Z</time></trkpt><trkpt lat="-25.02148543475515" lon="-53.3443884742147"><ele>704.2857142857142</ele><time>2026-04-04T14:11:11.89Z</time></trkpt><trkpt lat="-25.021414209488828" lon="-53.344388038937865"><ele>704.1428571428571</ele><time>2026-04-04T14:11:13.89Z</time></trkpt><trkpt lat="-25.021351783836575" lon="-53.344403564449685"><ele>704.0</ele><time>2026-04-04T14:11:15.89Z</time></trkpt><trkpt lat="-25.021291760647344" lon="-53.34443434008202"><ele>703.3333333333333</ele><time>2026-04-04T14:11:17.89Z</time></trkpt><trkpt lat="-25.021216384799" lon="-53.34443890895351"><ele>702.6666666666666</ele><time>2026-04-04T14:11:20.89Z</time></trkpt><trkpt lat="-25.02115432353533" lon="-53.344498005818934"><ele>702.0</ele><time>2026-04-04T14:11:23.89Z</time></trkpt><trkpt lat="-25.021101250841486" lon="-53.34458896148802"><ele>701.3333333333334</ele><time>2026-04-04T14:11:25.89Z</time></trkpt><trkpt lat="-25.02104396176014" lon="-53.344661537446896"><ele>700.6666666666667</ele><time>2026-04-04T14:11:27.89Z</time></trkpt><trkpt lat="-25.02100194084592" lon="-53.34474337114082"><ele>700.0</ele><time>2026-04-04T14:11:29.89Z</time></trkpt><trkpt lat="-25.020937773207866" lon="-53.34476670437951"><ele>700.0</ele><time>2026-04-04T14:11:31.89Z</time></trkpt><trkpt lat="-25.020886123767053" lon="-53.34485716329793"><ele>700.0</ele><time>2026-04-04T14:11:33.89Z</time></trkpt><trkpt lat="-25.02080355232489" lon="-53.34485506216512"><ele>700.0</ele><time>2026-04-04T14:11:35.889Z</time></trkpt><trkpt lat="-25.02070255583403" lon="-53.34484040506253"><ele>700.0</ele><time>2026-04-04T14:11:37.889Z</time></trkpt><trkpt lat="-25.02063785677466" lon="-53.34483772991047"><ele>700.0</ele><time>2026-04-04T14:11:39.889Z</time></trkpt><trkpt lat="-25.020573802625666" lon="-53.344806510388324"><ele>700.0</ele><time>2026-04-04T14:11:41.889Z</time></trkpt><trkpt lat="-25.020509699572646" lon="-53.344796943261265"><ele>697.2</ele><time>2026-04-04T14:11:43.889Z</time></trkpt><trkpt lat="-25.020444652505972" lon="-53.34474388249518"><ele>694.4</ele><time>2026-04-04T14:11:45.889Z</time></trkpt><trkpt lat="-25.02036436947143" lon="-53.344787419387515"><ele>691.5999999999999</ele><time>2026-04-04T14:11:47.889Z</time></trkpt><trkpt lat="-25.02028838157027" lon="-53.34482603772577"><ele>688.8</ele><time>2026-04-04T14:11:49.889Z</time></trkpt><trkpt lat="-25.020185577993253" lon="-53.34481827525514"><ele>686.0</ele><time>2026-04-04T14:11:51.889Z</time></trkpt><trkpt lat="-25.02007906330167" lon="-53.344838013015696"><ele>686.0</ele><time>2026-04-04T14:11:53.889Z</time></trkpt><trkpt lat="-25.020007410346263" lon="-53.344856412626385"><ele>686.0</ele><time>2026-04-04T14:11:54.889Z</time></trkpt><trkpt lat="-25.01990951367619" lon="-53.344854719369316"><ele>686.0</ele><time>2026-04-04T14:11:56.889Z</time></trkpt><trkpt lat="-25.019850787639903" lon="-53.34489044428252"><ele>686.0</ele><time>2026-04-04T14:11:58.889Z</time></trkpt><trkpt lat="-25.01977441627262" lon="-53.34488989953704"><ele>686.0</ele><time>2026-04-04T14:12:00.889Z</time></trkpt><trkpt lat="-25.019686478814638" lon="-53.34488821537046"><ele>686.0</ele><time>2026-04-04T14:12:03.889Z</time></trkpt><trkpt lat="-25.019601023507573" lon="-53.344867819468845"><ele>685.5</ele><time>2026-04-04T14:12:05.889Z</time></trkpt><trkpt lat="-25.01951533477142" lon="-53.344905357775716"><ele>685.0</ele><time>2026-04-04T14:12:08.889Z</time></trkpt><trkpt lat="-25.019485922747755" lon="-53.3449701761177"><ele>684.5</ele><time>2026-04-04T14:12:11.889Z</time></trkpt><trkpt lat="-25.019405173245183" lon="-53.345030491318866"><ele>684.0</ele><time>2026-04-04T14:12:13.889Z</time></trkpt><trkpt lat="-25.019427511392017" lon="-53.34512740627407"><ele>683.5</ele><time>2026-04-04T14:12:15.889Z</time></trkpt><trkpt lat="-25.01946074459611" lon="-53.345202784747634"><ele>683.0</ele><time>2026-04-04T14:12:24.889Z</time></trkpt><trkpt lat="-25.01948576608257" lon="-53.34527789375463"><ele>683.0</ele><time>2026-04-04T14:12:28.889Z</time></trkpt><trkpt lat="-25.01949314898231" lon="-53.345356603894125"><ele>683.0</ele><time>2026-04-04T14:12:32.889Z</time></trkpt><trkpt lat="-25.019501553389063" lon="-53.345427540966845"><ele>683.0</ele><time>2026-04-04T14:12:35.888Z</time></trkpt><trkpt lat="-25.019480800719904" lon="-53.34550271020784"><ele>683.0</ele><time>2026-04-04T14:12:39.888Z</time></trkpt><trkpt lat="-25.019518044228686" lon="-53.345574814315874"><ele>683.0</ele><time>2026-04-04T14:12:42.888Z</time></trkpt><trkpt lat="-25.01956343786737" lon="-53.345636750281685"><ele>683.0</ele><time>2026-04-04T14:12:45.888Z</time></trkpt><trkpt lat="-25.01963518145615" lon="-53.34568358457212"><ele>683.0</ele><time>2026-04-04T14:12:48.888Z</time></trkpt><trkpt lat="-25.019643435884653" lon="-53.34576586049483"><ele>682.8571428571429</ele><time>2026-04-04T14:12:51.888Z</time></trkpt><trkpt lat="-25.01968476419053" lon="-53.34582738721024"><ele>682.7142857142857</ele><time>2026-04-04T14:12:52.888Z</time></trkpt><trkpt lat="-25.019753752404323" lon="-53.34584631920258"><ele>682.5714285714286</ele><time>2026-04-04T14:12:55.888Z</time></trkpt><trkpt lat="-25.01983589879934" lon="-53.34587100976997"><ele>682.4285714285714</ele><time>2026-04-04T14:12:57.888Z</time></trkpt><trkpt lat="-25.019898125774873" lon="-53.34589076802775"><ele>682.2857142857143</ele><time>2026-04-04T14:13:00.888Z</time></trkpt><trkpt lat="-25.019951252688454" lon="-53.3459619416"><ele>682.1428571428571</ele><time>2026-04-04T14:13:03.888Z</time></trkpt><trkpt lat="-25.0200174482581" lon="-53.34599786383806"><ele>682.0</ele><time>2026-04-04T14:13:06.888Z</time></trkpt><trkpt lat="-25.02011262970189" lon="-53.34604122284561"><ele>683.8333333333334</ele><time>2026-04-04T14:13:08.888Z</time></trkpt><trkpt lat="-25.020188992227432" lon="-53.345999589734795"><ele>685.6666666666667</ele><time>2026-04-04T14:13:10.888Z</time></trkpt><trkpt lat="-25.02028309621403" lon="-53.346006173567744"><ele>687.5</ele><time>2026-04-04T14:13:13.888Z</time></trkpt><trkpt lat="-25.020367326970078" lon="-53.34600526578002"><ele>689.3333333333334</ele><time>2026-04-04T14:13:16.888Z</time></trkpt><trkpt lat="-25.020438862831245" lon="-53.34599441123786"><ele>691.1666666666666</ele><time>2026-04-04T14:13:19.888Z</time></trkpt><trkpt lat="-25.020523009994644" lon="-53.34598119255017"><ele>693.0</ele><time>2026-04-04T14:13:22.888Z</time></trkpt><trkpt lat="-25.020592637732854" lon="-53.345958770956365"><ele>693.0</ele><time>2026-04-04T14:13:25.888Z</time></trkpt><trkpt lat="-25.020658927995274" lon="-53.34592487268627"><ele>693.0</ele><time>2026-04-04T14:13:29.889Z</time></trkpt><trkpt lat="-25.020729490773313" lon="-53.34588811572287"><ele>693.0</ele><time>2026-04-04T14:13:32.888Z</time></trkpt><trkpt lat="-25.020799842469806" lon="-53.34590302647216"><ele>693.0</ele><time>2026-04-04T14:13:34.889Z</time></trkpt><trkpt lat="-25.020866078022014" lon="-53.345874993474254"><ele>693.0</ele><time>2026-04-04T14:13:37.888Z</time></trkpt><trkpt lat="-25.020926515456964" lon="-53.34585283207127"><ele>693.0</ele><time>2026-04-04T14:13:40.888Z</time></trkpt><trkpt lat="-25.02106351534003" lon="-53.34581111447015"><ele>694.1666666666666</ele><time>2026-04-04T14:13:44.888Z</time></trkpt><trkpt lat="-25.021118846955062" lon="-53.345737723777944"><ele>695.3333333333334</ele><time>2026-04-04T14:13:46.888Z</time></trkpt><trkpt lat="-25.021169237455084" lon="-53.34563784890663"><ele>696.5</ele><time>2026-04-04T14:13:49.888Z</time></trkpt><trkpt lat="-25.0212166745302" lon="-53.34558897289913"><ele>697.6666666666667</ele><time>2026-04-04T14:13:51.888Z</time></trkpt><trkpt lat="-25.02125964355799" lon="-53.345534583719115"><ele>698.8333333333334</ele><time>2026-04-04T14:13:53.888Z</time></trkpt><trkpt lat="-25.021322361716855" lon="-53.34551290489584"><ele>700.0</ele><time>2026-04-04T14:13:55.888Z</time></trkpt><trkpt lat="-25.021398885088633" lon="-53.34551341423657"><ele>700.0</ele><time>2026-04-04T14:13:58.888Z</time></trkpt><trkpt lat="-25.021460501576104" lon="-53.34554384213097"><ele>700.0</ele><time>2026-04-04T14:14:00.888Z</time></trkpt><trkpt lat="-25.02152966625798" lon="-53.345592155215726"><ele>700.0</ele><time>2026-04-04T14:14:03.888Z</time></trkpt><trkpt lat="-25.02157019953031" lon="-53.34565525762444"><ele>700.0</ele><time>2026-04-04T14:14:07.888Z</time></trkpt><trkpt lat="-25.021625390757624" lon="-53.345710020037636"><ele>700.0</ele><time>2026-04-04T14:14:10.888Z</time></trkpt><trkpt lat="-25.02166542876175" lon="-53.34576864834434"><ele>700.0</ele><time>2026-04-04T14:14:13.888Z</time></trkpt><trkpt lat="-25.021671166537637" lon="-53.345860235951385"><ele>700.0</ele><time>2026-04-04T14:14:16.888Z</time></trkpt><trkpt lat="-25.02168478602659" lon="-53.34594143189072"><ele>700.5</ele><time>2026-04-04T14:14:19.955Z</time></trkpt><trkpt lat="-25.021604460527797" lon="-53.34600330046193"><ele>701.0</ele><time>2026-04-04T14:14:23.955Z</time></trkpt><trkpt lat="-25.021534407101814" lon="-53.34604451518572"><ele>701.5</ele><time>2026-04-04T14:14:26.955Z</time></trkpt><trkpt lat="-25.02145653506349" lon="-53.3460631532246"><ele>702.0</ele><time>2026-04-04T14:14:28.955Z</time></trkpt><trkpt lat="-25.021384194904623" lon="-53.34607485557578"><ele>702.5</ele><time>2026-04-04T14:14:31.955Z</time></trkpt><trkpt lat="-25.021311569395657" lon="-53.34605955578886"><ele>703.0</ele><time>2026-04-04T14:14:35.955Z</time></trkpt><trkpt lat="-25.02123782224383" lon="-53.34609803759376"><ele>703.0</ele><time>2026-04-04T14:14:38.955Z</time></trkpt><trkpt lat="-25.021185918434963" lon="-53.346164209312974"><ele>703.0</ele><time>2026-04-04T14:14:42.954Z</time></trkpt><trkpt lat="-25.02116221095375" lon="-53.346242504171364"><ele>703.0</ele><time>2026-04-04T14:14:45.954Z</time></trkpt><trkpt lat="-25.02117186608703" lon="-53.3463300444418"><ele>703.0</ele><time>2026-04-04T14:14:48.954Z</time></trkpt><trkpt lat="-25.02114013425235" lon="-53.34641274432244"><ele>703.0</ele><time>2026-04-04T14:14:50.954Z</time></trkpt><trkpt lat="-25.02106295614137" lon="-53.346415998915965"><ele>703.0</ele><time>2026-04-04T14:14:53.954Z</time></trkpt><trkpt lat="-25.021012489746678" lon="-53.34645921667952"><ele>703.1666666666667</ele><time>2026-04-04T14:14:55.954Z</time></trkpt><trkpt lat="-25.02098170450076" lon="-53.34654322892061"><ele>703.3333333333334</ele><time>2026-04-04T14:14:57.954Z</time></trkpt><trkpt lat="-25.020943772618573" lon="-53.346624027176716"><ele>703.5</ele><time>2026-04-04T14:14:59.954Z</time></trkpt><trkpt lat="-25.020872796980985" lon="-53.34665366615378"><ele>703.6666666666666</ele><time>2026-04-04T14:15:01.954Z</time></trkpt><trkpt lat="-25.020812172654885" lon="-53.34669814546032"><ele>703.8333333333333</ele><time>2026-04-04T14:15:03.954Z</time></trkpt><trkpt lat="-25.02078381991551" lon="-53.346770429563406"><ele>704.0</ele><time>2026-04-04T14:15:07.954Z</time></trkpt><trkpt lat="-25.02072065636131" lon="-53.34679784573627"><ele>702.8333333333333</ele><time>2026-04-04T14:15:09.954Z</time></trkpt><trkpt lat="-25.020640887150822" lon="-53.34682492472932"><ele>701.6666666666666</ele><time>2026-04-04T14:15:12.954Z</time></trkpt><trkpt lat="-25.020580903889016" lon="-53.34688389457426"><ele>700.5</ele><time>2026-04-04T14:15:15.954Z</time></trkpt><trkpt lat="-25.020511408691007" lon="-53.34690591655189"><ele>699.3333333333334</ele><time>2026-04-04T14:15:18.954Z</time></trkpt><trkpt lat="-25.020437018661156" lon="-53.34691114321544"><ele>698.1666666666667</ele><time>2026-04-04T14:15:21.954Z</time></trkpt><trkpt lat="-25.020357959637224" lon="-53.346917264714634"><ele>697.0</ele><time>2026-04-04T14:15:24.954Z</time></trkpt><trkpt lat="-25.020275851286478" lon="-53.34693025540953"><ele>697.0</ele><time>2026-04-04T14:15:27.954Z</time></trkpt><trkpt lat="-25.02020018458918" lon="-53.3469033727146"><ele>697.0</ele><time>2026-04-04T14:15:30.954Z</time></trkpt><trkpt lat="-25.020146631016406" lon="-53.3469400733486"><ele>697.0</ele><time>2026-04-04T14:15:32.954Z</time></trkpt><trkpt lat="-25.020100393517108" lon="-53.34700717420629"><ele>697.0</ele><time>2026-04-04T14:15:35.955Z</time></trkpt><trkpt lat="-25.020089945525825" lon="-53.34707586078913"><ele>697.0</ele><time>2026-04-04T14:15:38.955Z</time></trkpt><trkpt lat="-25.019608759381615" lon="-53.3473100382078"><ele>695.1666666666667</ele><time>2026-04-04T14:15:41.955Z</time></trkpt><trkpt lat="-25.019536931396708" lon="-53.34735343065664"><ele>693.3333333333334</ele><time>2026-04-04T14:15:43.954Z</time></trkpt><trkpt lat="-25.019477817521057" lon="-53.347389282489445"><ele>691.5</ele><time>2026-04-04T14:15:45.955Z</time></trkpt><trkpt lat="-25.019391363043578" lon="-53.347456865215406"><ele>689.6666666666666</ele><time>2026-04-04T14:15:47.954Z</time></trkpt><trkpt lat="-25.0193268537357" lon="-53.347520618445984"><ele>687.8333333333333</ele><time>2026-04-04T14:15:51.954Z</time></trkpt><trkpt lat="-25.019277825213454" lon="-53.34758779705982"><ele>686.0</ele><time>2026-04-04T14:15:54.954Z</time></trkpt><trkpt lat="-25.01925654012225" lon="-53.34766196091869"><ele>686.0</ele><time>2026-04-04T14:15:57.954Z</time></trkpt><trkpt lat="-25.019581928369178" lon="-53.347553921016164"><ele>686.0</ele><time>2026-04-04T14:15:59.954Z</time></trkpt><trkpt lat="-25.019538501939532" lon="-53.34762341738178"><ele>686.0</ele><time>2026-04-04T14:16:01.954Z</time></trkpt><trkpt lat="-25.019334748108097" lon="-53.3477522081291"><ele>686.0</ele><time>2026-04-04T14:16:03.954Z</time></trkpt><trkpt lat="-25.019393083551947" lon="-53.34781180954254"><ele>686.0</ele><time>2026-04-04T14:16:07.954Z</time></trkpt><trkpt lat="-25.01947923938236" lon="-53.34780545051442"><ele>686.0</ele><time>2026-04-04T14:16:11.954Z</time></trkpt><trkpt lat="-25.01954835340561" lon="-53.34780268628209"><ele>686.0</ele><time>2026-04-04T14:16:15.954Z</time></trkpt><trkpt lat="-25.019630420758226" lon="-53.34782436587567"><ele>686.0</ele><time>2026-04-04T14:16:18.954Z</time></trkpt><trkpt lat="-25.01969058749511" lon="-53.34785565276779"><ele>686.0</ele><time>2026-04-04T14:16:20.954Z</time></trkpt><trkpt lat="-25.0197693938703" lon="-53.347857859896735"><ele>686.0</ele><time>2026-04-04T14:16:23.954Z</time></trkpt><trkpt lat="-25.01983734183684" lon="-53.34784250586404"><ele>686.0</ele><time>2026-04-04T14:16:26.954Z</time></trkpt><trkpt lat="-25.019932087884484" lon="-53.34782475148147"><ele>686.0</ele><time>2026-04-04T14:16:28.954Z</time></trkpt><trkpt lat="-25.020013961900684" lon="-53.34778250605386"><ele>686.0</ele><time>2026-04-04T14:16:31.954Z</time></trkpt><trkpt lat="-25.020104256360774" lon="-53.347742291783746"><ele>686.0</ele><time>2026-04-04T14:16:33.954Z</time></trkpt><trkpt lat="-25.020168326459004" lon="-53.34773991039215"><ele>686.0</ele><time>2026-04-04T14:16:35.954Z</time></trkpt><trkpt lat="-25.020237972853238" lon="-53.347757624634724"><ele>688.0</ele><time>2026-04-04T14:16:37.954Z</time></trkpt><trkpt lat="-25.02033496779841" lon="-53.347748487930915"><ele>690.0</ele><time>2026-04-04T14:16:40.954Z</time></trkpt><trkpt lat="-25.020396013335727" lon="-53.347786810485054"><ele>692.0</ele><time>2026-04-04T14:16:43.954Z</time></trkpt><trkpt lat="-25.020461326517847" lon="-53.34777174382512"><ele>694.0</ele><time>2026-04-04T14:16:45.954Z</time></trkpt><trkpt lat="-25.020534266467596" lon="-53.347790180924775"><ele>696.0</ele><time>2026-04-04T14:16:48.954Z</time></trkpt><trkpt lat="-25.02059611073686" lon="-53.34782612759447"><ele>698.0</ele><time>2026-04-04T14:16:51.954Z</time></trkpt><trkpt lat="-25.020637960829074" lon="-53.34789216159778"><ele>701.0</ele><time>2026-04-04T14:16:53.954Z</time></trkpt><trkpt lat="-25.020917493168366" lon="-53.34794027975617"><ele>704.0</ele><time>2026-04-04T14:16:55.954Z</time></trkpt><trkpt lat="-25.0210205551685" lon="-53.34794291499136"><ele>707.0</ele><time>2026-04-04T14:16:57.954Z</time></trkpt><trkpt lat="-25.02109675648807" lon="-53.347965409689444"><ele>707.0</ele><time>2026-04-04T14:16:59.954Z</time></trkpt><trkpt lat="-25.021177442475004" lon="-53.34794872788857"><ele>707.0</ele><time>2026-04-04T14:17:01.954Z</time></trkpt><trkpt lat="-25.02123795445501" lon="-53.34797159115583"><ele>707.0</ele><time>2026-04-04T14:17:03.954Z</time></trkpt><trkpt lat="-25.021307872110583" lon="-53.34801868147979"><ele>707.0</ele><time>2026-04-04T14:17:05.954Z</time></trkpt><trkpt lat="-25.021387680587996" lon="-53.34804063707497"><ele>707.0</ele><time>2026-04-04T14:17:07.954Z</time></trkpt><trkpt lat="-25.021459126758195" lon="-53.34803743917119"><ele>707.0</ele><time>2026-04-04T14:17:09.954Z</time></trkpt><trkpt lat="-25.021529901169394" lon="-53.348080484123116"><ele>706.8333333333333</ele><time>2026-04-04T14:17:11.953Z</time></trkpt><trkpt lat="-25.021599471365256" lon="-53.34809315192302"><ele>706.6666666666666</ele><time>2026-04-04T14:17:13.953Z</time></trkpt><trkpt lat="-25.02168495918564" lon="-53.34807395481454"><ele>706.5</ele><time>2026-04-04T14:17:15.953Z</time></trkpt><trkpt lat="-25.021661893149496" lon="-53.347994318429734"><ele>706.3333333333334</ele><time>2026-04-04T14:17:17.953Z</time></trkpt><trkpt lat="-25.02175132479994" lon="-53.347980692648214"><ele>706.1666666666667</ele><time>2026-04-04T14:17:20.953Z</time></trkpt><trkpt lat="-25.02187490598839" lon="-53.34796989266652"><ele>706.0</ele><time>2026-04-04T14:17:22.953Z</time></trkpt><trkpt lat="-25.021939369537932" lon="-53.34793342889789"><ele>707.0</ele><time>2026-04-04T14:17:24.953Z</time></trkpt><trkpt lat="-25.02201299876736" lon="-53.34792241967981"><ele>708.0</ele><time>2026-04-04T14:17:26.953Z</time></trkpt><trkpt lat="-25.022086367833648" lon="-53.34789618215836"><ele>709.0</ele><time>2026-04-04T14:17:29.953Z</time></trkpt><trkpt lat="-25.022142475008476" lon="-53.34786223725533"><ele>710.0</ele><time>2026-04-04T14:17:31.953Z</time></trkpt><trkpt lat="-25.022096338374205" lon="-53.3477648804854"><ele>711.0</ele><time>2026-04-04T14:17:33.953Z</time></trkpt><trkpt lat="-25.02223437381189" lon="-53.347733132916034"><ele>711.0</ele><time>2026-04-04T14:17:35.953Z</time></trkpt><trkpt lat="-25.022364968639188" lon="-53.34771765803995"><ele>711.0</ele><time>2026-04-04T14:17:36.953Z</time></trkpt><trkpt lat="-25.022464408767636" lon="-53.34769197512525"><ele>711.0</ele><time>2026-04-04T14:17:37.953Z</time></trkpt><trkpt lat="-25.02253406127178" lon="-53.34762466433333"><ele>711.0</ele><time>2026-04-04T14:17:39.954Z</time></trkpt><trkpt lat="-25.02262387049276" lon="-53.3476320692255"><ele>711.0</ele><time>2026-04-04T14:17:41.953Z</time></trkpt><trkpt lat="-25.022676544798014" lon="-53.34757940385068"><ele>712.0</ele><time>2026-04-04T14:17:44.953Z</time></trkpt><trkpt lat="-25.0227412311545" lon="-53.347574852975676"><ele>713.0</ele><time>2026-04-04T14:17:50.954Z</time></trkpt><trkpt lat="-25.022771029733136" lon="-53.3474960773335"><ele>714.0</ele><time>2026-04-04T14:18:02.953Z</time></trkpt><trkpt lat="-25.022768717652" lon="-53.34740052450091"><ele>715.0</ele><time>2026-04-04T14:18:07.953Z</time></trkpt><trkpt lat="-25.02274809613694" lon="-53.34727981760712"><ele>716.0</ele><time>2026-04-04T14:18:11.953Z</time></trkpt><trkpt lat="-25.022755293418545" lon="-53.347194559360396"><ele>717.0</ele><time>2026-04-04T14:18:13.953Z</time></trkpt><trkpt lat="-25.022687974113282" lon="-53.34712482517136"><ele>717.0</ele><time>2026-04-04T14:18:15.953Z</time></trkpt><trkpt lat="-25.022695888309055" lon="-53.34704380271522"><ele>717.0</ele><time>2026-04-04T14:18:18.953Z</time></trkpt><trkpt lat="-25.022744594146452" lon="-53.34696195361248"><ele>717.0</ele><time>2026-04-04T14:18:22.953Z</time></trkpt><trkpt lat="-25.022780222684176" lon="-53.346883653127165"><ele>717.0</ele><time>2026-04-04T14:18:26.953Z</time></trkpt><trkpt lat="-25.022785699402615" lon="-53.34681098556371"><ele>717.0</ele><time>2026-04-04T14:18:28.953Z</time></trkpt><trkpt lat="-25.022801033606545" lon="-53.346728761605995"><ele>717.0</ele><time>2026-04-04T14:18:31.953Z</time></trkpt><trkpt lat="-25.02283745617992" lon="-53.34663902427612"><ele>717.0</ele><time>2026-04-04T14:18:34.953Z</time></trkpt><trkpt lat="-25.02285239844832" lon="-53.3465619864423"><ele>717.0</ele><time>2026-04-04T14:18:35.953Z</time></trkpt><trkpt lat="-25.022880161507373" lon="-53.346471518444105"><ele>717.0</ele><time>2026-04-04T14:18:38.953Z</time></trkpt><trkpt lat="-25.02288591737311" lon="-53.34639939517061"><ele>717.0</ele><time>2026-04-04T14:18:40.953Z</time></trkpt><trkpt lat="-25.022932162147335" lon="-53.346349441959504"><ele>717.0</ele><time>2026-04-04T14:18:42.953Z</time></trkpt><trkpt lat="-25.02294140231942" lon="-53.34627226623896"><ele>717.0</ele><time>2026-04-04T14:18:45.953Z</time></trkpt><trkpt lat="-25.022981225267785" lon="-53.34620073415786"><ele>717.0</ele><time>2026-04-04T14:18:48.953Z</time></trkpt><trkpt lat="-25.022972166548044" lon="-53.34608455745955"><ele>717.5</ele><time>2026-04-04T14:18:50.953Z</time></trkpt><trkpt lat="-25.023017169427845" lon="-53.34599714852472"><ele>718.0</ele><time>2026-04-04T14:18:53.953Z</time></trkpt><trkpt lat="-25.02322514029057" lon="-53.34567466463673"><ele>718.0</ele><time>2026-04-04T14:18:55.953Z</time></trkpt><trkpt lat="-25.023163842951295" lon="-53.345792489460436"><ele>718.0</ele><time>2026-04-04T14:18:56.953Z</time></trkpt><trkpt lat="-25.023188578202067" lon="-53.34570095575385"><ele>718.0</ele><time>2026-04-04T14:18:59.953Z</time></trkpt><trkpt lat="-25.023205944235478" lon="-53.345633406171245"><ele>718.0</ele><time>2026-04-04T14:19:01.953Z</time></trkpt><trkpt lat="-25.023251194650598" lon="-53.34555666765568"><ele>718.0</ele><time>2026-04-04T14:19:03.953Z</time></trkpt><trkpt lat="-25.02327581032572" lon="-53.3454861104823"><ele>718.0</ele><time>2026-04-04T14:19:05.953Z</time></trkpt><trkpt lat="-25.02327813097989" lon="-53.34540896597251"><ele>717.8</ele><time>2026-04-04T14:19:07.953Z</time></trkpt><trkpt lat="-25.02331279296616" lon="-53.34531608251425"><ele>717.5999999999999</ele><time>2026-04-04T14:19:09.953Z</time></trkpt><trkpt lat="-25.02334047505959" lon="-53.345252535563134"><ele>717.4000000000001</ele><time>2026-04-04T14:19:11.953Z</time></trkpt><trkpt lat="-25.02337411874229" lon="-53.3451757047317"><ele>717.2</ele><time>2026-04-04T14:19:14.953Z</time></trkpt><trkpt lat="-25.023409009885686" lon="-53.34511281679082"><ele>717.0</ele><time>2026-04-04T14:19:16.953Z</time></trkpt><trkpt lat="-25.02326298099967" lon="-53.345260855191725"><ele>718.75</ele><time>2026-04-04T14:19:18.953Z</time></trkpt><trkpt lat="-25.02345665517269" lon="-53.345055211028544"><ele>720.5</ele><time>2026-04-04T14:19:19.953Z</time></trkpt><trkpt lat="-25.023507592666736" lon="-53.344977084427256"><ele>722.25</ele><time>2026-04-04T14:19:23.953Z</time></trkpt><trkpt lat="-25.02352194602297" lon="-53.344901463586616"><ele>724.0</ele><time>2026-04-04T14:19:26.953Z</time></trkpt><trkpt lat="-25.023559890776436" lon="-53.34483465239277"><ele>724.0</ele><time>2026-04-04T14:19:28.953Z</time></trkpt><trkpt lat="-25.023649977918797" lon="-53.34477662196823"><ele>724.0</ele><time>2026-04-04T14:19:30.953Z</time></trkpt><trkpt lat="-25.023731423968403" lon="-53.344735422537134"><ele>724.0</ele><time>2026-04-04T14:19:32.953Z</time></trkpt><trkpt lat="-25.02377378401709" lon="-53.34467749501545"><ele>724.0</ele><time>2026-04-04T14:19:34.953Z</time></trkpt><trkpt lat="-25.023850576456176" lon="-53.34463618690874"><ele>724.0</ele><time>2026-04-04T14:19:36.953Z</time></trkpt><trkpt lat="-25.023905526244654" lon="-53.34457032077878"><ele>724.0</ele><time>2026-04-04T14:19:38.953Z</time></trkpt><trkpt lat="-25.023955261086183" lon="-53.34449325060639"><ele>723.8000000000001</ele><time>2026-04-04T14:19:40.953Z</time></trkpt><trkpt lat="-25.023960659656304" lon="-53.34438952574131"><ele>723.6</ele><time>2026-04-04T14:19:42.953Z</time></trkpt><trkpt lat="-25.024002678286088" lon="-53.34432020391937"><ele>723.4</ele><time>2026-04-04T14:19:46.954Z</time></trkpt><trkpt lat="-25.024007417953378" lon="-53.344216550221525"><ele>723.2</ele><time>2026-04-04T14:19:49.953Z</time></trkpt><trkpt lat="-25.0240105123855" lon="-53.34412521104818"><ele>723.0</ele><time>2026-04-04T14:19:52.954Z</time></trkpt><trkpt lat="-25.024059515584668" lon="-53.3439856256981"><ele>723.0</ele><time>2026-04-04T14:19:55.953Z</time></trkpt><trkpt lat="-25.024107417056637" lon="-53.34392927563802"><ele>723.0</ele><time>2026-04-04T14:19:57.953Z</time></trkpt><trkpt lat="-25.024180603133367" lon="-53.3437940869342"><ele>723.0</ele><time>2026-04-04T14:19:59.953Z</time></trkpt><trkpt lat="-25.02424478801814" lon="-53.343695218202065"><ele>723.0</ele><time>2026-04-04T14:20:02.953Z</time></trkpt><trkpt lat="-25.024286015421982" lon="-53.343600733806426"><ele>723.0</ele><time>2026-04-04T14:20:05.953Z</time></trkpt><trkpt lat="-25.0243367076343" lon="-53.34354923066557"><ele>724.0</ele><time>2026-04-04T14:20:07.953Z</time></trkpt><trkpt lat="-25.024394584749803" lon="-53.343511099677634"><ele>725.0</ele><time>2026-04-04T14:20:09.953Z</time></trkpt><trkpt lat="-25.02444052399521" lon="-53.343436387969895"><ele>726.0</ele><time>2026-04-04T14:20:12.953Z</time></trkpt><trkpt lat="-25.024478916869853" lon="-53.34337042109066"><ele>727.0</ele><time>2026-04-04T14:20:14.953Z</time></trkpt><trkpt lat="-25.024521469505668" lon="-53.34329327300079"><ele>728.0</ele><time>2026-04-04T14:20:17.953Z</time></trkpt><trkpt lat="-25.024585977268433" lon="-53.34333389761955"><ele>729.0</ele><time>2026-04-04T14:20:20.953Z</time></trkpt><trkpt lat="-25.024665192444733" lon="-53.34327585780422"><ele>729.0</ele><time>2026-04-04T14:20:23.953Z</time></trkpt><trkpt lat="-25.02475110821017" lon="-53.343230339213626"><ele>729.0</ele><time>2026-04-04T14:20:26.953Z</time></trkpt><trkpt lat="-25.024820007657752" lon="-53.34318460753412"><ele>729.0</ele><time>2026-04-04T14:20:30.953Z</time></trkpt><trkpt lat="-25.024907483699874" lon="-53.343119178270534"><ele>729.0</ele><time>2026-04-04T14:20:33.953Z</time></trkpt><trkpt lat="-25.024987936223884" lon="-53.343076104755575"><ele>729.0</ele><time>2026-04-04T14:20:35.953Z</time></trkpt><trkpt lat="-25.02507671384842" lon="-53.34306930903154"><ele>729.1666666666666</ele><time>2026-04-04T14:20:38.953Z</time></trkpt><trkpt lat="-25.02513368329495" lon="-53.3430112764361"><ele>729.3333333333334</ele><time>2026-04-04T14:20:40.953Z</time></trkpt><trkpt lat="-25.025213791923317" lon="-53.34302180293727"><ele>729.5</ele><time>2026-04-04T14:20:42.953Z</time></trkpt><trkpt lat="-25.0252923304741" lon="-53.34298350441399"><ele>729.6666666666667</ele><time>2026-04-04T14:20:45.953Z</time></trkpt><trkpt lat="-25.02535255622398" lon="-53.34296274593279"><ele>729.8333333333334</ele><time>2026-04-04T14:20:48.953Z</time></trkpt><trkpt lat="-25.025368492818664" lon="-53.342878592295286"><ele>730.0</ele><time>2026-04-04T14:20:50.953Z</time></trkpt><trkpt lat="-25.02541998053096" lon="-53.34281495070099"><ele>730.0</ele><time>2026-04-04T14:20:53.953Z</time></trkpt><trkpt lat="-25.02548338166866" lon="-53.34275387517262"><ele>730.0</ele><time>2026-04-04T14:20:56.953Z</time></trkpt><trkpt lat="-25.0255271226773" lon="-53.34269116972396"><ele>730.0</ele><time>2026-04-04T14:20:59.953Z</time></trkpt><trkpt lat="-25.02558021429639" lon="-53.342624908997735"><ele>730.0</ele><time>2026-04-04T14:21:01.953Z</time></trkpt><trkpt lat="-25.025639771981222" lon="-53.342593292991964"><ele>730.0</ele><time>2026-04-04T14:21:02.953Z</time></trkpt><trkpt lat="-25.025707554984507" lon="-53.342595755820874"><ele>730.0</ele><time>2026-04-04T14:21:04.953Z</time></trkpt><trkpt lat="-25.025770663744815" lon="-53.342540346194255"><ele>730.0</ele><time>2026-04-04T14:21:06.953Z</time></trkpt><trkpt lat="-25.025785693607265" lon="-53.34245109307808"><ele>730.0</ele><time>2026-04-04T14:21:09.953Z</time></trkpt><trkpt lat="-25.025769787729583" lon="-53.342383235642835"><ele>730.0</ele><time>2026-04-04T14:21:10.953Z</time></trkpt><trkpt lat="-25.025785940923644" lon="-53.34228769583325"><ele>730.0</ele><time>2026-04-04T14:21:14.953Z</time></trkpt><trkpt lat="-25.02584229813757" lon="-53.34221208997922"><ele>730.0</ele><time>2026-04-04T14:21:17.953Z</time></trkpt><trkpt lat="-25.0258938435973" lon="-53.34216988974665"><ele>730.0</ele><time>2026-04-04T14:21:21.953Z</time></trkpt><trkpt lat="-25.02597837792802" lon="-53.342167373598734"><ele>730.0</ele><time>2026-04-04T14:21:25.953Z</time></trkpt><trkpt lat="-25.026041352918263" lon="-53.342184095804015"><ele>730.0</ele><time>2026-04-04T14:21:28.953Z</time></trkpt><trkpt lat="-25.026095036838342" lon="-53.34222091989281"><ele>730.0</ele><time>2026-04-04T14:21:31.953Z</time></trkpt><trkpt lat="-25.026172363429986" lon="-53.342229421520976"><ele>730.0</ele><time>2026-04-04T14:21:36.952Z</time></trkpt><trkpt lat="-25.026277694450076" lon="-53.34230492862908"><ele>730.0</ele><time>2026-04-04T14:21:38.952Z</time></trkpt><trkpt lat="-25.026343039099853" lon="-53.3423353003561"><ele>730.0</ele><time>2026-04-04T14:21:39.952Z</time></trkpt><trkpt lat="-25.026420409770125" lon="-53.34236606539063"><ele>729.8333333333334</ele><time>2026-04-04T14:21:41.952Z</time></trkpt><trkpt lat="-25.02653745427936" lon="-53.3423860387893"><ele>729.6666666666667</ele><time>2026-04-04T14:21:43.952Z</time></trkpt><trkpt lat="-25.026611851582686" lon="-53.342458150524685"><ele>729.5</ele><time>2026-04-04T14:21:45.952Z</time></trkpt><trkpt lat="-25.02664179373954" lon="-53.34252041198534"><ele>729.3333333333334</ele><time>2026-04-04T14:21:47.952Z</time></trkpt><trkpt lat="-25.026693528884625" lon="-53.34260702574485"><ele>729.1666666666666</ele><time>2026-04-04T14:21:50.952Z</time></trkpt><trkpt lat="-25.02673471164816" lon="-53.342668992005905"><ele>729.0</ele><time>2026-04-04T14:21:52.953Z</time></trkpt><trkpt lat="-25.026775739730724" lon="-53.34274094693828"><ele>728.1666666666666</ele><time>2026-04-04T14:21:54.953Z</time></trkpt><trkpt lat="-25.026803356627106" lon="-53.34280713265595"><ele>727.3333333333334</ele><time>2026-04-04T14:21:56.953Z</time></trkpt><trkpt lat="-25.026853159687075" lon="-53.34289118592544"><ele>726.5</ele><time>2026-04-04T14:21:59.952Z</time></trkpt><trkpt lat="-25.02688720808617" lon="-53.3429510876647"><ele>725.6666666666667</ele><time>2026-04-04T14:22:04.953Z</time></trkpt><trkpt lat="-25.026934821466906" lon="-53.34301583824297"><ele>724.8333333333334</ele><time>2026-04-04T14:22:10.953Z</time></trkpt><trkpt lat="-25.02695889398369" lon="-53.34308788359431"><ele>724.0</ele><time>2026-04-04T14:22:17.953Z</time></trkpt><trkpt lat="-25.02702077934471" lon="-53.34317044669603"><ele>723.1666666666667</ele><time>2026-04-04T14:22:27.953Z</time></trkpt><trkpt lat="-25.027082940098456" lon="-53.34324355311871"><ele>722.3333333333334</ele><time>2026-04-04T14:22:45.953Z</time></trkpt><trkpt lat="-25.027121401041857" lon="-53.34330651425337"><ele>721.5</ele><time>2026-04-04T14:27:29.952Z</time></trkpt><trkpt lat="-25.027170014337905" lon="-53.34338891269702"><ele>720.6666666666666</ele><time>2026-04-04T14:27:32.952Z</time></trkpt><trkpt lat="-25.027192356024877" lon="-53.34347008967286"><ele>719.8333333333333</ele><time>2026-04-04T14:27:35.952Z</time></trkpt><trkpt lat="-25.02722696015216" lon="-53.34355285331105"><ele>719.0</ele><time>2026-04-04T14:27:38.952Z</time></trkpt><trkpt lat="-25.02720469856558" lon="-53.34361903077683"><ele>718.9999999999999</ele><time>2026-04-04T14:27:41.952Z</time></trkpt><trkpt lat="-25.027233895468456" lon="-53.34368843479353"><ele>719.0</ele><time>2026-04-04T14:27:46.952Z</time></trkpt><trkpt lat="-25.02724839996783" lon="-53.34376187571402"><ele>719.0</ele><time>2026-04-04T14:27:49.951Z</time></trkpt><trkpt lat="-25.0272806410751" lon="-53.34383247085018"><ele>719.0</ele><time>2026-04-04T14:27:53.951Z</time></trkpt><trkpt lat="-25.02731140664664" lon="-53.3439020536488"><ele>719.0</ele><time>2026-04-04T14:27:58.951Z</time></trkpt><trkpt lat="-25.027359581547696" lon="-53.34394795619027"><ele>718.9999999999999</ele><time>2026-04-04T14:28:02.951Z</time></trkpt><trkpt lat="-25.027391083802467" lon="-53.34402056362102"><ele>719.0</ele><time>2026-04-04T14:28:07.951Z</time></trkpt><trkpt lat="-25.027441673656735" lon="-53.34410220501318"><ele>717.8333333333333</ele><time>2026-04-04T14:28:10.952Z</time></trkpt><trkpt lat="-25.027453263224576" lon="-53.34418517481553"><ele>716.6666666666666</ele><time>2026-04-04T14:28:12.951Z</time></trkpt><trkpt lat="-25.0274820023266" lon="-53.34430771301048"><ele>715.5</ele><time>2026-04-04T14:28:15.952Z</time></trkpt><trkpt lat="-25.02746994985523" lon="-53.34438029919509"><ele>714.3333333333334</ele><time>2026-04-04T14:28:18.952Z</time></trkpt><trkpt lat="-25.02745055169306" lon="-53.34444768291096"><ele>713.1666666666667</ele><time>2026-04-04T14:28:20.951Z</time></trkpt><trkpt lat="-25.027424110386228" lon="-53.34452173242804"><ele>712.0</ele><time>2026-04-04T14:28:22.951Z</time></trkpt><trkpt lat="-25.027397932181316" lon="-53.344603855501674"><ele>711.9999999999999</ele><time>2026-04-04T14:28:26.951Z</time></trkpt><trkpt lat="-25.027391241680476" lon="-53.34467765568786"><ele>712.0</ele><time>2026-04-04T14:28:29.951Z</time></trkpt><trkpt lat="-25.027382361379825" lon="-53.34477648811054"><ele>712.0</ele><time>2026-04-04T14:28:32.951Z</time></trkpt><trkpt lat="-25.02739747470599" lon="-53.34484610817975"><ele>712.0</ele><time>2026-04-04T14:28:35.951Z</time></trkpt><trkpt lat="-25.02740272564526" lon="-53.34491645845466"><ele>712.0</ele><time>2026-04-04T14:28:37.951Z</time></trkpt><trkpt lat="-25.02742297703214" lon="-53.3449865708016"><ele>711.9999999999999</ele><time>2026-04-04T14:28:39.951Z</time></trkpt><trkpt lat="-25.027453742516787" lon="-53.345050584212224"><ele>712.0</ele><time>2026-04-04T14:28:42.951Z</time></trkpt><trkpt lat="-25.027440933310558" lon="-53.34514440759881"><ele>710.8333333333334</ele><time>2026-04-04T14:28:46.951Z</time></trkpt><trkpt lat="-25.02745375062048" lon="-53.34522804919108"><ele>709.6666666666667</ele><time>2026-04-04T14:28:49.951Z</time></trkpt><trkpt lat="-25.02746480064596" lon="-53.345297885086666"><ele>708.5</ele><time>2026-04-04T14:28:52.951Z</time></trkpt><trkpt lat="-25.027432072694296" lon="-53.34540784211619"><ele>707.3333333333334</ele><time>2026-04-04T14:28:55.951Z</time></trkpt><trkpt lat="-25.027393846793203" lon="-53.34547898045944"><ele>706.1666666666666</ele><time>2026-04-04T14:28:58.951Z</time></trkpt><trkpt lat="-25.02739004415544" lon="-53.345548977052204"><ele>705.0</ele><time>2026-04-04T14:29:04.951Z</time></trkpt><trkpt lat="-25.027368585266586" lon="-53.34562499048275"><ele>703.8333333333334</ele><time>2026-04-04T14:29:08.951Z</time></trkpt><trkpt lat="-25.027391886238245" lon="-53.34569409176318"><ele>702.6666666666666</ele><time>2026-04-04T14:29:12.951Z</time></trkpt><trkpt lat="-25.02746782413963" lon="-53.34573317805969"><ele>701.5</ele><time>2026-04-04T14:29:15.951Z</time></trkpt><trkpt lat="-25.027531385046416" lon="-53.345780264275334"><ele>700.3333333333333</ele><time>2026-04-04T14:29:18.951Z</time></trkpt><trkpt lat="-25.02755428304471" lon="-53.345898495799204"><ele>699.1666666666666</ele><time>2026-04-04T14:29:35.951Z</time></trkpt><trkpt lat="-25.027624610529447" lon="-53.3458699925235"><ele>698.0</ele><time>2026-04-04T14:29:41.951Z</time></trkpt><trkpt lat="-25.02769489671777" lon="-53.34591883525558"><ele>695.5</ele><time>2026-04-04T14:29:46.951Z</time></trkpt><trkpt lat="-25.027725541705067" lon="-53.34601176557609"><ele>693.0</ele><time>2026-04-04T14:29:49.951Z</time></trkpt><trkpt lat="-25.027740041485576" lon="-53.34608454148547"><ele>690.5</ele><time>2026-04-04T14:29:52.951Z</time></trkpt><trkpt lat="-25.02778744321267" lon="-53.34616424624718"><ele>688.0</ele><time>2026-04-04T14:29:57.951Z</time></trkpt><trkpt lat="-25.02780853764085" lon="-53.346247909331474"><ele>685.5</ele><time>2026-04-04T14:29:59.951Z</time></trkpt><trkpt lat="-25.02779020879985" lon="-53.34632742725762"><ele>683.0</ele><time>2026-04-04T14:30:01.95Z</time></trkpt><trkpt lat="-25.027813246856393" lon="-53.346412552928285"><ele>681.5</ele><time>2026-04-04T14:30:05.95Z</time></trkpt><trkpt lat="-25.027836669629064" lon="-53.34649564352508"><ele>680.0</ele><time>2026-04-04T14:30:09.95Z</time></trkpt><trkpt lat="-25.02785934191973" lon="-53.346569755528414"><ele>678.5</ele><time>2026-04-04T14:30:11.95Z</time></trkpt><trkpt lat="-25.027888148158826" lon="-53.34663801844557"><ele>677.0</ele><time>2026-04-04T14:30:16.951Z</time></trkpt><trkpt lat="-25.02795014804447" lon="-53.346657586519086"><ele>675.5</ele><time>2026-04-04T14:30:20.951Z</time></trkpt><trkpt lat="-25.028037599610656" lon="-53.34664452979093"><ele>674.0</ele><time>2026-04-04T14:30:27.951Z</time></trkpt><trkpt lat="-25.028105384127247" lon="-53.34658871824837"><ele>674.0000000000001</ele><time>2026-04-04T14:30:30.951Z</time></trkpt><trkpt lat="-25.028173421313507" lon="-53.34657775821642"><ele>674.0</ele><time>2026-04-04T14:30:31.951Z</time></trkpt><trkpt lat="-25.028241701326365" lon="-53.346552345995754"><ele>674.0</ele><time>2026-04-04T14:30:35.951Z</time></trkpt><trkpt lat="-25.028300964634592" lon="-53.34652690854184"><ele>674.0</ele><time>2026-04-04T14:30:42.951Z</time></trkpt><trkpt lat="-25.028264839257357" lon="-53.34646329015739"><ele>674.0</ele><time>2026-04-04T14:30:46.951Z</time></trkpt><trkpt lat="-25.028275784501563" lon="-53.34637991995903"><ele>674.0000000000001</ele><time>2026-04-04T14:30:51.951Z</time></trkpt><trkpt lat="-25.02827969312684" lon="-53.34630864081409"><ele>674.0</ele><time>2026-04-04T14:30:54.951Z</time></trkpt><trkpt lat="-25.02831278023961" lon="-53.34622411291055"><ele>674.5</ele><time>2026-04-04T14:30:57.951Z</time></trkpt><trkpt lat="-25.028364640508002" lon="-53.34616625097691"><ele>675.0</ele><time>2026-04-04T14:31:00.951Z</time></trkpt><trkpt lat="-25.02840588269146" lon="-53.346095246022934"><ele>675.5</ele><time>2026-04-04T14:31:03.951Z</time></trkpt><trkpt lat="-25.02842678580778" lon="-53.3460152828233"><ele>676.0</ele><time>2026-04-04T14:31:06.951Z</time></trkpt><trkpt lat="-25.028484673715457" lon="-53.34596552197735"><ele>676.5</ele><time>2026-04-04T14:31:08.951Z</time></trkpt><trkpt lat="-25.028562841688284" lon="-53.345924085825864"><ele>677.0</ele><time>2026-04-04T14:31:12.951Z</time></trkpt><trkpt lat="-25.028620347416478" lon="-53.34587037233758"><ele>677.0</ele><time>2026-04-04T14:31:15.951Z</time></trkpt><trkpt lat="-25.028672410275295" lon="-53.345799594374796"><ele>677.0</ele><time>2026-04-04T14:31:17.951Z</time></trkpt><trkpt lat="-25.028734457990996" lon="-53.34575919582158"><ele>677.0</ele><time>2026-04-04T14:31:20.951Z</time></trkpt><trkpt lat="-25.028764859071092" lon="-53.34568591764329"><ele>677.0</ele><time>2026-04-04T14:31:22.951Z</time></trkpt><trkpt lat="-25.02883165390162" lon="-53.34563588199006"><ele>677.0</ele><time>2026-04-04T14:31:24.951Z</time></trkpt><trkpt lat="-25.02890690159523" lon="-53.34558151677933"><ele>677.0</ele><time>2026-04-04T14:31:26.951Z</time></trkpt><trkpt lat="-25.02897371813332" lon="-53.34552584106666"><ele>678.0</ele><time>2026-04-04T14:31:29.951Z</time></trkpt><trkpt lat="-25.029052238229173" lon="-53.345459670634206"><ele>679.0</ele><time>2026-04-04T14:31:32.951Z</time></trkpt><trkpt lat="-25.029121998829513" lon="-53.345450437971756"><ele>680.0</ele><time>2026-04-04T14:31:35.951Z</time></trkpt><trkpt lat="-25.029202499500443" lon="-53.345441818428704"><ele>681.0</ele><time>2026-04-04T14:31:38.951Z</time></trkpt><trkpt lat="-25.029270586494867" lon="-53.34547194762136"><ele>682.0</ele><time>2026-04-04T14:31:41.951Z</time></trkpt><trkpt lat="-25.02930173778039" lon="-53.34553984524003"><ele>683.0</ele><time>2026-04-04T14:31:45.951Z</time></trkpt><trkpt lat="-25.029355758379165" lon="-53.3456173968453"><ele>683.0</ele><time>2026-04-04T14:31:52.95Z</time></trkpt><trkpt lat="-25.02936578769839" lon="-53.345692570153446"><ele>683.0</ele><time>2026-04-04T14:31:59.95Z</time></trkpt><trkpt lat="-25.029292642741606" lon="-53.34573932750198"><ele>683.0</ele><time>2026-04-04T14:32:04.95Z</time></trkpt><trkpt lat="-25.029221609153566" lon="-53.345699704416525"><ele>683.0</ele><time>2026-04-04T14:32:07.95Z</time></trkpt><trkpt lat="-25.029149229894387" lon="-53.345782995812044"><ele>683.0</ele><time>2026-04-04T14:32:11.95Z</time></trkpt><trkpt lat="-25.02910175841329" lon="-53.3458662347201"><ele>683.0</ele><time>2026-04-04T14:32:13.95Z</time></trkpt><trkpt lat="-25.02905315322009" lon="-53.34592472094994"><ele>682.1428571428571</ele><time>2026-04-04T14:32:15.95Z</time></trkpt><trkpt lat="-25.029016539144823" lon="-53.34598457503457"><ele>681.2857142857142</ele><time>2026-04-04T14:32:18.95Z</time></trkpt><trkpt lat="-25.029015317134817" lon="-53.346078425480755"><ele>680.4285714285713</ele><time>2026-04-04T14:32:24.951Z</time></trkpt><trkpt lat="-25.028991162459146" lon="-53.34615872587613"><ele>679.5714285714286</ele><time>2026-04-04T14:32:29.95Z</time></trkpt><trkpt lat="-25.028961284210837" lon="-53.34622098685092"><ele>678.7142857142857</ele><time>2026-04-04T14:32:36.95Z</time></trkpt><trkpt lat="-25.02894992574726" lon="-53.34629718204487"><ele>677.8571428571428</ele><time>2026-04-04T14:32:53.95Z</time></trkpt><trkpt lat="-25.02888454241058" lon="-53.34634984390901"><ele>677.0</ele><time>2026-04-04T14:33:07.95Z</time></trkpt><trkpt lat="-25.028894343310668" lon="-53.34642070305754"><ele>677.1428571428571</ele><time>2026-04-04T14:33:17.95Z</time></trkpt><trkpt lat="-25.028935775156548" lon="-53.34647752450647"><ele>677.2857142857142</ele><time>2026-04-04T14:33:23.95Z</time></trkpt><trkpt lat="-25.028987515532553" lon="-53.34652340824559"><ele>677.4285714285713</ele><time>2026-04-04T14:33:29.95Z</time></trkpt><trkpt lat="-25.029050257015143" lon="-53.346552293941244"><ele>677.5714285714286</ele><time>2026-04-04T14:33:32.95Z</time></trkpt><trkpt lat="-25.029122082968385" lon="-53.346589150103924"><ele>677.7142857142858</ele><time>2026-04-04T14:33:36.95Z</time></trkpt><trkpt lat="-25.0291699880775" lon="-53.34663532404992"><ele>677.8571428571428</ele><time>2026-04-04T14:33:41.95Z</time></trkpt><trkpt lat="-25.029231990581657" lon="-53.34668620880027"><ele>678.0</ele><time>2026-04-04T14:33:45.95Z</time></trkpt><trkpt lat="-25.029287624767967" lon="-53.34673572006864"><ele>678.0</ele><time>2026-04-04T14:33:48.95Z</time></trkpt><trkpt lat="-25.029356960229375" lon="-53.34678758636323"><ele>678.0</ele><time>2026-04-04T14:33:56.95Z</time></trkpt><trkpt lat="-25.029403664876227" lon="-53.346737807236906"><ele>678.0</ele><time>2026-04-04T14:34:04.95Z</time></trkpt><trkpt lat="-25.02943169178844" lon="-53.34663283447943"><ele>678.0</ele><time>2026-04-04T14:34:09.95Z</time></trkpt><trkpt lat="-25.029480791891125" lon="-53.34656788995004"><ele>678.0</ele><time>2026-04-04T14:34:12.95Z</time></trkpt><trkpt lat="-25.02950449075424" lon="-53.34649770295839"><ele>678.0</ele><time>2026-04-04T14:34:15.95Z</time></trkpt><trkpt lat="-25.02954461534142" lon="-53.34644350196681"><ele>678.0</ele><time>2026-04-04T14:34:18.95Z</time></trkpt><trkpt lat="-25.02959397688082" lon="-53.3463921772628"><ele>678.0</ele><time>2026-04-04T14:34:20.95Z</time></trkpt><trkpt lat="-25.0296580958099" lon="-53.346350650935506"><ele>678.0</ele><time>2026-04-04T14:34:23.95Z</time></trkpt><trkpt lat="-25.029737388202836" lon="-53.34632288694482"><ele>678.0</ele><time>2026-04-04T14:34:26.951Z</time></trkpt><trkpt lat="-25.02980997602404" lon="-53.34629518647936"><ele>678.0</ele><time>2026-04-04T14:34:29.95Z</time></trkpt><trkpt lat="-25.02988787345955" lon="-53.3462955932949"><ele>678.0</ele><time>2026-04-04T14:34:32.95Z</time></trkpt><trkpt lat="-25.029945376440885" lon="-53.34624790828048"><ele>680.5</ele><time>2026-04-04T14:34:37.949Z</time></trkpt><trkpt lat="-25.0300738824785" lon="-53.3462289031669"><ele>683.0</ele><time>2026-04-04T14:35:03.949Z</time></trkpt><trkpt lat="-25.030157800332084" lon="-53.34627214943493"><ele>685.5</ele><time>2026-04-04T14:35:06.949Z</time></trkpt><trkpt lat="-25.030277994805736" lon="-53.34635948606423"><ele>688.0</ele><time>2026-04-04T14:35:08.949Z</time></trkpt><trkpt lat="-25.03034279799873" lon="-53.346425161723616"><ele>688.0</ele><time>2026-04-04T14:35:09.949Z</time></trkpt><trkpt lat="-25.030406646427135" lon="-53.34647801277256"><ele>688.0</ele><time>2026-04-04T14:35:10.949Z</time></trkpt><trkpt lat="-25.030461399287645" lon="-53.346525800215744"><ele>688.0</ele><time>2026-04-04T14:35:11.949Z</time></trkpt><trkpt lat="-25.030509421409995" lon="-53.34657354399139"><ele>688.0</ele><time>2026-04-04T14:35:12.949Z</time></trkpt><trkpt lat="-25.03059442069177" lon="-53.34661034912117"><ele>688.0</ele><time>2026-04-04T14:35:15.949Z</time></trkpt><trkpt lat="-25.03067895600044" lon="-53.34669219862209"><ele>688.0</ele><time>2026-04-04T14:35:17.949Z</time></trkpt><trkpt lat="-25.030749404620042" lon="-53.34671524411176"><ele>688.0</ele><time>2026-04-04T14:35:19.949Z</time></trkpt><trkpt lat="-25.030765636608585" lon="-53.34678558581344"><ele>688.0</ele><time>2026-04-04T14:35:29.949Z</time></trkpt><trkpt lat="-25.03071007747382" lon="-53.34674611089042"><ele>688.0</ele><time>2026-04-04T14:35:40.95Z</time></trkpt><trkpt lat="-25.030686226151857" lon="-53.34683769993184"><ele>688.0</ele><time>2026-04-04T14:35:45.95Z</time></trkpt><trkpt lat="-25.03070236974556" lon="-53.3469981293652"><ele>688.0</ele><time>2026-04-04T14:35:48.95Z</time></trkpt><trkpt lat="-25.03066603352936" lon="-53.34709243915131"><ele>688.0</ele><time>2026-04-04T14:35:49.95Z</time></trkpt><trkpt lat="-25.030630079384412" lon="-53.34716604491084"><ele>688.0</ele><time>2026-04-04T14:35:50.95Z</time></trkpt><trkpt lat="-25.030590688326356" lon="-53.3472295741895"><ele>688.0</ele><time>2026-04-04T14:35:51.95Z</time></trkpt><trkpt lat="-25.03057948138786" lon="-53.34729838941207"><ele>688.0</ele><time>2026-04-04T14:35:53.95Z</time></trkpt><trkpt lat="-25.030632423591644" lon="-53.34735373514034"><ele>688.0</ele><time>2026-04-04T14:35:55.95Z</time></trkpt><trkpt lat="-25.03071655043455" lon="-53.347429146748425"><ele>688.0</ele><time>2026-04-04T14:35:57.95Z</time></trkpt><trkpt lat="-25.030735119179703" lon="-53.34750015896986"><ele>688.0</ele><time>2026-04-04T14:35:58.95Z</time></trkpt><trkpt lat="-25.030687703136074" lon="-53.34755470437825"><ele>688.0</ele><time>2026-04-04T14:36:00.95Z</time></trkpt><trkpt lat="-25.030649308921355" lon="-53.3476459963612"><ele>688.0</ele><time>2026-04-04T14:36:02.95Z</time></trkpt><trkpt lat="-25.030655539391677" lon="-53.347715310427574"><ele>688.0</ele><time>2026-04-04T14:36:03.95Z</time></trkpt><trkpt lat="-25.030672730722955" lon="-53.3478025742929"><ele>688.0</ele><time>2026-04-04T14:36:04.95Z</time></trkpt><trkpt lat="-25.03066311989532" lon="-53.34788601590434"><ele>688.0</ele><time>2026-04-04T14:36:05.95Z</time></trkpt><trkpt lat="-25.03065586969925" lon="-53.34798665521953"><ele>687.6666666666667</ele><time>2026-04-04T14:36:06.95Z</time></trkpt><trkpt lat="-25.030642192412074" lon="-53.3480752302905"><ele>687.3333333333334</ele><time>2026-04-04T14:36:07.95Z</time></trkpt><trkpt lat="-25.03062075515177" lon="-53.348169653989764"><ele>687.0</ele><time>2026-04-04T14:36:08.95Z</time></trkpt><trkpt lat="-25.030594908907567" lon="-53.348242815309725"><ele>686.6666666666666</ele><time>2026-04-04T14:36:09.95Z</time></trkpt><trkpt lat="-25.03056577454796" lon="-53.348312755121505"><ele>686.3333333333333</ele><time>2026-04-04T14:36:10.95Z</time></trkpt><trkpt lat="-25.030504413776594" lon="-53.34836728405878"><ele>686.0</ele><time>2026-04-04T14:36:11.95Z</time></trkpt><trkpt lat="-25.030440423928333" lon="-53.34840789011922"><ele>686.0</ele><time>2026-04-04T14:36:12.95Z</time></trkpt><trkpt lat="-25.030365322417506" lon="-53.34848605383538"><ele>686.0</ele><time>2026-04-04T14:36:14.95Z</time></trkpt><trkpt lat="-25.030328979339775" lon="-53.34859825886416"><ele>686.0</ele><time>2026-04-04T14:36:16.95Z</time></trkpt><trkpt lat="-25.030296692665566" lon="-53.348680429135904"><ele>686.0</ele><time>2026-04-04T14:36:18.95Z</time></trkpt><trkpt lat="-25.030247741428123" lon="-53.34875639625664"><ele>686.0</ele><time>2026-04-04T14:36:20.95Z</time></trkpt><trkpt lat="-25.030186410655745" lon="-53.34880187184044"><ele>686.0</ele><time>2026-04-04T14:36:23.95Z</time></trkpt><trkpt lat="-25.030122842539576" lon="-53.34880207287617"><ele>686.0</ele><time>2026-04-04T14:36:25.95Z</time></trkpt><trkpt lat="-25.030051511029914" lon="-53.348802518086956"><ele>686.0</ele><time>2026-04-04T14:36:27.95Z</time></trkpt><trkpt lat="-25.029988691799637" lon="-53.348816909958494"><ele>686.0</ele><time>2026-04-04T14:36:29.95Z</time></trkpt><trkpt lat="-25.029975337870354" lon="-53.34890510439917"><ele>686.0</ele><time>2026-04-04T14:36:32.951Z</time></trkpt><trkpt lat="-25.029995160378835" lon="-53.34905848111892"><ele>686.0</ele><time>2026-04-04T14:36:35.951Z</time></trkpt><trkpt lat="-25.030030279599288" lon="-53.34912383967506"><ele>685.8333333333333</ele><time>2026-04-04T14:36:38.95Z</time></trkpt><trkpt lat="-25.03001462814882" lon="-53.349205896332954"><ele>685.6666666666666</ele><time>2026-04-04T14:36:42.95Z</time></trkpt><trkpt lat="-25.030017697430278" lon="-53.34929018871182"><ele>685.5</ele><time>2026-04-04T14:36:48.951Z</time></trkpt><trkpt lat="-25.03002591889444" lon="-53.349368094337414"><ele>685.3333333333334</ele><time>2026-04-04T14:37:07.951Z</time></trkpt><trkpt lat="-25.0300937779033" lon="-53.34945307232394"><ele>685.1666666666667</ele><time>2026-04-04T14:37:13.951Z</time></trkpt><trkpt lat="-25.030106237973474" lon="-53.349524510882404"><ele>685.0</ele><time>2026-04-04T14:37:15.951Z</time></trkpt><trkpt lat="-25.030174305884223" lon="-53.34959965657229"><ele>685.0</ele><time>2026-04-04T14:37:17.951Z</time></trkpt><trkpt lat="-25.030207880213478" lon="-53.34967527963408"><ele>685.0</ele><time>2026-04-04T14:37:19.951Z</time></trkpt><trkpt lat="-25.030182969988733" lon="-53.349761343641994"><ele>685.0</ele><time>2026-04-04T14:37:21.951Z</time></trkpt><trkpt lat="-25.03015280833204" lon="-53.34987980946811"><ele>685.0</ele><time>2026-04-04T14:37:23.951Z</time></trkpt><trkpt lat="-25.03018883568909" lon="-53.349972014033554"><ele>685.0</ele><time>2026-04-04T14:37:27.95Z</time></trkpt><trkpt lat="-25.03023696954652" lon="-53.35001788105907"><ele>685.0</ele><time>2026-04-04T14:37:28.95Z</time></trkpt><trkpt lat="-25.03029174924495" lon="-53.3500555402487"><ele>682.2</ele><time>2026-04-04T14:37:29.95Z</time></trkpt><trkpt lat="-25.030363214601028" lon="-53.35013679683278"><ele>679.4</ele><time>2026-04-04T14:37:31.95Z</time></trkpt><trkpt lat="-25.030446861262455" lon="-53.35019580909468"><ele>676.5999999999999</ele><time>2026-04-04T14:37:33.95Z</time></trkpt><trkpt lat="-25.030522894192497" lon="-53.350205505502785"><ele>673.8</ele><time>2026-04-04T14:37:35.95Z</time></trkpt><trkpt lat="-25.030564333036605" lon="-53.350287144690896"><ele>671.0</ele><time>2026-04-04T14:37:39.95Z</time></trkpt><trkpt lat="-25.030560827689285" lon="-53.3503910272568"><ele>671.0</ele><time>2026-04-04T14:37:41.95Z</time></trkpt><trkpt lat="-25.030570087297928" lon="-53.3504815101018"><ele>671.0</ele><time>2026-04-04T14:37:43.95Z</time></trkpt><trkpt lat="-25.03063154975008" lon="-53.350568531396235"><ele>671.0</ele><time>2026-04-04T14:37:45.95Z</time></trkpt><trkpt lat="-25.0306778227851" lon="-53.35065762917064"><ele>671.0</ele><time>2026-04-04T14:37:48.95Z</time></trkpt><trkpt lat="-25.030739197875384" lon="-53.350774024907146"><ele>671.0</ele><time>2026-04-04T14:37:50.95Z</time></trkpt><trkpt lat="-25.030786324753112" lon="-53.350820868677765"><ele>669.5714285714286</ele><time>2026-04-04T14:37:51.95Z</time></trkpt><trkpt lat="-25.030834341465525" lon="-53.35086782138796"><ele>668.1428571428572</ele><time>2026-04-04T14:37:53.95Z</time></trkpt><trkpt lat="-25.03089061561898" lon="-53.35091361665899"><ele>666.7142857142858</ele><time>2026-04-04T14:37:55.95Z</time></trkpt><trkpt lat="-25.030969242993187" lon="-53.35096444315051"><ele>665.2857142857142</ele><time>2026-04-04T14:37:58.95Z</time></trkpt><trkpt lat="-25.03101507924253" lon="-53.3510181569903"><ele>663.8571428571429</ele><time>2026-04-04T14:38:00.95Z</time></trkpt><trkpt lat="-25.03104563990911" lon="-53.3511060502232"><ele>662.4285714285714</ele><time>2026-04-04T14:38:02.95Z</time></trkpt><trkpt lat="-25.031088317111504" lon="-53.351165506284744"><ele>661.0</ele><time>2026-04-04T14:38:04.95Z</time></trkpt><trkpt lat="-25.031124014545963" lon="-53.351264803529276"><ele>661.0</ele><time>2026-04-04T14:38:06.95Z</time></trkpt><trkpt lat="-25.03115830011418" lon="-53.35134440800533"><ele>661.0</ele><time>2026-04-04T14:38:08.95Z</time></trkpt><trkpt lat="-25.031164644698624" lon="-53.3514406564434"><ele>661.0</ele><time>2026-04-04T14:38:11.95Z</time></trkpt><trkpt lat="-25.031191387231665" lon="-53.3515296627417"><ele>661.0</ele><time>2026-04-04T14:38:13.95Z</time></trkpt><trkpt lat="-25.031243288222687" lon="-53.351577539817626"><ele>661.0</ele><time>2026-04-04T14:38:16.95Z</time></trkpt><trkpt lat="-25.03131234302713" lon="-53.35164012640965"><ele>661.0</ele><time>2026-04-04T14:38:24.95Z</time></trkpt><trkpt lat="-25.031382911180827" lon="-53.35168461235731"><ele>658.6666666666667</ele><time>2026-04-04T14:38:27.95Z</time></trkpt><trkpt lat="-25.03141405936592" lon="-53.351748855449976"><ele>656.3333333333334</ele><time>2026-04-04T14:38:29.95Z</time></trkpt><trkpt lat="-25.031448536534516" lon="-53.35183001683221"><ele>654.0</ele><time>2026-04-04T14:38:31.95Z</time></trkpt><trkpt lat="-25.031496476040637" lon="-53.351913527351165"><ele>651.6666666666666</ele><time>2026-04-04T14:38:33.95Z</time></trkpt><trkpt lat="-25.031553732989114" lon="-53.35198576273757"><ele>649.3333333333333</ele><time>2026-04-04T14:38:35.95Z</time></trkpt><trkpt lat="-25.031598225743505" lon="-53.35206617411277"><ele>647.0</ele><time>2026-04-04T14:38:38.95Z</time></trkpt><trkpt lat="-25.03165397770644" lon="-53.352109179572345"><ele>645.6666666666666</ele><time>2026-04-04T14:38:40.95Z</time></trkpt><trkpt lat="-25.031707213817654" lon="-53.35214949568566"><ele>644.3333333333333</ele><time>2026-04-04T14:38:46.95Z</time></trkpt><trkpt lat="-25.031762665432353" lon="-53.352209718813825"><ele>643.0</ele><time>2026-04-04T14:38:49.95Z</time></trkpt><trkpt lat="-25.031769666512588" lon="-53.35230116669783"><ele>641.6666666666666</ele><time>2026-04-04T14:38:51.95Z</time></trkpt><trkpt lat="-25.031789242001924" lon="-53.35240678790693"><ele>640.3333333333334</ele><time>2026-04-04T14:38:53.95Z</time></trkpt><trkpt lat="-25.03173855635196" lon="-53.35247176592678"><ele>639.0</ele><time>2026-04-04T14:38:55.95Z</time></trkpt><trkpt lat="-25.031675257982293" lon="-53.352516563679856"><ele>639.1428571428572</ele><time>2026-04-04T14:38:58.95Z</time></trkpt><trkpt lat="-25.031625860355973" lon="-53.352578620864854"><ele>639.2857142857143</ele><time>2026-04-04T14:39:01.95Z</time></trkpt><trkpt lat="-25.03158348981206" lon="-53.3526427780495"><ele>639.4285714285714</ele><time>2026-04-04T14:39:03.95Z</time></trkpt><trkpt lat="-25.031548348236132" lon="-53.352710653069636"><ele>639.5714285714287</ele><time>2026-04-04T14:39:07.95Z</time></trkpt><trkpt lat="-25.03147478296874" lon="-53.35272741386516"><ele>639.7142857142858</ele><time>2026-04-04T14:39:10.949Z</time></trkpt><trkpt lat="-25.031421182734757" lon="-53.352768204055494"><ele>639.8571428571429</ele><time>2026-04-04T14:39:12.949Z</time></trkpt><trkpt lat="-25.031377048493773" lon="-53.35283495229975"><ele>640.0</ele><time>2026-04-04T14:39:14.949Z</time></trkpt><trkpt lat="-25.031344227939854" lon="-53.35289570567825"><ele>640.0</ele><time>2026-04-04T14:39:17.949Z</time></trkpt><trkpt lat="-25.03127546108173" lon="-53.35296483143797"><ele>640.0</ele><time>2026-04-04T14:39:20.949Z</time></trkpt><trkpt lat="-25.031200356272667" lon="-53.35296523400168"><ele>640.0</ele><time>2026-04-04T14:39:22.949Z</time></trkpt><trkpt lat="-25.031125442833495" lon="-53.35295678068465"><ele>640.0</ele><time>2026-04-04T14:39:24.949Z</time></trkpt><trkpt lat="-25.03106430650013" lon="-53.35299165517141"><ele>640.0</ele><time>2026-04-04T14:39:27.949Z</time></trkpt><trkpt lat="-25.030993569950947" lon="-53.35300193239374"><ele>640.0</ele><time>2026-04-04T14:39:30.949Z</time></trkpt><trkpt lat="-25.03092693245861" lon="-53.3530121546315"><ele>640.0</ele><time>2026-04-04T14:39:33.949Z</time></trkpt><trkpt lat="-25.030860339694325" lon="-53.3530211126361"><ele>640.0</ele><time>2026-04-04T14:39:35.949Z</time></trkpt><trkpt lat="-25.03078484876345" lon="-53.35302859540447"><ele>640.0</ele><time>2026-04-04T14:39:37.949Z</time></trkpt><trkpt lat="-25.03069682058329" lon="-53.353044320263336"><ele>640.0</ele><time>2026-04-04T14:39:42.949Z</time></trkpt><trkpt lat="-25.03063214921611" lon="-53.35307531371251"><ele>640.0</ele><time>2026-04-04T14:39:48.949Z</time></trkpt><trkpt lat="-25.03057390938875" lon="-53.35304234748957"><ele>640.0</ele><time>2026-04-04T14:39:51.949Z</time></trkpt><trkpt lat="-25.030495675452215" lon="-53.35303472204035"><ele>640.0</ele><time>2026-04-04T14:39:55.949Z</time></trkpt><trkpt lat="-25.03042106787221" lon="-53.35302527659425"><ele>640.1428571428571</ele><time>2026-04-04T14:40:01.949Z</time></trkpt><trkpt lat="-25.030354612965333" lon="-53.35301585733196"><ele>640.2857142857143</ele><time>2026-04-04T14:40:04.949Z</time></trkpt><trkpt lat="-25.030285046393047" lon="-53.352996995657584"><ele>640.4285714285714</ele><time>2026-04-04T14:40:07.949Z</time></trkpt><trkpt lat="-25.030216372578543" lon="-53.35299985912113"><ele>640.5714285714286</ele><time>2026-04-04T14:40:10.949Z</time></trkpt><trkpt lat="-25.03015648358242" lon="-53.35303404809549"><ele>640.7142857142857</ele><time>2026-04-04T14:40:13.949Z</time></trkpt><trkpt lat="-25.03007374087157" lon="-53.35303454418184"><ele>640.8571428571429</ele><time>2026-04-04T14:40:16.949Z</time></trkpt><trkpt lat="-25.030007609514822" lon="-53.35304614486762"><ele>641.0</ele><time>2026-04-04T14:40:19.949Z</time></trkpt><trkpt lat="-25.029946338131765" lon="-53.35307593249734"><ele>644.3333333333333</ele><time>2026-04-04T14:40:22.949Z</time></trkpt><trkpt lat="-25.0298704114831" lon="-53.35308897714959"><ele>647.6666666666666</ele><time>2026-04-04T14:40:25.949Z</time></trkpt><trkpt lat="-25.029792619615897" lon="-53.35312963324152"><ele>651.0</ele><time>2026-04-04T14:40:28.949Z</time></trkpt><trkpt lat="-25.02973028647924" lon="-53.3531671327575"><ele>654.3333333333334</ele><time>2026-04-04T14:40:33.949Z</time></trkpt><trkpt lat="-25.029652015895877" lon="-53.35319135017195"><ele>657.6666666666667</ele><time>2026-04-04T14:40:36.949Z</time></trkpt><trkpt lat="-25.029570596379767" lon="-53.35322648881623"><ele>661.0</ele><time>2026-04-04T14:40:39.949Z</time></trkpt><trkpt lat="-25.02951301037857" lon="-53.353267044790186"><ele>661.0</ele><time>2026-04-04T14:40:44.95Z</time></trkpt><trkpt lat="-25.029453541937844" lon="-53.35330407094155"><ele>661.0</ele><time>2026-04-04T14:40:54.949Z</time></trkpt><trkpt lat="-25.029399368886484" lon="-53.353343574681226"><ele>661.0</ele><time>2026-04-04T14:41:03.949Z</time></trkpt><trkpt lat="-25.029337614547956" lon="-53.35336707470064"><ele>661.0</ele><time>2026-04-04T14:47:03.948Z</time></trkpt><trkpt lat="-25.029246865908778" lon="-53.353452517529256"><ele>661.0</ele><time>2026-04-04T14:47:49.948Z</time></trkpt><trkpt lat="-25.02926274900926" lon="-53.35352384055287"><ele>661.0</ele><time>2026-04-04T14:47:53.948Z</time></trkpt><trkpt lat="-25.029317188814208" lon="-53.35360346702021"><ele>661.0</ele><time>2026-04-04T14:47:56.948Z</time></trkpt><trkpt lat="-25.02936883848533" lon="-53.35366695234389"><ele>661.0</ele><time>2026-04-04T14:47:59.948Z</time></trkpt><trkpt lat="-25.029429440528396" lon="-53.353647900148964"><ele>661.0</ele><time>2026-04-04T14:48:01.948Z</time></trkpt><trkpt lat="-25.02948740842184" lon="-53.35370989514135"><ele>661.0</ele><time>2026-04-04T14:48:05.948Z</time></trkpt><trkpt lat="-25.029516976864322" lon="-53.353773348924605"><ele>661.0</ele><time>2026-04-04T14:48:07.948Z</time></trkpt><trkpt lat="-25.029512115977695" lon="-53.35386538998523"><ele>661.0</ele><time>2026-04-04T14:48:09.948Z</time></trkpt><trkpt lat="-25.029518762021" lon="-53.35396630373075"><ele>663.5714285714286</ele><time>2026-04-04T14:48:14.948Z</time></trkpt><trkpt lat="-25.029433701324955" lon="-53.3540262590195"><ele>666.1428571428571</ele><time>2026-04-04T14:48:17.948Z</time></trkpt><trkpt lat="-25.02943544560208" lon="-53.35410051639873"><ele>668.7142857142858</ele><time>2026-04-04T14:48:19.948Z</time></trkpt><trkpt lat="-25.029379759156406" lon="-53.35414348586058"><ele>671.2857142857142</ele><time>2026-04-04T14:48:22.948Z</time></trkpt><trkpt lat="-25.029300727354542" lon="-53.354147479012724"><ele>673.8571428571429</ele><time>2026-04-04T14:48:26.948Z</time></trkpt><trkpt lat="-25.02923547508697" lon="-53.354167305910785"><ele>676.4285714285714</ele><time>2026-04-04T14:48:29.948Z</time></trkpt><trkpt lat="-25.02917209419054" lon="-53.35417432356926"><ele>679.0</ele><time>2026-04-04T14:48:31.948Z</time></trkpt><trkpt lat="-25.02909769992535" lon="-53.35416844945237"><ele>680.8333333333334</ele><time>2026-04-04T14:48:34.948Z</time></trkpt><trkpt lat="-25.028999975212322" lon="-53.35414794031781"><ele>682.6666666666667</ele><time>2026-04-04T14:48:36.948Z</time></trkpt><trkpt lat="-25.028907606555727" lon="-53.35414823639228"><ele>684.5</ele><time>2026-04-04T14:48:39.948Z</time></trkpt><trkpt lat="-25.0288304983188" lon="-53.35412689638185"><ele>686.3333333333334</ele><time>2026-04-04T14:48:42.948Z</time></trkpt><trkpt lat="-25.028758168743316" lon="-53.35411082917471"><ele>688.1666666666666</ele><time>2026-04-04T14:48:45.948Z</time></trkpt><trkpt lat="-25.028674854060846" lon="-53.35407942362845"><ele>690.0</ele><time>2026-04-04T14:48:48.948Z</time></trkpt><trkpt lat="-25.02858884497419" lon="-53.354081457260754"><ele>690.0</ele><time>2026-04-04T14:48:51.948Z</time></trkpt><trkpt lat="-25.028520835913117" lon="-53.35408881340679"><ele>690.0</ele><time>2026-04-04T14:48:54.948Z</time></trkpt><trkpt lat="-25.028445751459962" lon="-53.354122224553386"><ele>690.0</ele><time>2026-04-04T14:48:57.948Z</time></trkpt><trkpt lat="-25.02836663591097" lon="-53.35412038512276"><ele>690.0</ele><time>2026-04-04T14:49:00.948Z</time></trkpt><trkpt lat="-25.028283094726202" lon="-53.35410058918824"><ele>690.0</ele><time>2026-04-04T14:49:03.948Z</time></trkpt><trkpt lat="-25.028195995590725" lon="-53.3540868742603"><ele>690.0</ele><time>2026-04-04T14:49:06.948Z</time></trkpt><trkpt lat="-25.02810994307142" lon="-53.35406352306727"><ele>690.5714285714286</ele><time>2026-04-04T14:49:09.948Z</time></trkpt><trkpt lat="-25.028036457365573" lon="-53.35402004160067"><ele>691.1428571428571</ele><time>2026-04-04T14:49:12.948Z</time></trkpt><trkpt lat="-25.02796721766121" lon="-53.35405661084765"><ele>691.7142857142858</ele><time>2026-04-04T14:49:14.948Z</time></trkpt><trkpt lat="-25.02789105094028" lon="-53.35406487933154"><ele>692.2857142857142</ele><time>2026-04-04T14:49:17.948Z</time></trkpt><trkpt lat="-25.027823696412195" lon="-53.3540607480429"><ele>692.8571428571428</ele><time>2026-04-04T14:49:19.948Z</time></trkpt><trkpt lat="-25.027752126716948" lon="-53.35405139751829"><ele>693.4285714285714</ele><time>2026-04-04T14:49:22.948Z</time></trkpt><trkpt lat="-25.027683632987834" lon="-53.35404762214754"><ele>694.0</ele><time>2026-04-04T14:49:24.948Z</time></trkpt><trkpt lat="-25.027622467068085" lon="-53.354009602600534"><ele>694.0</ele><time>2026-04-04T14:49:27.948Z</time></trkpt><trkpt lat="-25.027554053075303" lon="-53.35396779330848"><ele>694.0</ele><time>2026-04-04T14:49:29.948Z</time></trkpt><trkpt lat="-25.02746993413225" lon="-53.35396134032057"><ele>694.0</ele><time>2026-04-04T14:49:33.948Z</time></trkpt><trkpt lat="-25.02741402782477" lon="-53.353997600076205"><ele>694.0</ele><time>2026-04-04T14:49:35.948Z</time></trkpt><trkpt lat="-25.02733305981607" lon="-53.35400285081729"><ele>694.0</ele><time>2026-04-04T14:49:38.948Z</time></trkpt><trkpt lat="-25.027262410307486" lon="-53.35399918149845"><ele>694.0</ele><time>2026-04-04T14:49:40.948Z</time></trkpt><trkpt lat="-25.027158282864857" lon="-53.35394546821553"><ele>693.8571428571429</ele><time>2026-04-04T14:49:42.948Z</time></trkpt><trkpt lat="-25.02706642487798" lon="-53.35391011248101"><ele>693.7142857142857</ele><time>2026-04-04T14:49:44.948Z</time></trkpt><trkpt lat="-25.02700147895682" lon="-53.35390081615095"><ele>693.5714285714286</ele><time>2026-04-04T14:49:46.948Z</time></trkpt><trkpt lat="-25.026925993559342" lon="-53.353879069929015"><ele>693.4285714285714</ele><time>2026-04-04T14:49:49.948Z</time></trkpt><trkpt lat="-25.026874146225346" lon="-53.353833285970666"><ele>693.2857142857142</ele><time>2026-04-04T14:49:52.948Z</time></trkpt><trkpt lat="-25.026813527958872" lon="-53.353806537299675"><ele>693.1428571428571</ele><time>2026-04-04T14:49:54.948Z</time></trkpt><trkpt lat="-25.02674242294118" lon="-53.353794848129425"><ele>693.0</ele><time>2026-04-04T14:49:56.948Z</time></trkpt><trkpt lat="-25.026675190493922" lon="-53.35380093093856"><ele>689.0</ele><time>2026-04-04T14:49:58.948Z</time></trkpt><trkpt lat="-25.026610274168593" lon="-53.35376328340366"><ele>685.0</ele><time>2026-04-04T14:50:01.948Z</time></trkpt><trkpt lat="-25.026543248465057" lon="-53.35376569594676"><ele>681.0</ele><time>2026-04-04T14:50:04.948Z</time></trkpt><trkpt lat="-25.02645636069902" lon="-53.35377597958847"><ele>677.0</ele><time>2026-04-04T14:50:07.948Z</time></trkpt><trkpt lat="-25.026388218243326" lon="-53.35379482168172"><ele>673.0</ele><time>2026-04-04T14:50:09.948Z</time></trkpt><trkpt lat="-25.02626843798117" lon="-53.353786103239976"><ele>669.0</ele><time>2026-04-04T14:50:11.948Z</time></trkpt><trkpt lat="-25.026178643248485" lon="-53.35377088026187"><ele>669.0</ele><time>2026-04-04T14:50:13.948Z</time></trkpt><trkpt lat="-25.026107893940626" lon="-53.35374376177832"><ele>669.0</ele><time>2026-04-04T14:50:15.948Z</time></trkpt><trkpt lat="-25.026033843500535" lon="-53.35373891832145"><ele>669.0</ele><time>2026-04-04T14:50:18.948Z</time></trkpt><trkpt lat="-25.025947272416072" lon="-53.353740364287525"><ele>669.0</ele><time>2026-04-04T14:50:23.948Z</time></trkpt><trkpt lat="-25.025944641794833" lon="-53.35381898613475"><ele>669.0</ele><time>2026-04-04T14:50:28.948Z</time></trkpt><trkpt lat="-25.02602810402487" lon="-53.353887115883104"><ele>669.0</ele><time>2026-04-04T14:50:31.948Z</time></trkpt><trkpt lat="-25.02608295708993" lon="-53.35392752129663"><ele>671.8571428571429</ele><time>2026-04-04T14:50:36.948Z</time></trkpt><trkpt lat="-25.0261143468562" lon="-53.35399517223681"><ele>674.7142857142857</ele><time>2026-04-04T14:50:40.948Z</time></trkpt><trkpt lat="-25.02616194075476" lon="-53.354047458729575"><ele>677.5714285714286</ele><time>2026-04-04T14:50:44.948Z</time></trkpt><trkpt lat="-25.026238128410586" lon="-53.35407671712481"><ele>680.4285714285714</ele><time>2026-04-04T14:50:48.948Z</time></trkpt><trkpt lat="-25.02627977805821" lon="-53.35415299483079"><ele>683.2857142857143</ele><time>2026-04-04T14:50:52.948Z</time></trkpt><trkpt lat="-25.026313989714815" lon="-53.35422376936908"><ele>686.1428571428571</ele><time>2026-04-04T14:50:55.948Z</time></trkpt><trkpt lat="-25.02637621103128" lon="-53.354274523150046"><ele>689.0</ele><time>2026-04-04T14:50:58.948Z</time></trkpt><trkpt lat="-25.026444965382932" lon="-53.35429567796732"><ele>689.0</ele><time>2026-04-04T14:51:00.948Z</time></trkpt><trkpt lat="-25.026531527585806" lon="-53.35430423568977"><ele>689.0</ele><time>2026-04-04T14:51:03.947Z</time></trkpt><trkpt lat="-25.02658501454971" lon="-53.354354223807974"><ele>689.0</ele><time>2026-04-04T14:51:05.947Z</time></trkpt><trkpt lat="-25.026652039379034" lon="-53.35438000845556"><ele>689.0</ele><time>2026-04-04T14:51:07.947Z</time></trkpt><trkpt lat="-25.026727865678517" lon="-53.35440774166556"><ele>689.0</ele><time>2026-04-04T14:51:10.947Z</time></trkpt><trkpt lat="-25.0268138136638" lon="-53.35440522910525"><ele>689.0</ele><time>2026-04-04T14:51:13.947Z</time></trkpt><trkpt lat="-25.026901452887373" lon="-53.354373439391544"><ele>689.6666666666666</ele><time>2026-04-04T14:51:15.948Z</time></trkpt><trkpt lat="-25.026960276710188" lon="-53.3543363870497"><ele>690.3333333333333</ele><time>2026-04-04T14:51:19.948Z</time></trkpt><trkpt lat="-25.02704123141529" lon="-53.35432449386149"><ele>691.0</ele><time>2026-04-04T14:51:22.947Z</time></trkpt><trkpt lat="-25.02711224316932" lon="-53.35434276203054"><ele>691.6666666666666</ele><time>2026-04-04T14:51:24.948Z</time></trkpt><trkpt lat="-25.027189526208538" lon="-53.35438258513108"><ele>692.3333333333334</ele><time>2026-04-04T14:51:26.948Z</time></trkpt><trkpt lat="-25.027253172176703" lon="-53.35439678246882"><ele>693.0</ele><time>2026-04-04T14:51:28.949Z</time></trkpt><trkpt lat="-25.027360389209957" lon="-53.354407936868014"><ele>693.0</ele><time>2026-04-04T14:51:31.95Z</time></trkpt><trkpt lat="-25.02744328355321" lon="-53.354381579242414"><ele>693.0</ele><time>2026-04-04T14:51:34.951Z</time></trkpt><trkpt lat="-25.027508544557808" lon="-53.354377032577226"><ele>693.0</ele><time>2026-04-04T14:51:37.952Z</time></trkpt><trkpt lat="-25.0275786204072" lon="-53.354402646672376"><ele>693.0</ele><time>2026-04-04T14:51:41.952Z</time></trkpt><trkpt lat="-25.027658577778773" lon="-53.354438912366405"><ele>693.0</ele><time>2026-04-04T14:51:45.953Z</time></trkpt><trkpt lat="-25.027728993628976" lon="-53.354496874837174"><ele>693.0</ele><time>2026-04-04T14:51:48.953Z</time></trkpt><trkpt lat="-25.02778196665069" lon="-53.354553804535655"><ele>693.1666666666666</ele><time>2026-04-04T14:51:51.954Z</time></trkpt><trkpt lat="-25.027831536495935" lon="-53.354604476683626"><ele>693.3333333333334</ele><time>2026-04-04T14:51:53.954Z</time></trkpt><trkpt lat="-25.027885386901087" lon="-53.35468486977722"><ele>693.5</ele><time>2026-04-04T14:51:56.954Z</time></trkpt><trkpt lat="-25.027869947519026" lon="-53.3547941631546"><ele>693.6666666666667</ele><time>2026-04-04T14:51:59.954Z</time></trkpt><trkpt lat="-25.027860908006794" lon="-53.35488875647242"><ele>693.8333333333334</ele><time>2026-04-04T14:52:02.954Z</time></trkpt><trkpt lat="-25.027860237372646" lon="-53.35496554115066"><ele>694.0</ele><time>2026-04-04T14:52:05.954Z</time></trkpt><trkpt lat="-25.027893811518748" lon="-53.35503454170324"><ele>694.8333333333334</ele><time>2026-04-04T14:52:08.955Z</time></trkpt><trkpt lat="-25.02794136442861" lon="-53.35511037740724"><ele>695.6666666666667</ele><time>2026-04-04T14:52:11.955Z</time></trkpt><trkpt lat="-25.027995568785126" lon="-53.35514956993892"><ele>696.5</ele><time>2026-04-04T14:52:16.955Z</time></trkpt><trkpt lat="-25.02807750020709" lon="-53.35516167421706"><ele>697.3333333333334</ele><time>2026-04-04T14:52:19.955Z</time></trkpt><trkpt lat="-25.028154719156902" lon="-53.355139814585876"><ele>698.1666666666666</ele><time>2026-04-04T14:52:21.955Z</time></trkpt><trkpt lat="-25.02826906169996" lon="-53.35513460017477"><ele>699.0</ele><time>2026-04-04T14:52:25.955Z</time></trkpt><trkpt lat="-25.028335007787902" lon="-53.355135558698954"><ele>699.0</ele><time>2026-04-04T14:52:27.955Z</time></trkpt><trkpt lat="-25.02841083342779" lon="-53.35510314197329"><ele>699.0</ele><time>2026-04-04T14:52:30.955Z</time></trkpt><trkpt lat="-25.028481537633265" lon="-53.35504353766303"><ele>699.0</ele><time>2026-04-04T14:52:35.955Z</time></trkpt><trkpt lat="-25.028561646618723" lon="-53.35506412442807"><ele>699.0</ele><time>2026-04-04T14:52:39.955Z</time></trkpt><trkpt lat="-25.028631047711805" lon="-53.355074183826865"><ele>699.0</ele><time>2026-04-04T14:52:45.955Z</time></trkpt><trkpt lat="-25.02870587921338" lon="-53.35507532957521"><ele>699.0</ele><time>2026-04-04T14:52:51.955Z</time></trkpt><trkpt lat="-25.02877617202381" lon="-53.35508574365842"><ele>699.0</ele><time>2026-04-04T14:52:55.955Z</time></trkpt><trkpt lat="-25.028842635548468" lon="-53.35513865560586"><ele>699.0</ele><time>2026-04-04T14:52:58.955Z</time></trkpt><trkpt lat="-25.02887773697487" lon="-53.355202698507824"><ele>699.0</ele><time>2026-04-04T14:53:00.955Z</time></trkpt><trkpt lat="-25.028833556573282" lon="-53.35525987074573"><ele>699.0</ele><time>2026-04-04T14:53:04.955Z</time></trkpt><trkpt lat="-25.02876997461129" lon="-53.35531013616448"><ele>699.0</ele><time>2026-04-04T14:53:07.955Z</time></trkpt><trkpt lat="-25.02873384410679" lon="-53.35539241064224"><ele>699.0</ele><time>2026-04-04T14:53:11.955Z</time></trkpt><trkpt lat="-25.02866517775787" lon="-53.35543382746836"><ele>699.0</ele><time>2026-04-04T14:53:14.955Z</time></trkpt><trkpt lat="-25.02864753807855" lon="-53.35551308968372"><ele>699.0</ele><time>2026-04-04T14:53:17.955Z</time></trkpt><trkpt lat="-25.02862976739826" lon="-53.355603283932545"><ele>699.0</ele><time>2026-04-04T14:53:20.954Z</time></trkpt><trkpt lat="-25.02858454280051" lon="-53.35566960420549"><ele>699.0</ele><time>2026-04-04T14:53:22.955Z</time></trkpt><trkpt lat="-25.02851542708846" lon="-53.35569192942343"><ele>699.0</ele><time>2026-04-04T14:53:24.955Z</time></trkpt><trkpt lat="-25.02843449932529" lon="-53.35566459309208"><ele>699.0</ele><time>2026-04-04T14:53:27.955Z</time></trkpt><trkpt lat="-25.028402398595713" lon="-53.35573506795063"><ele>701.1666666666666</ele><time>2026-04-04T14:53:31.954Z</time></trkpt><trkpt lat="-25.028347804186392" lon="-53.355804897332845"><ele>703.3333333333334</ele><time>2026-04-04T14:53:36.954Z</time></trkpt><trkpt lat="-25.028269597890365" lon="-53.35583067918273"><ele>705.5</ele><time>2026-04-04T14:53:39.954Z</time></trkpt><trkpt lat="-25.028207795535476" lon="-53.35581362513438"><ele>707.6666666666667</ele><time>2026-04-04T14:53:42.954Z</time></trkpt><trkpt lat="-25.02811015025985" lon="-53.35584094784852"><ele>709.8333333333334</ele><time>2026-04-04T14:53:45.954Z</time></trkpt><trkpt lat="-25.028034576417248" lon="-53.35584471593239"><ele>712.0</ele><time>2026-04-04T14:53:47.954Z</time></trkpt><trkpt lat="-25.02797131950361" lon="-53.35580089153483"><ele>712.3333333333334</ele><time>2026-04-04T14:53:50.954Z</time></trkpt><trkpt lat="-25.02789789521978" lon="-53.35578179221894"><ele>712.6666666666667</ele><time>2026-04-04T14:53:53.954Z</time></trkpt><trkpt lat="-25.027828621676193" lon="-53.355773600086536"><ele>713.0</ele><time>2026-04-04T14:54:02.953Z</time></trkpt><trkpt lat="-25.027759901808338" lon="-53.355730181072154"><ele>713.3333333333334</ele><time>2026-04-04T14:54:06.953Z</time></trkpt><trkpt lat="-25.027681839419458" lon="-53.355773222699376"><ele>713.6666666666666</ele><time>2026-04-04T14:54:28.953Z</time></trkpt><trkpt lat="-25.027667908989304" lon="-53.355874368769776"><ele>714.0</ele><time>2026-04-04T14:54:30.953Z</time></trkpt><trkpt lat="-25.027652335780665" lon="-53.35594571130817"><ele>714.0</ele><time>2026-04-04T14:54:31.953Z</time></trkpt><trkpt lat="-25.02760880174813" lon="-53.35605632902364"><ele>714.0</ele><time>2026-04-04T14:54:33.953Z</time></trkpt><trkpt lat="-25.027583239552786" lon="-53.35613324276449"><ele>714.0</ele><time>2026-04-04T14:54:34.953Z</time></trkpt><trkpt lat="-25.02754784442993" lon="-53.35623168775527"><ele>714.0</ele><time>2026-04-04T14:54:35.953Z</time></trkpt><trkpt lat="-25.027503291467678" lon="-53.35633096360543"><ele>714.0</ele><time>2026-04-04T14:54:36.953Z</time></trkpt><trkpt lat="-25.027461168702313" lon="-53.3564262595612"><ele>714.6</ele><time>2026-04-04T14:54:37.953Z</time></trkpt><trkpt lat="-25.027428666801207" lon="-53.35652525720523"><ele>715.2</ele><time>2026-04-04T14:54:38.953Z</time></trkpt><trkpt lat="-25.027395434964635" lon="-53.356621449770074"><ele>715.8000000000001</ele><time>2026-04-04T14:54:39.953Z</time></trkpt><trkpt lat="-25.027360810412162" lon="-53.35671676954951"><ele>716.4000000000001</ele><time>2026-04-04T14:54:40.953Z</time></trkpt><trkpt lat="-25.027323599300473" lon="-53.356804711936"><ele>717.0</ele><time>2026-04-04T14:54:41.953Z</time></trkpt><trkpt lat="-25.027289712959373" lon="-53.356905036005415"><ele>717.0</ele><time>2026-04-04T14:54:42.953Z</time></trkpt><trkpt lat="-25.027255132767092" lon="-53.35700133058361"><ele>717.0</ele><time>2026-04-04T14:54:43.953Z</time></trkpt><trkpt lat="-25.027226681284777" lon="-53.357101219319446"><ele>717.0</ele><time>2026-04-04T14:54:44.953Z</time></trkpt><trkpt lat="-25.027194164638317" lon="-53.357190972259716"><ele>717.0</ele><time>2026-04-04T14:54:45.953Z</time></trkpt><trkpt lat="-25.027162799412558" lon="-53.35727716529111"><ele>717.0</ele><time>2026-04-04T14:54:46.953Z</time></trkpt><trkpt lat="-25.027138272628044" lon="-53.35737119392762"><ele>717.0</ele><time>2026-04-04T14:54:47.953Z</time></trkpt><trkpt lat="-25.027101124685334" lon="-53.357485929165605"><ele>717.6</ele><time>2026-04-04T14:54:48.953Z</time></trkpt><trkpt lat="-25.02706093731044" lon="-53.35760536533151"><ele>718.2</ele><time>2026-04-04T14:54:49.953Z</time></trkpt><trkpt lat="-25.027026835469137" lon="-53.35770924420351"><ele>718.8</ele><time>2026-04-04T14:54:50.953Z</time></trkpt><trkpt lat="-25.026994435221702" lon="-53.3578139062163"><ele>719.4</ele><time>2026-04-04T14:54:51.953Z</time></trkpt><trkpt lat="-25.026958778460674" lon="-53.357921278311856"><ele>720.0</ele><time>2026-04-04T14:54:52.953Z</time></trkpt><trkpt lat="-25.026924437747493" lon="-53.358023045160024"><ele>720.8</ele><time>2026-04-04T14:54:53.953Z</time></trkpt><trkpt lat="-25.026894072038438" lon="-53.358110653350636"><ele>721.6</ele><time>2026-04-04T14:54:54.953Z</time></trkpt><trkpt lat="-25.02686711558652" lon="-53.35820143092812"><ele>722.4000000000001</ele><time>2026-04-04T14:54:55.953Z</time></trkpt><trkpt lat="-25.026829950840746" lon="-53.358294400711095"><ele>723.2</ele><time>2026-04-04T14:54:56.953Z</time></trkpt><trkpt lat="-25.026799183251658" lon="-53.358399197623235"><ele>724.0</ele><time>2026-04-04T14:54:57.953Z</time></trkpt><trkpt lat="-25.026763887232192" lon="-53.35849510467519"><ele>724.0</ele><time>2026-04-04T14:54:58.953Z</time></trkpt><trkpt lat="-25.026728486726846" lon="-53.35860550486686"><ele>724.0</ele><time>2026-04-04T14:54:59.953Z</time></trkpt><trkpt lat="-25.026687235101885" lon="-53.358728883309006"><ele>724.0</ele><time>2026-04-04T14:55:00.953Z</time></trkpt><trkpt lat="-25.026651069078163" lon="-53.3588356905347"><ele>724.0</ele><time>2026-04-04T14:55:01.953Z</time></trkpt><trkpt lat="-25.02661891642531" lon="-53.358945340142746"><ele>724.0</ele><time>2026-04-04T14:55:02.953Z</time></trkpt><trkpt lat="-25.0265948820888" lon="-53.35905507720056"><ele>724.25</ele><time>2026-04-04T14:55:03.953Z</time></trkpt><trkpt lat="-25.026572116358363" lon="-53.35917211377558"><ele>724.5</ele><time>2026-04-04T14:55:04.953Z</time></trkpt><trkpt lat="-25.026560486444435" lon="-53.359311339862664"><ele>724.75</ele><time>2026-04-04T14:55:05.953Z</time></trkpt><trkpt lat="-25.02654868060948" lon="-53.35944637615125"><ele>725.0</ele><time>2026-04-04T14:55:06.953Z</time></trkpt><trkpt lat="-25.026529035121584" lon="-53.35958407722816"><ele>725.4</ele><time>2026-04-04T14:55:07.953Z</time></trkpt><trkpt lat="-25.026519567052613" lon="-53.35970715558268"><ele>725.8</ele><time>2026-04-04T14:55:08.953Z</time></trkpt><trkpt lat="-25.026495918659773" lon="-53.359810022075294"><ele>726.2</ele><time>2026-04-04T14:55:09.953Z</time></trkpt><trkpt lat="-25.026465963546624" lon="-53.35991216519109"><ele>726.6</ele><time>2026-04-04T14:55:10.953Z</time></trkpt><trkpt lat="-25.026448176215293" lon="-53.360011565464816"><ele>727.0</ele><time>2026-04-04T14:55:11.953Z</time></trkpt><trkpt lat="-25.026445772847396" lon="-53.36009528563464"><ele>727.0</ele><time>2026-04-04T14:55:12.953Z</time></trkpt><trkpt lat="-25.026466261303167" lon="-53.36016922627861"><ele>727.0</ele><time>2026-04-04T14:55:13.953Z</time></trkpt><trkpt lat="-25.026505216001702" lon="-53.360232721356915"><ele>727.0</ele><time>2026-04-04T14:55:14.953Z</time></trkpt><trkpt lat="-25.026581097176827" lon="-53.36030546376685"><ele>727.0</ele><time>2026-04-04T14:55:15.953Z</time></trkpt><trkpt lat="-25.02666268226382" lon="-53.36036217292787"><ele>727.0</ele><time>2026-04-04T14:55:16.953Z</time></trkpt><trkpt lat="-25.0267625618735" lon="-53.360413264139694"><ele>727.0</ele><time>2026-04-04T14:55:17.953Z</time></trkpt><trkpt lat="-25.026872533789657" lon="-53.36046073286626"><ele>727.2</ele><time>2026-04-04T14:55:18.953Z</time></trkpt><trkpt lat="-25.026969566849605" lon="-53.36050970210672"><ele>727.4000000000001</ele><time>2026-04-04T14:55:19.953Z</time></trkpt><trkpt lat="-25.027061556927027" lon="-53.3605493070799"><ele>727.5999999999999</ele><time>2026-04-04T14:55:20.953Z</time></trkpt><trkpt lat="-25.027161380652178" lon="-53.360592910821886"><ele>727.8</ele><time>2026-04-04T14:55:21.953Z</time></trkpt><trkpt lat="-25.027267853780597" lon="-53.360657442720075"><ele>728.0</ele><time>2026-04-04T14:55:22.953Z</time></trkpt><trkpt lat="-25.027378022045806" lon="-53.36071834781759"><ele>728.75</ele><time>2026-04-04T14:55:23.953Z</time></trkpt><trkpt lat="-25.027485967427307" lon="-53.36077679185065"><ele>729.5</ele><time>2026-04-04T14:55:24.954Z</time></trkpt><trkpt lat="-25.027592787979017" lon="-53.36083581017082"><ele>730.25</ele><time>2026-04-04T14:55:25.953Z</time></trkpt><trkpt lat="-25.027696053110176" lon="-53.36088616249807"><ele>731.0</ele><time>2026-04-04T14:55:26.953Z</time></trkpt><trkpt lat="-25.027795656767132" lon="-53.36094171113024"><ele>731.0</ele><time>2026-04-04T14:55:27.954Z</time></trkpt><trkpt lat="-25.027892467233453" lon="-53.36099892128759"><ele>731.0</ele><time>2026-04-04T14:55:28.954Z</time></trkpt><trkpt lat="-25.027990004917363" lon="-53.36105639942803"><ele>731.0</ele><time>2026-04-04T14:55:29.953Z</time></trkpt><trkpt lat="-25.028091121539703" lon="-53.3611232634671"><ele>731.0</ele><time>2026-04-04T14:55:30.954Z</time></trkpt><trkpt lat="-25.028188178553933" lon="-53.36118917870446"><ele>731.0</ele><time>2026-04-04T14:55:31.954Z</time></trkpt><trkpt lat="-25.028283708511307" lon="-53.361261913847585"><ele>731.0</ele><time>2026-04-04T14:55:32.954Z</time></trkpt><trkpt lat="-25.028368051807668" lon="-53.36132061486045"><ele>731.0</ele><time>2026-04-04T14:55:33.953Z</time></trkpt><trkpt lat="-25.028449884977313" lon="-53.36136018995364"><ele>731.0</ele><time>2026-04-04T14:55:34.954Z</time></trkpt><trkpt lat="-25.02854395908586" lon="-53.361404190687715"><ele>731.0</ele><time>2026-04-04T14:55:35.954Z</time></trkpt><trkpt lat="-25.028655759836173" lon="-53.361462468714606"><ele>729.75</ele><time>2026-04-04T14:55:36.953Z</time></trkpt><trkpt lat="-25.028757807778" lon="-53.36150269302931"><ele>728.5</ele><time>2026-04-04T14:55:37.954Z</time></trkpt><trkpt lat="-25.028860824530778" lon="-53.36154361776827"><ele>727.25</ele><time>2026-04-04T14:55:38.954Z</time></trkpt><trkpt lat="-25.028981166106533" lon="-53.361581351390534"><ele>726.0</ele><time>2026-04-04T14:55:39.954Z</time></trkpt><trkpt lat="-25.02908766357985" lon="-53.36163316517922"><ele>724.5</ele><time>2026-04-04T14:55:40.954Z</time></trkpt><trkpt lat="-25.029192164890837" lon="-53.36169358440048"><ele>723.0</ele><time>2026-04-04T14:55:41.954Z</time></trkpt><trkpt lat="-25.02930228987074" lon="-53.36176038266451"><ele>721.5</ele><time>2026-04-04T14:55:42.954Z</time></trkpt><trkpt lat="-25.02942339781508" lon="-53.36182908019236"><ele>720.0</ele><time>2026-04-04T14:55:43.954Z</time></trkpt><trkpt lat="-25.029532298641108" lon="-53.36189506281236"><ele>720.0</ele><time>2026-04-04T14:55:44.954Z</time></trkpt><trkpt lat="-25.029646460440244" lon="-53.36195833837189"><ele>720.0</ele><time>2026-04-04T14:55:45.954Z</time></trkpt><trkpt lat="-25.029773500962083" lon="-53.362023481171384"><ele>720.0</ele><time>2026-04-04T14:55:46.954Z</time></trkpt><trkpt lat="-25.029890447054015" lon="-53.362089965008934"><ele>720.0</ele><time>2026-04-04T14:55:47.954Z</time></trkpt><trkpt lat="-25.03000618294281" lon="-53.36215374266015"><ele>718.5</ele><time>2026-04-04T14:55:48.954Z</time></trkpt><trkpt lat="-25.030124910454163" lon="-53.362214902729946"><ele>717.0</ele><time>2026-04-04T14:55:49.954Z</time></trkpt><trkpt lat="-25.030236937960296" lon="-53.362279491655"><ele>715.5</ele><time>2026-04-04T14:55:50.954Z</time></trkpt><trkpt lat="-25.030337751717134" lon="-53.36233051343723"><ele>714.0</ele><time>2026-04-04T14:55:51.954Z</time></trkpt><trkpt lat="-25.03042696887891" lon="-53.3623860000669"><ele>714.0</ele><time>2026-04-04T14:55:52.954Z</time></trkpt><trkpt lat="-25.030512846178205" lon="-53.36243877373138"><ele>714.0</ele><time>2026-04-04T14:55:53.954Z</time></trkpt><trkpt lat="-25.03059428537735" lon="-53.36248842291599"><ele>714.0</ele><time>2026-04-04T14:55:54.954Z</time></trkpt><trkpt lat="-25.030667341419708" lon="-53.36253302564568"><ele>714.0</ele><time>2026-04-04T14:55:55.954Z</time></trkpt><trkpt lat="-25.0307322789915" lon="-53.36257232236049"><ele>714.0</ele><time>2026-04-04T14:55:56.954Z</time></trkpt><trkpt lat="-25.03079166495185" lon="-53.362611858424366"><ele>714.0</ele><time>2026-04-04T14:55:57.954Z</time></trkpt><trkpt lat="-25.03084192272241" lon="-53.36265582112599"><ele>713.6666666666666</ele><time>2026-04-04T14:55:58.954Z</time></trkpt><trkpt lat="-25.03086874994705" lon="-53.362720001692544"><ele>713.3333333333334</ele><time>2026-04-04T14:55:59.954Z</time></trkpt><trkpt lat="-25.03088616259112" lon="-53.36279633458991"><ele>713.0</ele><time>2026-04-04T14:56:00.954Z</time></trkpt><trkpt lat="-25.03087670371361" lon="-53.362875903748154"><ele>712.6666666666667</ele><time>2026-04-04T14:56:01.954Z</time></trkpt><trkpt lat="-25.030845935313156" lon="-53.362961158579196"><ele>712.3333333333334</ele><time>2026-04-04T14:56:02.954Z</time></trkpt><trkpt lat="-25.03079899700819" lon="-53.36304110316502"><ele>712.0</ele><time>2026-04-04T14:56:03.954Z</time></trkpt><trkpt lat="-25.030747044176195" lon="-53.36312801614419"><ele>713.8</ele><time>2026-04-04T14:56:04.954Z</time></trkpt><trkpt lat="-25.030699948680958" lon="-53.3632239144114"><ele>715.6</ele><time>2026-04-04T14:56:05.954Z</time></trkpt><trkpt lat="-25.03065399865946" lon="-53.36333213552763"><ele>717.4</ele><time>2026-04-04T14:56:06.954Z</time></trkpt><trkpt lat="-25.030616149800835" lon="-53.36343723875688"><ele>719.1999999999999</ele><time>2026-04-04T14:56:07.954Z</time></trkpt><trkpt lat="-25.030570061147944" lon="-53.36354551995663"><ele>721.0</ele><time>2026-04-04T14:56:08.954Z</time></trkpt><trkpt lat="-25.03052389857317" lon="-53.363653618540845"><ele>721.0</ele><time>2026-04-04T14:56:09.954Z</time></trkpt><trkpt lat="-25.030480334479222" lon="-53.36375561249645"><ele>721.0</ele><time>2026-04-04T14:56:10.954Z</time></trkpt><trkpt lat="-25.030438881535883" lon="-53.36385725924871"><ele>721.0</ele><time>2026-04-04T14:56:11.954Z</time></trkpt><trkpt lat="-25.030394112929493" lon="-53.36395758088856"><ele>721.0</ele><time>2026-04-04T14:56:12.954Z</time></trkpt><trkpt lat="-25.030351236988874" lon="-53.364061691856136"><ele>721.0</ele><time>2026-04-04T14:56:13.954Z</time></trkpt><trkpt lat="-25.03030739080109" lon="-53.36416717116464"><ele>721.1999999999999</ele><time>2026-04-04T14:56:14.954Z</time></trkpt><trkpt lat="-25.030263001659648" lon="-53.36426918005081"><ele>721.4</ele><time>2026-04-04T14:56:15.954Z</time></trkpt><trkpt lat="-25.030223900643133" lon="-53.364364522486845"><ele>721.6</ele><time>2026-04-04T14:56:16.954Z</time></trkpt><trkpt lat="-25.030188411615217" lon="-53.36444947207475"><ele>721.8</ele><time>2026-04-04T14:56:17.954Z</time></trkpt><trkpt lat="-25.030148324833675" lon="-53.36454149980237"><ele>722.0</ele><time>2026-04-04T14:56:18.954Z</time></trkpt><trkpt lat="-25.030104633599866" lon="-53.364636685317194"><ele>721.6</ele><time>2026-04-04T14:56:19.954Z</time></trkpt><trkpt lat="-25.030060425528823" lon="-53.36473535547305"><ele>721.2</ele><time>2026-04-04T14:56:20.954Z</time></trkpt><trkpt lat="-25.030014122422465" lon="-53.364842394884626"><ele>720.8</ele><time>2026-04-04T14:56:21.954Z</time></trkpt><trkpt lat="-25.029965550994525" lon="-53.36493825935095"><ele>720.4</ele><time>2026-04-04T14:56:22.954Z</time></trkpt><trkpt lat="-25.029916643367887" lon="-53.365043928175155"><ele>720.0</ele><time>2026-04-04T14:56:23.954Z</time></trkpt><trkpt lat="-25.029871024982203" lon="-53.365152069932236"><ele>719.4</ele><time>2026-04-04T14:56:24.954Z</time></trkpt><trkpt lat="-25.029816301944223" lon="-53.36526517040752"><ele>718.8</ele><time>2026-04-04T14:56:25.954Z</time></trkpt><trkpt lat="-25.029766650928963" lon="-53.365367125515675"><ele>718.2</ele><time>2026-04-04T14:56:26.954Z</time></trkpt><trkpt lat="-25.02972049453784" lon="-53.365462677040796"><ele>717.6</ele><time>2026-04-04T14:56:27.954Z</time></trkpt><trkpt lat="-25.029678286928586" lon="-53.36555057754279"><ele>717.0</ele><time>2026-04-04T14:56:28.954Z</time></trkpt><trkpt lat="-25.029635299728593" lon="-53.36563609637471"><ele>716.2</ele><time>2026-04-04T14:56:29.954Z</time></trkpt><trkpt lat="-25.02959750440851" lon="-53.365722865494"><ele>715.4000000000001</ele><time>2026-04-04T14:56:30.954Z</time></trkpt><trkpt lat="-25.029551530796624" lon="-53.3658111494006"><ele>714.5999999999999</ele><time>2026-04-04T14:56:31.954Z</time></trkpt><trkpt lat="-25.029511632560215" lon="-53.36590374315135"><ele>713.8</ele><time>2026-04-04T14:56:32.954Z</time></trkpt><trkpt lat="-25.029468442010447" lon="-53.366002739430364"><ele>713.0</ele><time>2026-04-04T14:56:33.954Z</time></trkpt><trkpt lat="-25.02941962881072" lon="-53.36611509561035"><ele>713.0</ele><time>2026-04-04T14:56:34.954Z</time></trkpt><trkpt lat="-25.02936594267571" lon="-53.36621960952299"><ele>713.0</ele><time>2026-04-04T14:56:35.954Z</time></trkpt><trkpt lat="-25.029306256449306" lon="-53.366322853480504"><ele>713.0</ele><time>2026-04-04T14:56:36.954Z</time></trkpt><trkpt lat="-25.029247253132578" lon="-53.3664229744884"><ele>713.0</ele><time>2026-04-04T14:56:37.954Z</time></trkpt><trkpt lat="-25.029201375510517" lon="-53.36652537034061"><ele>713.0</ele><time>2026-04-04T14:56:38.954Z</time></trkpt><trkpt lat="-25.029157449322135" lon="-53.3666276960862"><ele>711.4</ele><time>2026-04-04T14:56:39.954Z</time></trkpt><trkpt lat="-25.029114150680755" lon="-53.36672916253386"><ele>709.8</ele><time>2026-04-04T14:56:40.954Z</time></trkpt><trkpt lat="-25.029068286072963" lon="-53.36684181173747"><ele>708.2</ele><time>2026-04-04T14:56:41.954Z</time></trkpt><trkpt lat="-25.02901848569704" lon="-53.36694856994361"><ele>706.6</ele><time>2026-04-04T14:56:42.954Z</time></trkpt><trkpt lat="-25.028965412049843" lon="-53.36706073377449"><ele>705.0</ele><time>2026-04-04T14:56:43.954Z</time></trkpt><trkpt lat="-25.028917982167435" lon="-53.36717616306561"><ele>703.4</ele><time>2026-04-04T14:56:44.954Z</time></trkpt><trkpt lat="-25.028871354094818" lon="-53.3672947422304"><ele>701.8</ele><time>2026-04-04T14:56:45.954Z</time></trkpt><trkpt lat="-25.02882839661015" lon="-53.367396409165856"><ele>700.2</ele><time>2026-04-04T14:56:46.954Z</time></trkpt><trkpt lat="-25.028789565241155" lon="-53.36749696830107"><ele>698.6</ele><time>2026-04-04T14:56:47.954Z</time></trkpt><trkpt lat="-25.028753898109233" lon="-53.36760730637677"><ele>697.0</ele><time>2026-04-04T14:56:48.954Z</time></trkpt><trkpt lat="-25.0287120246998" lon="-53.36771730830671"><ele>697.0</ele><time>2026-04-04T14:56:49.954Z</time></trkpt><trkpt lat="-25.02866685333452" lon="-53.3678101219837"><ele>697.0</ele><time>2026-04-04T14:56:50.954Z</time></trkpt><trkpt lat="-25.028621725388405" lon="-53.36789529633354"><ele>697.0</ele><time>2026-04-04T14:56:51.954Z</time></trkpt><trkpt lat="-25.028581509824416" lon="-53.36796925204977"><ele>697.0</ele><time>2026-04-04T14:56:52.954Z</time></trkpt><trkpt lat="-25.028539858118986" lon="-53.368029341315825"><ele>697.0</ele><time>2026-04-04T14:56:53.954Z</time></trkpt><trkpt lat="-25.02850492484581" lon="-53.36812880312175"><ele>697.0</ele><time>2026-04-04T14:56:55.954Z</time></trkpt><trkpt lat="-25.028513068677313" lon="-53.36821274521635"><ele>696.1666666666667</ele><time>2026-04-04T14:56:57.954Z</time></trkpt><trkpt lat="-25.02854654106404" lon="-53.36828790692783"><ele>695.3333333333334</ele><time>2026-04-04T14:57:00.954Z</time></trkpt><trkpt lat="-25.0285937541241" lon="-53.36835872606226"><ele>694.5</ele><time>2026-04-04T14:57:04.954Z</time></trkpt><trkpt lat="-25.028595474353335" lon="-53.36842858426966"><ele>693.6666666666666</ele><time>2026-04-04T14:57:06.954Z</time></trkpt><trkpt lat="-25.02859767014206" lon="-53.36853611437312"><ele>692.8333333333333</ele><time>2026-04-04T14:57:08.954Z</time></trkpt><trkpt lat="-25.02861541231155" lon="-53.36861239420217"><ele>692.0</ele><time>2026-04-04T14:57:11.954Z</time></trkpt><trkpt lat="-25.028699221303867" lon="-53.36864951771344"><ele>692.0</ele><time>2026-04-04T14:57:15.954Z</time></trkpt><trkpt lat="-25.028743203486155" lon="-53.368699932585116"><ele>692.0</ele><time>2026-04-04T14:57:24.954Z</time></trkpt><trkpt lat="-25.028769145426484" lon="-53.36877201969321"><ele>692.0</ele><time>2026-04-04T14:59:06.953Z</time></trkpt></trkseg></trk></gpx>